<?xml version="1.0" encoding="UTF-8" standalone="no" ?><gpx xmlns="http://www.topografix.com/GPX/1/1" xmlns:gpxx="http://www.garmin.com/xmlschemas/GpxExtensions/v3" xmlns:wptx1="http://www.garmin.com/xmlschemas/WaypointExtension/v1" xmlns:gpxtpx="http://www.garmin.com/xmlschemas/TrackPointExtension/v1" creator="Astro 320" version="1.1" xmlns:xsi="http://www.w3.org/2001/XMLSchema-instance" xsi:schemaLocation="http://www.topografix.com/GPX/1/1 http://www.topografix.com/GPX/1/1/gpx.xsd http://www.garmin.com/xmlschemas/GpxExtensions/v3 http://www8.garmin.com/xmlschemas/GpxExtensionsv3.xsd http://www.garmin.com/xmlschemas/WaypointExtension/v1 http://www8.garmin.com/xmlschemas/WaypointExtensionv1.xsd http://www.garmin.com/xmlschemas/TrackPointExtension/v1 http://www.garmin.com/xmlschemas/TrackPointExtensionv1.xsd"><metadata><link href="http://www.garmin.com"><text>Garmin International</text></link><time>2026-04-25T16:33:19Z</time></metadata><trk><name>2026-04-25 19:33:12</name><extensions><gpxx:TrackExtension><gpxx:DisplayColor>Red</gpxx:DisplayColor></gpxx:TrackExtension></extensions><trkseg><trkpt lat="59.0560076293" lon="29.9818747770"><ele>138.57</ele><time>2026-04-25T09:02:43Z</time></trkpt><trkpt lat="59.0560059529" lon="29.9818756152"><ele>137.61</ele><time>2026-04-25T09:03:07Z</time></trkpt><trkpt lat="59.0560055338" lon="29.9818686582"><ele>136.64</ele><time>2026-04-25T09:03:35Z</time></trkpt><trkpt lat="59.0560051147" lon="29.9818764534"><ele>135.68</ele><time>2026-04-25T09:04:03Z</time></trkpt><trkpt lat="59.0560047794" lon="29.9818747770"><ele>134.72</ele><time>2026-04-25T09:04:37Z</time></trkpt><trkpt lat="59.0560057014" lon="29.9818634614"><ele>134.24</ele><time>2026-04-25T09:05:11Z</time></trkpt><trkpt lat="59.0560063720" lon="29.9818585161"><ele>133.28</ele><time>2026-04-25T09:05:43Z</time></trkpt><trkpt lat="59.0560036059" lon="29.9818507209"><ele>131.84</ele><time>2026-04-25T09:06:18Z</time></trkpt><trkpt lat="59.0560019296" lon="29.9818542413"><ele>130.88</ele><time>2026-04-25T09:06:50Z</time></trkpt><trkpt lat="59.0560018457" lon="29.9818609469"><ele>129.92</ele><time>2026-04-25T09:07:27Z</time></trkpt><trkpt lat="59.0560013428" lon="29.9818658922"><ele>128.47</ele><time>2026-04-25T09:08:09Z</time></trkpt><trkpt lat="59.0560057014" lon="29.9818649702"><ele>127.99</ele><time>2026-04-25T09:08:36Z</time></trkpt><trkpt lat="59.0560066234" lon="29.9818539899"><ele>126.55</ele><time>2026-04-25T09:09:21Z</time></trkpt><trkpt lat="59.0560129937" lon="29.9818522297"><ele>125.59</ele><time>2026-04-25T09:09:58Z</time></trkpt><trkpt lat="59.0560129937" lon="29.9818518106"><ele>124.63</ele><time>2026-04-25T09:10:33Z</time></trkpt><trkpt lat="59.0560150053" lon="29.9818399083"><ele>124.15</ele><time>2026-04-25T09:10:56Z</time></trkpt><trkpt lat="59.0560055338" lon="29.9818520620"><ele>123.67</ele><time>2026-04-25T09:11:12Z</time></trkpt><trkpt lat="59.0560046956" lon="29.9818469491"><ele>123.19</ele><time>2026-04-25T09:11:31Z</time></trkpt><trkpt lat="59.0560151730" lon="29.9818477035"><ele>123.19</ele><time>2026-04-25T09:11:41Z</time></trkpt><trkpt lat="59.0560572501" lon="29.9818253238"><ele>123.19</ele><time>2026-04-25T09:11:56Z</time></trkpt><trkpt lat="59.0560611896" lon="29.9818348791"><ele>122.22</ele><time>2026-04-25T09:12:17Z</time></trkpt><trkpt lat="59.0560640395" lon="29.9818399921"><ele>121.74</ele><time>2026-04-25T09:12:38Z</time></trkpt><trkpt lat="59.0560676437" lon="29.9818381481"><ele>121.74</ele><time>2026-04-25T09:12:54Z</time></trkpt><trkpt lat="59.0560577530" lon="29.9818404112"><ele>121.26</ele><time>2026-04-25T09:13:05Z</time></trkpt><trkpt lat="59.0560450125" lon="29.9818626232"><ele>120.78</ele><time>2026-04-25T09:13:18Z</time></trkpt><trkpt lat="59.0560454316" lon="29.9818567559"><ele>120.78</ele><time>2026-04-25T09:13:19Z</time></trkpt><trkpt lat="59.0560126584" lon="29.9818652216"><ele>120.78</ele><time>2026-04-25T09:13:30Z</time></trkpt><trkpt lat="59.0560488682" lon="29.9818124156"><ele>120.30</ele><time>2026-04-25T09:13:42Z</time></trkpt><trkpt lat="59.0560492873" lon="29.9818181992"><ele>120.78</ele><time>2026-04-25T09:14:02Z</time></trkpt><trkpt lat="59.0560538135" lon="29.9818386510"><ele>120.30</ele><time>2026-04-25T09:14:18Z</time></trkpt><trkpt lat="59.0560601000" lon="29.9818694964"><ele>119.82</ele><time>2026-04-25T09:14:41Z</time></trkpt><trkpt lat="59.0560672246" lon="29.9818650540"><ele>119.34</ele><time>2026-04-25T09:15:00Z</time></trkpt><trkpt lat="59.0560688172" lon="29.9818635453"><ele>118.86</ele><time>2026-04-25T09:15:16Z</time></trkpt><trkpt lat="59.0560595132" lon="29.9818688259"><ele>118.38</ele><time>2026-04-25T09:15:30Z</time></trkpt><trkpt lat="59.0560516343" lon="29.9818750285"><ele>118.38</ele><time>2026-04-25T09:15:36Z</time></trkpt><trkpt lat="59.0559974872" lon="29.9818720110"><ele>118.38</ele><time>2026-04-25T09:15:40Z</time></trkpt><trkpt lat="59.0559974872" lon="29.9818689935"><ele>118.38</ele><time>2026-04-25T09:15:49Z</time></trkpt><trkpt lat="59.0560133290" lon="29.9818644673"><ele>117.90</ele><time>2026-04-25T09:15:58Z</time></trkpt><trkpt lat="59.0560380556" lon="29.9818527326"><ele>117.90</ele><time>2026-04-25T09:16:09Z</time></trkpt><trkpt lat="59.0560563281" lon="29.9818566721"><ele>117.42</ele><time>2026-04-25T09:16:27Z</time></trkpt><trkpt lat="59.0560632013" lon="29.9818569236"><ele>116.94</ele><time>2026-04-25T09:16:41Z</time></trkpt><trkpt lat="59.0560722537" lon="29.9818625394"><ele>117.42</ele><time>2026-04-25T09:16:58Z</time></trkpt><trkpt lat="59.0560695715" lon="29.9818668142"><ele>116.94</ele><time>2026-04-25T09:17:06Z</time></trkpt><trkpt lat="59.0560801327" lon="29.9818547443"><ele>116.94</ele><time>2026-04-25T09:17:15Z</time></trkpt><trkpt lat="59.0561243892" lon="29.9819666427"><ele>116.46</ele><time>2026-04-25T09:17:28Z</time></trkpt><trkpt lat="59.0561108943" lon="29.9819108192"><ele>116.46</ele><time>2026-04-25T09:17:47Z</time></trkpt><trkpt lat="59.0560699068" lon="29.9818485416"><ele>115.98</ele><time>2026-04-25T09:18:00Z</time></trkpt><trkpt lat="59.0560663864" lon="29.9818390701"><ele>115.98</ele><time>2026-04-25T09:18:14Z</time></trkpt><trkpt lat="59.0560691524" lon="29.9818432610"><ele>115.50</ele><time>2026-04-25T09:18:29Z</time></trkpt><trkpt lat="59.0560674760" lon="29.9818432610"><ele>115.50</ele><time>2026-04-25T09:18:47Z</time></trkpt><trkpt lat="59.0560689848" lon="29.9818548281"><ele>115.50</ele><time>2026-04-25T09:19:01Z</time></trkpt><trkpt lat="59.0560725890" lon="29.9818502180"><ele>115.01</ele><time>2026-04-25T09:19:13Z</time></trkpt><trkpt lat="59.0560698230" lon="29.9818467814"><ele>114.53</ele><time>2026-04-25T09:19:31Z</time></trkpt><trkpt lat="59.0560695715" lon="29.9818491284"><ele>114.05</ele><time>2026-04-25T09:19:50Z</time></trkpt><trkpt lat="59.0560701583" lon="29.9818519782"><ele>114.05</ele><time>2026-04-25T09:20:03Z</time></trkpt><trkpt lat="59.0561941266" lon="29.9819663074"><ele>113.57</ele><time>2026-04-25T09:20:21Z</time></trkpt><trkpt lat="59.0562363714" lon="29.9819394853"><ele>112.61</ele><time>2026-04-25T09:20:27Z</time></trkpt><trkpt lat="59.0563476831" lon="29.9819275830"><ele>112.13</ele><time>2026-04-25T09:20:39Z</time></trkpt><trkpt lat="59.0563922748" lon="29.9820049480"><ele>112.13</ele><time>2026-04-25T09:20:45Z</time></trkpt><trkpt lat="59.0564763453" lon="29.9820600171"><ele>112.13</ele><time>2026-04-25T09:20:53Z</time></trkpt><trkpt lat="59.0566314943" lon="29.9820616934"><ele>111.65</ele><time>2026-04-25T09:21:07Z</time></trkpt><trkpt lat="59.0566857252" lon="29.9820367154"><ele>111.65</ele><time>2026-04-25T09:21:12Z</time></trkpt><trkpt lat="59.0567638446" lon="29.9819529802"><ele>111.65</ele><time>2026-04-25T09:21:25Z</time></trkpt><trkpt lat="59.0567703824" lon="29.9819406588"><ele>111.65</ele><time>2026-04-25T09:21:26Z</time></trkpt><trkpt lat="59.0568334144" lon="29.9819307681"><ele>111.17</ele><time>2026-04-25T09:21:33Z</time></trkpt><trkpt lat="59.0569058340" lon="29.9818839133"><ele>111.17</ele><time>2026-04-25T09:21:44Z</time></trkpt><trkpt lat="59.0569606517" lon="29.9818380643"><ele>111.17</ele><time>2026-04-25T09:21:51Z</time></trkpt><trkpt lat="59.0569781698" lon="29.9818537384"><ele>111.17</ele><time>2026-04-25T09:21:53Z</time></trkpt><trkpt lat="59.0569968615" lon="29.9818476196"><ele>111.17</ele><time>2026-04-25T09:21:55Z</time></trkpt><trkpt lat="59.0570570435" lon="29.9818268325"><ele>110.69</ele><time>2026-04-25T09:22:03Z</time></trkpt><trkpt lat="59.0571334865" lon="29.9818319455"><ele>110.69</ele><time>2026-04-25T09:22:14Z</time></trkpt><trkpt lat="59.0572222508" lon="29.9819206260"><ele>110.21</ele><time>2026-04-25T09:22:26Z</time></trkpt><trkpt lat="59.0572478157" lon="29.9819514714"><ele>109.73</ele><time>2026-04-25T09:22:30Z</time></trkpt><trkpt lat="59.0573297068" lon="29.9819667265"><ele>109.73</ele><time>2026-04-25T09:22:41Z</time></trkpt><trkpt lat="59.0573516674" lon="29.9819798861"><ele>109.73</ele><time>2026-04-25T09:22:44Z</time></trkpt><trkpt lat="59.0574354026" lon="29.9820331112"><ele>109.73</ele><time>2026-04-25T09:22:56Z</time></trkpt><trkpt lat="59.0574302059" lon="29.9820238072"><ele>109.25</ele><time>2026-04-25T09:23:13Z</time></trkpt><trkpt lat="59.0575098339" lon="29.9820683151"><ele>109.25</ele><time>2026-04-25T09:23:24Z</time></trkpt><trkpt lat="59.0576404240" lon="29.9821243901"><ele>108.77</ele><time>2026-04-25T09:23:38Z</time></trkpt><trkpt lat="59.0577742830" lon="29.9821699038"><ele>108.77</ele><time>2026-04-25T09:23:52Z</time></trkpt><trkpt lat="59.0578689985" lon="29.9822547287"><ele>108.29</ele><time>2026-04-25T09:24:06Z</time></trkpt><trkpt lat="59.0579744428" lon="29.9823258910"><ele>108.29</ele><time>2026-04-25T09:24:19Z</time></trkpt><trkpt lat="59.0580373071" lon="29.9823397212"><ele>108.29</ele><time>2026-04-25T09:24:27Z</time></trkpt><trkpt lat="59.0580787137" lon="29.9823463429"><ele>108.29</ele><time>2026-04-25T09:24:31Z</time></trkpt><trkpt lat="59.0581472777" lon="29.9823983107"><ele>107.81</ele><time>2026-04-25T09:24:44Z</time></trkpt><trkpt lat="59.0582126565" lon="29.9824083690"><ele>107.81</ele><time>2026-04-25T09:24:56Z</time></trkpt><trkpt lat="59.0582501236" lon="29.9824519549"><ele>107.81</ele><time>2026-04-25T09:25:05Z</time></trkpt><trkpt lat="59.0582884289" lon="29.9825722352"><ele>107.32</ele><time>2026-04-25T09:25:17Z</time></trkpt><trkpt lat="59.0583222918" lon="29.9826009851"><ele>107.32</ele><time>2026-04-25T09:25:23Z</time></trkpt><trkpt lat="59.0584237128" lon="29.9826652743"><ele>107.32</ele><time>2026-04-25T09:25:36Z</time></trkpt><trkpt lat="59.0584314242" lon="29.9826695491"><ele>107.32</ele><time>2026-04-25T09:25:37Z</time></trkpt><trkpt lat="59.0585314203" lon="29.9827569723"><ele>106.84</ele><time>2026-04-25T09:25:50Z</time></trkpt><trkpt lat="59.0585519560" lon="29.9827621691"><ele>106.84</ele><time>2026-04-25T09:25:53Z</time></trkpt><trkpt lat="59.0586670395" lon="29.9827796873"><ele>106.84</ele><time>2026-04-25T09:26:05Z</time></trkpt><trkpt lat="59.0587708913" lon="29.9828082696"><ele>106.84</ele><time>2026-04-25T09:26:20Z</time></trkpt><trkpt lat="59.0588881541" lon="29.9828210939"><ele>106.36</ele><time>2026-04-25T09:26:34Z</time></trkpt><trkpt lat="59.0588751622" lon="29.9828013964"><ele>106.36</ele><time>2026-04-25T09:26:52Z</time></trkpt><trkpt lat="59.0588753298" lon="29.9828190822"><ele>105.88</ele><time>2026-04-25T09:27:19Z</time></trkpt><trkpt lat="59.0588956978" lon="29.9828252848"><ele>105.88</ele><time>2026-04-25T09:27:31Z</time></trkpt><trkpt lat="59.0589565504" lon="29.9829155579"><ele>105.88</ele><time>2026-04-25T09:27:41Z</time></trkpt><trkpt lat="59.0590505116" lon="29.9829417095"><ele>105.40</ele><time>2026-04-25T09:27:52Z</time></trkpt><trkpt lat="59.0591528546" lon="29.9830023944"><ele>105.40</ele><time>2026-04-25T09:28:04Z</time></trkpt><trkpt lat="59.0592311416" lon="29.9830505066"><ele>105.40</ele><time>2026-04-25T09:28:15Z</time></trkpt><trkpt lat="59.0593559481" lon="29.9830695335"><ele>104.92</ele><time>2026-04-25T09:28:28Z</time></trkpt><trkpt lat="59.0594266076" lon="29.9831069168"><ele>104.92</ele><time>2026-04-25T09:28:37Z</time></trkpt><trkpt lat="59.0594663378" lon="29.9831728823"><ele>104.92</ele><time>2026-04-25T09:28:42Z</time></trkpt><trkpt lat="59.0594920702" lon="29.9831807613"><ele>104.92</ele><time>2026-04-25T09:28:45Z</time></trkpt><trkpt lat="59.0595380869" lon="29.9832117744"><ele>104.92</ele><time>2026-04-25T09:28:50Z</time></trkpt><trkpt lat="59.0596597083" lon="29.9832412787"><ele>104.92</ele><time>2026-04-25T09:29:02Z</time></trkpt><trkpt lat="59.0597079881" lon="29.9832475651"><ele>104.92</ele><time>2026-04-25T09:29:08Z</time></trkpt><trkpt lat="59.0597508196" lon="29.9832270294"><ele>104.44</ele><time>2026-04-25T09:29:20Z</time></trkpt><trkpt lat="59.0598123427" lon="29.9832168035"><ele>105.40</ele><time>2026-04-25T09:29:37Z</time></trkpt><trkpt lat="59.0598384105" lon="29.9832427874"><ele>105.40</ele><time>2026-04-25T09:29:40Z</time></trkpt><trkpt lat="59.0599262528" lon="29.9832637422"><ele>105.40</ele><time>2026-04-25T09:29:51Z</time></trkpt><trkpt lat="59.0600109939" lon="29.9833318871"><ele>105.40</ele><time>2026-04-25T09:30:03Z</time></trkpt><trkpt lat="59.0600312781" lon="29.9833395984"><ele>104.92</ele><time>2026-04-25T09:30:05Z</time></trkpt><trkpt lat="59.0601595212" lon="29.9833468907"><ele>104.92</ele><time>2026-04-25T09:30:19Z</time></trkpt><trkpt lat="59.0602036938" lon="29.9833623134"><ele>104.92</ele><time>2026-04-25T09:30:28Z</time></trkpt><trkpt lat="59.0602626186" lon="29.9833921529"><ele>104.92</ele><time>2026-04-25T09:30:36Z</time></trkpt><trkpt lat="59.0603599325" lon="29.9834442884"><ele>104.44</ele><time>2026-04-25T09:30:48Z</time></trkpt><trkpt lat="59.0603948012" lon="29.9834561907"><ele>104.44</ele><time>2026-04-25T09:30:52Z</time></trkpt><trkpt lat="59.0604132414" lon="29.9834523350"><ele>104.44</ele><time>2026-04-25T09:30:54Z</time></trkpt><trkpt lat="59.0605204459" lon="29.9834633991"><ele>104.44</ele><time>2026-04-25T09:31:06Z</time></trkpt><trkpt lat="59.0606003255" lon="29.9835172109"><ele>104.44</ele><time>2026-04-25T09:31:15Z</time></trkpt><trkpt lat="59.0606302489" lon="29.9835352320"><ele>104.44</ele><time>2026-04-25T09:31:19Z</time></trkpt><trkpt lat="59.0606540535" lon="29.9835203961"><ele>104.44</ele><time>2026-04-25T09:31:23Z</time></trkpt><trkpt lat="59.0606883354" lon="29.9835540913"><ele>103.96</ele><time>2026-04-25T09:31:28Z</time></trkpt><trkpt lat="59.0607750881" lon="29.9835775606"><ele>103.96</ele><time>2026-04-25T09:31:39Z</time></trkpt><trkpt lat="59.0608927701" lon="29.9836489744"><ele>103.96</ele><time>2026-04-25T09:31:52Z</time></trkpt><trkpt lat="59.0609791875" lon="29.9837010261"><ele>103.48</ele><time>2026-04-25T09:32:03Z</time></trkpt><trkpt lat="59.0610190853" lon="29.9836772215"><ele>103.48</ele><time>2026-04-25T09:32:09Z</time></trkpt><trkpt lat="59.0611029044" lon="29.9837167002"><ele>103.48</ele><time>2026-04-25T09:32:19Z</time></trkpt><trkpt lat="59.0611277148" lon="29.9837005232"><ele>103.48</ele><time>2026-04-25T09:32:31Z</time></trkpt><trkpt lat="59.0611286368" lon="29.9836811610"><ele>103.48</ele><time>2026-04-25T09:32:55Z</time></trkpt><trkpt lat="59.0611305647" lon="29.9836879503"><ele>103.00</ele><time>2026-04-25T09:33:13Z</time></trkpt><trkpt lat="59.0611289721" lon="29.9836971704"><ele>103.00</ele><time>2026-04-25T09:33:43Z</time></trkpt><trkpt lat="59.0611817781" lon="29.9837270938"><ele>102.52</ele><time>2026-04-25T09:34:00Z</time></trkpt><trkpt lat="59.0612740628" lon="29.9837454502"><ele>102.52</ele><time>2026-04-25T09:34:11Z</time></trkpt><trkpt lat="59.0613489971" lon="29.9837484676"><ele>102.52</ele><time>2026-04-25T09:34:21Z</time></trkpt><trkpt lat="59.0614345763" lon="29.9837710988"><ele>101.56</ele><time>2026-04-25T09:34:31Z</time></trkpt><trkpt lat="59.0614481550" lon="29.9837800674"><ele>101.08</ele><time>2026-04-25T09:34:33Z</time></trkpt><trkpt lat="59.0615280345" lon="29.9838238209"><ele>101.08</ele><time>2026-04-25T09:34:46Z</time></trkpt><trkpt lat="59.0615673456" lon="29.9838191271"><ele>101.08</ele><time>2026-04-25T09:34:57Z</time></trkpt><trkpt lat="59.0616489854" lon="29.9838066380"><ele>101.08</ele><time>2026-04-25T09:35:07Z</time></trkpt><trkpt lat="59.0617583692" lon="29.9838359747"><ele>100.60</ele><time>2026-04-25T09:35:21Z</time></trkpt><trkpt lat="59.0617835149" lon="29.9838573486"><ele>100.60</ele><time>2026-04-25T09:35:27Z</time></trkpt><trkpt lat="59.0618876182" lon="29.9838874396"><ele>100.60</ele><time>2026-04-25T09:35:39Z</time></trkpt><trkpt lat="59.0619704314" lon="29.9839146808"><ele>100.11</ele><time>2026-04-25T09:35:49Z</time></trkpt><trkpt lat="59.0620241594" lon="29.9839471187"><ele>100.11</ele><time>2026-04-25T09:36:01Z</time></trkpt><trkpt lat="59.0621127561" lon="29.9839694984"><ele>99.63</ele><time>2026-04-25T09:36:12Z</time></trkpt><trkpt lat="59.0621645562" lon="29.9839626253"><ele>99.15</ele><time>2026-04-25T09:36:23Z</time></trkpt><trkpt lat="59.0622031130" lon="29.9839290977"><ele>99.15</ele><time>2026-04-25T09:36:37Z</time></trkpt><trkpt lat="59.0623134188" lon="29.9839142617"><ele>98.67</ele><time>2026-04-25T09:36:49Z</time></trkpt><trkpt lat="59.0624435898" lon="29.9839238171"><ele>98.67</ele><time>2026-04-25T09:37:01Z</time></trkpt><trkpt lat="59.0625036042" lon="29.9839183688"><ele>98.67</ele><time>2026-04-25T09:37:14Z</time></trkpt><trkpt lat="59.0626248065" lon="29.9839690793"><ele>98.19</ele><time>2026-04-25T09:37:27Z</time></trkpt><trkpt lat="59.0627090447" lon="29.9840000924"><ele>98.19</ele><time>2026-04-25T09:37:36Z</time></trkpt><trkpt lat="59.0627740882" lon="29.9839601945"><ele>97.71</ele><time>2026-04-25T09:37:49Z</time></trkpt><trkpt lat="59.0628043469" lon="29.9839773774"><ele>97.71</ele><time>2026-04-25T09:37:53Z</time></trkpt><trkpt lat="59.0628345218" lon="29.9839947280"><ele>97.71</ele><time>2026-04-25T09:37:56Z</time></trkpt><trkpt lat="59.0629014932" lon="29.9839806464"><ele>97.23</ele><time>2026-04-25T09:38:07Z</time></trkpt><trkpt lat="59.0629356913" lon="29.9839818198"><ele>97.23</ele><time>2026-04-25T09:38:12Z</time></trkpt><trkpt lat="59.0630133078" lon="29.9839871004"><ele>97.23</ele><time>2026-04-25T09:38:22Z</time></trkpt><trkpt lat="59.0630145650" lon="29.9840430915"><ele>97.23</ele><time>2026-04-25T09:38:26Z</time></trkpt><trkpt lat="59.0630190074" lon="29.9840875156"><ele>97.23</ele><time>2026-04-25T09:38:29Z</time></trkpt><trkpt lat="59.0630513616" lon="29.9841076322"><ele>97.23</ele><time>2026-04-25T09:38:33Z</time></trkpt><trkpt lat="59.0631528664" lon="29.9841278326"><ele>97.23</ele><time>2026-04-25T09:38:46Z</time></trkpt><trkpt lat="59.0632169880" lon="29.9841210432"><ele>97.23</ele><time>2026-04-25T09:38:53Z</time></trkpt><trkpt lat="59.0632759966" lon="29.9841335323"><ele>96.75</ele><time>2026-04-25T09:39:04Z</time></trkpt><trkpt lat="59.0633428004" lon="29.9841261562"><ele>96.75</ele><time>2026-04-25T09:39:15Z</time></trkpt><trkpt lat="59.0633700415" lon="29.9842055328"><ele>96.75</ele><time>2026-04-25T09:39:22Z</time></trkpt><trkpt lat="59.0634061676" lon="29.9842626136"><ele>96.75</ele><time>2026-04-25T09:39:28Z</time></trkpt><trkpt lat="59.0634350851" lon="29.9843961373"><ele>96.27</ele><time>2026-04-25T09:39:38Z</time></trkpt><trkpt lat="59.0634514298" lon="29.9844466802"><ele>96.27</ele><time>2026-04-25T09:39:42Z</time></trkpt><trkpt lat="59.0634666849" lon="29.9844646174"><ele>95.79</ele><time>2026-04-25T09:39:44Z</time></trkpt><trkpt lat="59.0635486599" lon="29.9845024198"><ele>95.79</ele><time>2026-04-25T09:39:56Z</time></trkpt><trkpt lat="59.0635424573" lon="29.9844849855"><ele>95.79</ele><time>2026-04-25T09:40:13Z</time></trkpt><trkpt lat="59.0635398589" lon="29.9844797049"><ele>95.31</ele><time>2026-04-25T09:40:43Z</time></trkpt><trkpt lat="59.0635372605" lon="29.9844930321"><ele>95.31</ele><time>2026-04-25T09:41:01Z</time></trkpt><trkpt lat="59.0635435469" lon="29.9845053535"><ele>95.31</ele><time>2026-04-25T09:41:21Z</time></trkpt><trkpt lat="59.0636245161" lon="29.9845123105"><ele>94.83</ele><time>2026-04-25T09:41:37Z</time></trkpt><trkpt lat="59.0636432078" lon="29.9845183454"><ele>94.83</ele><time>2026-04-25T09:41:39Z</time></trkpt><trkpt lat="59.0636877995" lon="29.9845806230"><ele>94.83</ele><time>2026-04-25T09:41:46Z</time></trkpt><trkpt lat="59.0637450479" lon="29.9846194312"><ele>94.83</ele><time>2026-04-25T09:41:53Z</time></trkpt><trkpt lat="59.0637846105" lon="29.9846596643"><ele>94.83</ele><time>2026-04-25T09:41:58Z</time></trkpt><trkpt lat="59.0638335608" lon="29.9846631847"><ele>94.35</ele><time>2026-04-25T09:42:06Z</time></trkpt><trkpt lat="59.0638584550" lon="29.9846526235"><ele>94.35</ele><time>2026-04-25T09:42:09Z</time></trkpt><trkpt lat="59.0639933199" lon="29.9847034179"><ele>93.87</ele><time>2026-04-25T09:42:24Z</time></trkpt><trkpt lat="59.0640339721" lon="29.9846909288"><ele>93.87</ele><time>2026-04-25T09:42:29Z</time></trkpt><trkpt lat="59.0640813299" lon="29.9847228639"><ele>93.87</ele><time>2026-04-25T09:42:35Z</time></trkpt><trkpt lat="59.0640990995" lon="29.9848468322"><ele>93.87</ele><time>2026-04-25T09:42:45Z</time></trkpt><trkpt lat="59.0641172044" lon="29.9850060046"><ele>93.87</ele><time>2026-04-25T09:42:58Z</time></trkpt><trkpt lat="59.0641127620" lon="29.9850206729"><ele>93.87</ele><time>2026-04-25T09:43:01Z</time></trkpt><trkpt lat="59.0641376562" lon="29.9851919152"><ele>93.39</ele><time>2026-04-25T09:43:13Z</time></trkpt><trkpt lat="59.0641925577" lon="29.9852906540"><ele>93.39</ele><time>2026-04-25T09:43:25Z</time></trkpt><trkpt lat="59.0642351378" lon="29.9853727128"><ele>93.39</ele><time>2026-04-25T09:43:37Z</time></trkpt><trkpt lat="59.0642520692" lon="29.9854152091"><ele>93.39</ele><time>2026-04-25T09:43:47Z</time></trkpt><trkpt lat="59.0642780531" lon="29.9854830187"><ele>93.39</ele><time>2026-04-25T09:43:58Z</time></trkpt><trkpt lat="59.0643446892" lon="29.9855335616"><ele>92.42</ele><time>2026-04-25T09:44:10Z</time></trkpt><trkpt lat="59.0643930528" lon="29.9855859485"><ele>92.42</ele><time>2026-04-25T09:44:20Z</time></trkpt><trkpt lat="59.0644197073" lon="29.9855919834"><ele>92.42</ele><time>2026-04-25T09:44:25Z</time></trkpt><trkpt lat="59.0644986648" lon="29.9856150337"><ele>92.42</ele><time>2026-04-25T09:44:37Z</time></trkpt><trkpt lat="59.0645584278" lon="29.9856280256"><ele>91.46</ele><time>2026-04-25T09:44:46Z</time></trkpt><trkpt lat="59.0646072943" lon="29.9856698513"><ele>91.46</ele><time>2026-04-25T09:44:57Z</time></trkpt><trkpt lat="59.0646924544" lon="29.9857094977"><ele>91.46</ele><time>2026-04-25T09:45:08Z</time></trkpt><trkpt lat="59.0647905227" lon="29.9857428577"><ele>90.98</ele><time>2026-04-25T09:45:20Z</time></trkpt><trkpt lat="59.0648861602" lon="29.9857074022"><ele>90.98</ele><time>2026-04-25T09:45:31Z</time></trkpt><trkpt lat="59.0649705660" lon="29.9857317936"><ele>90.98</ele><time>2026-04-25T09:45:43Z</time></trkpt><trkpt lat="59.0650502779" lon="29.9857699312"><ele>90.98</ele><time>2026-04-25T09:45:56Z</time></trkpt><trkpt lat="59.0651020780" lon="29.9858057220"><ele>90.98</ele><time>2026-04-25T09:46:08Z</time></trkpt><trkpt lat="59.0651395451" lon="29.9858441949"><ele>90.50</ele><time>2026-04-25T09:46:19Z</time></trkpt><trkpt lat="59.0651663672" lon="29.9858379923"><ele>90.50</ele><time>2026-04-25T09:46:23Z</time></trkpt><trkpt lat="59.0652418043" lon="29.9858682510"><ele>90.50</ele><time>2026-04-25T09:46:34Z</time></trkpt><trkpt lat="59.0653046686" lon="29.9859026168"><ele>90.50</ele><time>2026-04-25T09:46:45Z</time></trkpt><trkpt lat="59.0653454885" lon="29.9859040417"><ele>90.50</ele><time>2026-04-25T09:46:55Z</time></trkpt><trkpt lat="59.0654115379" lon="29.9859106634"><ele>90.50</ele><time>2026-04-25T09:47:06Z</time></trkpt><trkpt lat="59.0654813591" lon="29.9859052990"><ele>90.02</ele><time>2026-04-25T09:47:18Z</time></trkpt><trkpt lat="59.0655288845" lon="29.9859033711"><ele>90.02</ele><time>2026-04-25T09:47:27Z</time></trkpt><trkpt lat="59.0655356739" lon="29.9859215599"><ele>90.02</ele><time>2026-04-25T09:47:43Z</time></trkpt><trkpt lat="59.0655454807" lon="29.9859046284"><ele>89.54</ele><time>2026-04-25T09:48:03Z</time></trkpt><trkpt lat="59.0655774996" lon="29.9858956598"><ele>89.54</ele><time>2026-04-25T09:48:29Z</time></trkpt><trkpt lat="59.0656460635" lon="29.9859280977"><ele>89.54</ele><time>2026-04-25T09:48:38Z</time></trkpt><trkpt lat="59.0657217521" lon="29.9860008527"><ele>89.54</ele><time>2026-04-25T09:48:49Z</time></trkpt><trkpt lat="59.0657292120" lon="29.9860127550"><ele>89.54</ele><time>2026-04-25T09:48:51Z</time></trkpt><trkpt lat="59.0658347402" lon="29.9859709293"><ele>89.06</ele><time>2026-04-25T09:49:04Z</time></trkpt><trkpt lat="59.0659262706" lon="29.9859874416"><ele>89.06</ele><time>2026-04-25T09:49:16Z</time></trkpt><trkpt lat="59.0659882966" lon="29.9859912135"><ele>89.06</ele><time>2026-04-25T09:49:23Z</time></trkpt><trkpt lat="59.0660347324" lon="29.9859990086"><ele>89.06</ele><time>2026-04-25T09:49:32Z</time></trkpt><trkpt lat="59.0661568567" lon="29.9859979190"><ele>90.02</ele><time>2026-04-25T09:49:47Z</time></trkpt><trkpt lat="59.0662107524" lon="29.9859992601"><ele>90.02</ele><time>2026-04-25T09:49:53Z</time></trkpt><trkpt lat="59.0663304459" lon="29.9860338774"><ele>90.02</ele><time>2026-04-25T09:50:07Z</time></trkpt><trkpt lat="59.0664328728" lon="29.9860600289"><ele>90.02</ele><time>2026-04-25T09:50:21Z</time></trkpt><trkpt lat="59.0664932225" lon="29.9860363081"><ele>90.02</ele><time>2026-04-25T09:50:32Z</time></trkpt><trkpt lat="59.0665703360" lon="29.9860685784"><ele>89.54</ele><time>2026-04-25T09:50:43Z</time></trkpt><trkpt lat="59.0666474495" lon="29.9860725179"><ele>89.54</ele><time>2026-04-25T09:50:54Z</time></trkpt><trkpt lat="59.0666544903" lon="29.9860760383"><ele>89.54</ele><time>2026-04-25T09:50:55Z</time></trkpt><trkpt lat="59.0667432547" lon="29.9860969931"><ele>89.54</ele><time>2026-04-25T09:51:06Z</time></trkpt><trkpt lat="59.0668004192" lon="29.9861017708"><ele>89.54</ele><time>2026-04-25T09:51:18Z</time></trkpt><trkpt lat="59.0668088850" lon="29.9861091468"><ele>89.54</ele><time>2026-04-25T09:51:19Z</time></trkpt><trkpt lat="59.0668363776" lon="29.9861813989"><ele>89.54</ele><time>2026-04-25T09:51:26Z</time></trkpt><trkpt lat="59.0668527223" lon="29.9862345401"><ele>89.54</ele><time>2026-04-25T09:51:34Z</time></trkpt><trkpt lat="59.0668828133" lon="29.9863037746"><ele>89.06</ele><time>2026-04-25T09:51:45Z</time></trkpt><trkpt lat="59.0669187717" lon="29.9863029364"><ele>89.06</ele><time>2026-04-25T09:51:54Z</time></trkpt><trkpt lat="59.0669422410" lon="29.9863528088"><ele>89.06</ele><time>2026-04-25T09:52:08Z</time></trkpt><trkpt lat="59.0669570770" lon="29.9864001665"><ele>89.06</ele><time>2026-04-25T09:52:17Z</time></trkpt><trkpt lat="59.0670305025" lon="29.9864704069"><ele>89.06</ele><time>2026-04-25T09:52:28Z</time></trkpt><trkpt lat="59.0670674667" lon="29.9865041021"><ele>89.06</ele><time>2026-04-25T09:52:35Z</time></trkpt><trkpt lat="59.0671522077" lon="29.9865087122"><ele>89.06</ele><time>2026-04-25T09:52:46Z</time></trkpt><trkpt lat="59.0672512818" lon="29.9865143280"><ele>88.58</ele><time>2026-04-25T09:52:59Z</time></trkpt><trkpt lat="59.0673029143" lon="29.9865388870"><ele>88.58</ele><time>2026-04-25T09:53:11Z</time></trkpt><trkpt lat="59.0673052613" lon="29.9865502026"><ele>88.58</ele><time>2026-04-25T09:53:16Z</time></trkpt><trkpt lat="59.0673458297" lon="29.9865458440"><ele>88.58</ele><time>2026-04-25T09:53:25Z</time></trkpt><trkpt lat="59.0673909243" lon="29.9865616020"><ele>88.58</ele><time>2026-04-25T09:53:32Z</time></trkpt><trkpt lat="59.0674105380" lon="29.9865851551"><ele>88.58</ele><time>2026-04-25T09:53:45Z</time></trkpt><trkpt lat="59.0674469993" lon="29.9866091274"><ele>88.10</ele><time>2026-04-25T09:54:03Z</time></trkpt><trkpt lat="59.0674787667" lon="29.9866298307"><ele>88.10</ele><time>2026-04-25T09:54:36Z</time></trkpt><trkpt lat="59.0675232746" lon="29.9866502825"><ele>88.10</ele><time>2026-04-25T09:54:48Z</time></trkpt><trkpt lat="59.0675871447" lon="29.9867164157"><ele>87.62</ele><time>2026-04-25T09:54:59Z</time></trkpt><trkpt lat="59.0676009748" lon="29.9866977241"><ele>87.62</ele><time>2026-04-25T09:55:01Z</time></trkpt><trkpt lat="59.0676704608" lon="29.9867455848"><ele>87.62</ele><time>2026-04-25T09:55:12Z</time></trkpt><trkpt lat="59.0677238535" lon="29.9866404757"><ele>87.62</ele><time>2026-04-25T09:55:24Z</time></trkpt><trkpt lat="59.0677885618" lon="29.9866033439"><ele>87.62</ele><time>2026-04-25T09:55:35Z</time></trkpt><trkpt lat="59.0678049903" lon="29.9866237119"><ele>87.62</ele><time>2026-04-25T09:55:40Z</time></trkpt><trkpt lat="59.0678360872" lon="29.9867191818"><ele>87.62</ele><time>2026-04-25T09:55:49Z</time></trkpt><trkpt lat="59.0678496659" lon="29.9867289048"><ele>88.10</ele><time>2026-04-25T09:56:00Z</time></trkpt><trkpt lat="59.0678473189" lon="29.9867138173"><ele>87.62</ele><time>2026-04-25T09:56:31Z</time></trkpt><trkpt lat="59.0678599756" lon="29.9867188465"><ele>87.62</ele><time>2026-04-25T09:57:05Z</time></trkpt><trkpt lat="59.0678697824" lon="29.9867988098"><ele>87.62</ele><time>2026-04-25T09:57:16Z</time></trkpt><trkpt lat="59.0678836126" lon="29.9868101254"><ele>87.62</ele><time>2026-04-25T09:57:30Z</time></trkpt><trkpt lat="59.0678867139" lon="29.9868340138"><ele>87.14</ele><time>2026-04-25T09:57:54Z</time></trkpt><trkpt lat="59.0678896476" lon="29.9869913422"><ele>87.14</ele><time>2026-04-25T09:58:07Z</time></trkpt><trkpt lat="59.0679111890" lon="29.9871342536"><ele>87.14</ele><time>2026-04-25T09:58:20Z</time></trkpt><trkpt lat="59.0679344069" lon="29.9872816913"><ele>87.14</ele><time>2026-04-25T09:58:34Z</time></trkpt><trkpt lat="59.0679445490" lon="29.9874878861"><ele>87.14</ele><time>2026-04-25T09:58:46Z</time></trkpt><trkpt lat="59.0679510869" lon="29.9875846971"><ele>87.14</ele><time>2026-04-25T09:59:01Z</time></trkpt><trkpt lat="59.0679841954" lon="29.9877243396"><ele>86.66</ele><time>2026-04-25T09:59:14Z</time></trkpt><trkpt lat="59.0680090897" lon="29.9879559316"><ele>86.66</ele><time>2026-04-25T09:59:29Z</time></trkpt><trkpt lat="59.0680334810" lon="29.9881060515"><ele>86.66</ele><time>2026-04-25T09:59:41Z</time></trkpt><trkpt lat="59.0680383425" lon="29.9882803112"><ele>86.18</ele><time>2026-04-25T09:59:54Z</time></trkpt><trkpt lat="59.0680401027" lon="29.9882945605"><ele>86.18</ele><time>2026-04-25T09:59:55Z</time></trkpt><trkpt lat="59.0680329781" lon="29.9884906970"><ele>86.18</ele><time>2026-04-25T10:00:07Z</time></trkpt><trkpt lat="59.0680388454" lon="29.9885118194"><ele>86.18</ele><time>2026-04-25T10:00:09Z</time></trkpt><trkpt lat="59.0680642426" lon="29.9886752665"><ele>86.18</ele><time>2026-04-25T10:00:21Z</time></trkpt><trkpt lat="59.0680779051" lon="29.9887567386"><ele>86.18</ele><time>2026-04-25T10:00:32Z</time></trkpt><trkpt lat="59.0680665895" lon="29.9888154957"><ele>86.18</ele><time>2026-04-25T10:00:43Z</time></trkpt><trkpt lat="59.0680767316" lon="29.9888953753"><ele>85.69</ele><time>2026-04-25T10:01:01Z</time></trkpt><trkpt lat="59.0680794977" lon="29.9890024122"><ele>85.69</ele><time>2026-04-25T10:01:07Z</time></trkpt><trkpt lat="59.0681323037" lon="29.9892043322"><ele>86.18</ele><time>2026-04-25T10:01:20Z</time></trkpt><trkpt lat="59.0681479778" lon="29.9894242734"><ele>86.18</ele><time>2026-04-25T10:01:33Z</time></trkpt><trkpt lat="59.0681599639" lon="29.9895127863"><ele>86.18</ele><time>2026-04-25T10:01:39Z</time></trkpt><trkpt lat="59.0682085790" lon="29.9896612298"><ele>85.69</ele><time>2026-04-25T10:01:51Z</time></trkpt><trkpt lat="59.0682333056" lon="29.9897252675"><ele>85.69</ele><time>2026-04-25T10:02:02Z</time></trkpt><trkpt lat="59.0682250913" lon="29.9897612259"><ele>85.69</ele><time>2026-04-25T10:02:20Z</time></trkpt><trkpt lat="59.0682268515" lon="29.9897686020"><ele>85.69</ele><time>2026-04-25T10:02:43Z</time></trkpt><trkpt lat="59.0682301205" lon="29.9897705298"><ele>85.69</ele><time>2026-04-25T10:02:57Z</time></trkpt><trkpt lat="59.0682297852" lon="29.9897730444"><ele>85.21</ele><time>2026-04-25T10:03:21Z</time></trkpt><trkpt lat="59.0682300366" lon="29.9897695240"><ele>85.21</ele><time>2026-04-25T10:03:43Z</time></trkpt><trkpt lat="59.0682307910" lon="29.9897639919"><ele>85.21</ele><time>2026-04-25T10:04:01Z</time></trkpt><trkpt lat="59.0682350658" lon="29.9897572864"><ele>85.21</ele><time>2026-04-25T10:04:20Z</time></trkpt><trkpt lat="59.0682341438" lon="29.9897631537"><ele>85.21</ele><time>2026-04-25T10:04:36Z</time></trkpt><trkpt lat="59.0682476386" lon="29.9898602162"><ele>85.21</ele><time>2026-04-25T10:04:51Z</time></trkpt><trkpt lat="59.0682706051" lon="29.9900164548"><ele>85.21</ele><time>2026-04-25T10:05:00Z</time></trkpt><trkpt lat="59.0682926495" lon="29.9901645631"><ele>84.73</ele><time>2026-04-25T10:05:11Z</time></trkpt><trkpt lat="59.0683518257" lon="29.9902809877"><ele>84.73</ele><time>2026-04-25T10:05:22Z</time></trkpt><trkpt lat="59.0684086550" lon="29.9904771242"><ele>84.73</ele><time>2026-04-25T10:05:35Z</time></trkpt><trkpt lat="59.0684342198" lon="29.9907745142"><ele>84.73</ele><time>2026-04-25T10:05:50Z</time></trkpt><trkpt lat="59.0684406739" lon="29.9909571558"><ele>84.73</ele><time>2026-04-25T10:06:02Z</time></trkpt><trkpt lat="59.0684611257" lon="29.9912030809"><ele>84.73</ele><time>2026-04-25T10:06:17Z</time></trkpt><trkpt lat="59.0685042925" lon="29.9914205913"><ele>84.73</ele><time>2026-04-25T10:06:33Z</time></trkpt><trkpt lat="59.0685366467" lon="29.9916329049"><ele>84.73</ele><time>2026-04-25T10:06:44Z</time></trkpt><trkpt lat="59.0685146861" lon="29.9917395227"><ele>84.73</ele><time>2026-04-25T10:06:55Z</time></trkpt><trkpt lat="59.0685245767" lon="29.9918866251"><ele>84.73</ele><time>2026-04-25T10:07:08Z</time></trkpt><trkpt lat="59.0685457829" lon="29.9920227472"><ele>85.21</ele><time>2026-04-25T10:07:21Z</time></trkpt><trkpt lat="59.0685780533" lon="29.9921039678"><ele>85.21</ele><time>2026-04-25T10:07:35Z</time></trkpt><trkpt lat="59.0685972478" lon="29.9922306184"><ele>85.21</ele><time>2026-04-25T10:07:51Z</time></trkpt><trkpt lat="59.0686220583" lon="29.9923422653"><ele>85.21</ele><time>2026-04-25T10:08:03Z</time></trkpt><trkpt lat="59.0686243214" lon="29.9923427682"><ele>85.69</ele><time>2026-04-25T10:08:18Z</time></trkpt><trkpt lat="59.0686254948" lon="29.9924182892"><ele>85.69</ele><time>2026-04-25T10:08:31Z</time></trkpt><trkpt lat="59.0686422586" lon="29.9926165212"><ele>85.69</ele><time>2026-04-25T10:08:42Z</time></trkpt><trkpt lat="59.0686603636" lon="29.9927369691"><ele>85.69</ele><time>2026-04-25T10:08:54Z</time></trkpt><trkpt lat="59.0686710924" lon="29.9928771146"><ele>85.69</ele><time>2026-04-25T10:09:05Z</time></trkpt><trkpt lat="59.0686732717" lon="29.9930258095"><ele>85.21</ele><time>2026-04-25T10:09:18Z</time></trkpt><trkpt lat="59.0686777141" lon="29.9930988159"><ele>85.21</ele><time>2026-04-25T10:09:32Z</time></trkpt><trkpt lat="59.0687035304" lon="29.9931790307"><ele>85.21</ele><time>2026-04-25T10:09:50Z</time></trkpt><trkpt lat="59.0686974954" lon="29.9932175875"><ele>85.69</ele><time>2026-04-25T10:10:10Z</time></trkpt><trkpt lat="59.0687042009" lon="29.9932720698"><ele>85.69</ele><time>2026-04-25T10:10:25Z</time></trkpt><trkpt lat="59.0686985012" lon="29.9934109580"><ele>85.69</ele><time>2026-04-25T10:10:37Z</time></trkpt><trkpt lat="59.0687249042" lon="29.9934879038"><ele>85.69</ele><time>2026-04-25T10:10:55Z</time></trkpt><trkpt lat="59.0687405784" lon="29.9935426377"><ele>85.69</ele><time>2026-04-25T10:11:11Z</time></trkpt><trkpt lat="59.0687645506" lon="29.9936469086"><ele>85.69</ele><time>2026-04-25T10:11:23Z</time></trkpt><trkpt lat="59.0687884390" lon="29.9937118683"><ele>85.69</ele><time>2026-04-25T10:11:40Z</time></trkpt><trkpt lat="59.0687893610" lon="29.9937218428"><ele>85.69</ele><time>2026-04-25T10:12:01Z</time></trkpt><trkpt lat="59.0687883552" lon="29.9937545322"><ele>85.69</ele><time>2026-04-25T10:12:14Z</time></trkpt><trkpt lat="59.0687927138" lon="29.9938487448"><ele>85.69</ele><time>2026-04-25T10:12:43Z</time></trkpt><trkpt lat="59.0688245650" lon="29.9939550273"><ele>85.69</ele><time>2026-04-25T10:12:54Z</time></trkpt><trkpt lat="59.0688321926" lon="29.9940477312"><ele>85.69</ele><time>2026-04-25T10:13:05Z</time></trkpt><trkpt lat="59.0688654687" lon="29.9941884633"><ele>85.69</ele><time>2026-04-25T10:13:16Z</time></trkpt><trkpt lat="59.0688725095" lon="29.9943987653"><ele>85.69</ele><time>2026-04-25T10:13:26Z</time></trkpt><trkpt lat="59.0689150058" lon="29.9945532437"><ele>85.69</ele><time>2026-04-25T10:13:37Z</time></trkpt><trkpt lat="59.0689238906" lon="29.9946354702"><ele>85.69</ele><time>2026-04-25T10:13:48Z</time></trkpt><trkpt lat="59.0689590108" lon="29.9947520625"><ele>85.69</ele><time>2026-04-25T10:14:00Z</time></trkpt><trkpt lat="59.0689724218" lon="29.9948230572"><ele>85.69</ele><time>2026-04-25T10:14:12Z</time></trkpt><trkpt lat="59.0689825639" lon="29.9948665593"><ele>85.69</ele><time>2026-04-25T10:14:25Z</time></trkpt><trkpt lat="59.0690066200" lon="29.9951027613"><ele>86.18</ele><time>2026-04-25T10:14:41Z</time></trkpt><trkpt lat="59.0690250602" lon="29.9951979797"><ele>85.69</ele><time>2026-04-25T10:14:53Z</time></trkpt><trkpt lat="59.0690556541" lon="29.9953136500"><ele>85.69</ele><time>2026-04-25T10:15:06Z</time></trkpt><trkpt lat="59.0690460987" lon="29.9953594152"><ele>86.18</ele><time>2026-04-25T10:15:26Z</time></trkpt><trkpt lat="59.0690441709" lon="29.9954016600"><ele>86.18</ele><time>2026-04-25T10:15:54Z</time></trkpt><trkpt lat="59.0690384712" lon="29.9954344332"><ele>86.66</ele><time>2026-04-25T10:16:11Z</time></trkpt><trkpt lat="59.0690345317" lon="29.9954512808"><ele>84.73</ele><time>2026-04-25T10:16:26Z</time></trkpt><trkpt lat="59.0690337773" lon="29.9954567291"><ele>87.62</ele><time>2026-04-25T10:16:49Z</time></trkpt><trkpt lat="59.0690302569" lon="29.9954658654"><ele>87.62</ele><time>2026-04-25T10:17:02Z</time></trkpt><trkpt lat="59.0690307599" lon="29.9954593275"><ele>87.14</ele><time>2026-04-25T10:17:18Z</time></trkpt><trkpt lat="59.0690278262" lon="29.9954624288"><ele>87.14</ele><time>2026-04-25T10:17:38Z</time></trkpt><trkpt lat="59.0690202825" lon="29.9954997282"><ele>87.14</ele><time>2026-04-25T10:18:00Z</time></trkpt><trkpt lat="59.0690191928" lon="29.9955076911"><ele>87.14</ele><time>2026-04-25T10:18:17Z</time></trkpt><trkpt lat="59.0690264851" lon="29.9956366885"><ele>87.14</ele><time>2026-04-25T10:18:30Z</time></trkpt><trkpt lat="59.0690369625" lon="29.9957632553"><ele>87.14</ele><time>2026-04-25T10:18:41Z</time></trkpt><trkpt lat="59.0690770280" lon="29.9960066658"><ele>87.14</ele><time>2026-04-25T10:18:52Z</time></trkpt><trkpt lat="59.0691196918" lon="29.9962449633"><ele>87.14</ele><time>2026-04-25T10:19:05Z</time></trkpt><trkpt lat="59.0691627748" lon="29.9964297842"><ele>87.14</ele><time>2026-04-25T10:19:19Z</time></trkpt><trkpt lat="59.0691918600" lon="29.9966493063"><ele>87.14</ele><time>2026-04-25T10:19:34Z</time></trkpt><trkpt lat="59.0692088753" lon="29.9968044553"><ele>87.14</ele><time>2026-04-25T10:19:49Z</time></trkpt><trkpt lat="59.0692460909" lon="29.9970697425"><ele>87.14</ele><time>2026-04-25T10:20:05Z</time></trkpt><trkpt lat="59.0692796186" lon="29.9972105585"><ele>87.14</ele><time>2026-04-25T10:20:13Z</time></trkpt><trkpt lat="59.0692886710" lon="29.9974165019"><ele>87.14</ele><time>2026-04-25T10:20:25Z</time></trkpt><trkpt lat="59.0692741703" lon="29.9974857364"><ele>87.14</ele><time>2026-04-25T10:20:43Z</time></trkpt><trkpt lat="59.0692498628" lon="29.9975044280"><ele>88.58</ele><time>2026-04-25T10:21:01Z</time></trkpt><trkpt lat="59.0692660399" lon="29.9974829704"><ele>88.58</ele><time>2026-04-25T10:21:32Z</time></trkpt><trkpt lat="59.0692742541" lon="29.9975496065"><ele>88.58</ele><time>2026-04-25T10:21:46Z</time></trkpt><trkpt lat="59.0692757629" lon="29.9975682981"><ele>88.58</ele><time>2026-04-25T10:21:47Z</time></trkpt><trkpt lat="59.0693209413" lon="29.9977848865"><ele>88.10</ele><time>2026-04-25T10:22:00Z</time></trkpt><trkpt lat="59.0693592466" lon="29.9981067516"><ele>88.10</ele><time>2026-04-25T10:22:14Z</time></trkpt><trkpt lat="59.0693848114" lon="29.9983110186"><ele>87.62</ele><time>2026-04-25T10:22:26Z</time></trkpt><trkpt lat="59.0693927743" lon="29.9984569475"><ele>87.62</ele><time>2026-04-25T10:22:42Z</time></trkpt><trkpt lat="59.0694045089" lon="29.9986152817"><ele>87.62</ele><time>2026-04-25T10:22:56Z</time></trkpt><trkpt lat="59.0694334265" lon="29.9988414254"><ele>87.62</ele><time>2026-04-25T10:23:07Z</time></trkpt><trkpt lat="59.0694413893" lon="29.9990150984"><ele>87.62</ele><time>2026-04-25T10:23:13Z</time></trkpt><trkpt lat="59.0694629308" lon="29.9991968181"><ele>87.62</ele><time>2026-04-25T10:23:24Z</time></trkpt><trkpt lat="59.0694895852" lon="29.9992984906"><ele>87.62</ele><time>2026-04-25T10:23:36Z</time></trkpt><trkpt lat="59.0695182513" lon="29.9995123968"><ele>87.14</ele><time>2026-04-25T10:23:48Z</time></trkpt><trkpt lat="59.0695536230" lon="29.9995777756"><ele>87.14</ele><time>2026-04-25T10:23:58Z</time></trkpt><trkpt lat="59.0695772599" lon="29.9997472577"><ele>87.14</ele><time>2026-04-25T10:24:11Z</time></trkpt><trkpt lat="59.0695848875" lon="29.9997697212"><ele>87.14</ele><time>2026-04-25T10:24:15Z</time></trkpt><trkpt lat="59.0696199238" lon="30.0000142213"><ele>87.14</ele><time>2026-04-25T10:24:26Z</time></trkpt><trkpt lat="59.0696506016" lon="30.0002726354"><ele>87.14</ele><time>2026-04-25T10:24:37Z</time></trkpt><trkpt lat="59.0696772560" lon="30.0003937539"><ele>87.14</ele><time>2026-04-25T10:24:48Z</time></trkpt><trkpt lat="59.0696783457" lon="30.0003902335"><ele>88.10</ele><time>2026-04-25T10:24:51Z</time></trkpt><trkpt lat="59.0696794353" lon="30.0005190633"><ele>88.10</ele><time>2026-04-25T10:24:58Z</time></trkpt><trkpt lat="59.0697283018" lon="30.0007601269"><ele>88.10</ele><time>2026-04-25T10:25:12Z</time></trkpt><trkpt lat="59.0697217640" lon="30.0010053813"><ele>88.10</ele><time>2026-04-25T10:25:26Z</time></trkpt><trkpt lat="59.0697171539" lon="30.0010228157"><ele>88.10</ele><time>2026-04-25T10:25:47Z</time></trkpt><trkpt lat="59.0697158128" lon="30.0010107458"><ele>88.10</ele><time>2026-04-25T10:26:12Z</time></trkpt><trkpt lat="59.0697289724" lon="30.0009993464"><ele>87.62</ele><time>2026-04-25T10:26:32Z</time></trkpt><trkpt lat="59.0697356779" lon="30.0010149367"><ele>87.62</ele><time>2026-04-25T10:27:01Z</time></trkpt><trkpt lat="59.0697554592" lon="30.0011037011"><ele>87.62</ele><time>2026-04-25T10:27:25Z</time></trkpt><trkpt lat="59.0697574709" lon="30.0011178665"><ele>87.62</ele><time>2026-04-25T10:27:26Z</time></trkpt><trkpt lat="59.0697797667" lon="30.0012817327"><ele>87.62</ele><time>2026-04-25T10:27:36Z</time></trkpt><trkpt lat="59.0697960276" lon="30.0013298448"><ele>87.62</ele><time>2026-04-25T10:27:39Z</time></trkpt><trkpt lat="59.0698130429" lon="30.0014846586"><ele>87.62</ele><time>2026-04-25T10:27:50Z</time></trkpt><trkpt lat="59.0698217601" lon="30.0016382150"><ele>87.62</ele><time>2026-04-25T10:27:59Z</time></trkpt><trkpt lat="59.0698509291" lon="30.0018192641"><ele>87.62</ele><time>2026-04-25T10:28:12Z</time></trkpt><trkpt lat="59.0698626637" lon="30.0018394645"><ele>87.62</ele><time>2026-04-25T10:28:14Z</time></trkpt><trkpt lat="59.0698957723" lon="30.0018991437"><ele>87.62</ele><time>2026-04-25T10:28:26Z</time></trkpt><trkpt lat="59.0699288808" lon="30.0020837132"><ele>87.62</ele><time>2026-04-25T10:28:38Z</time></trkpt><trkpt lat="59.0699362569" lon="30.0022388622"><ele>87.62</ele><time>2026-04-25T10:28:47Z</time></trkpt><trkpt lat="59.0699366760" lon="30.0024950970"><ele>87.62</ele><time>2026-04-25T10:29:01Z</time></trkpt><trkpt lat="59.0699224267" lon="30.0026442111"><ele>87.62</ele><time>2026-04-25T10:29:12Z</time></trkpt><trkpt lat="59.0699355863" lon="30.0028446224"><ele>88.10</ele><time>2026-04-25T10:29:24Z</time></trkpt><trkpt lat="59.0699211694" lon="30.0028745458"><ele>87.62</ele><time>2026-04-25T10:29:38Z</time></trkpt><trkpt lat="59.0699078422" lon="30.0028880406"><ele>87.62</ele><time>2026-04-25T10:29:58Z</time></trkpt><trkpt lat="59.0699022263" lon="30.0028715283"><ele>87.62</ele><time>2026-04-25T10:30:33Z</time></trkpt><trkpt lat="59.0699090995" lon="30.0029047206"><ele>87.62</ele><time>2026-04-25T10:30:54Z</time></trkpt><trkpt lat="59.0699179005" lon="30.0029461272"><ele>87.62</ele><time>2026-04-25T10:31:11Z</time></trkpt><trkpt lat="59.0699654259" lon="30.0031191297"><ele>87.62</ele><time>2026-04-25T10:31:23Z</time></trkpt><trkpt lat="59.0699751489" lon="30.0031538308"><ele>87.62</ele><time>2026-04-25T10:31:25Z</time></trkpt><trkpt lat="59.0700427908" lon="30.0033064652"><ele>87.62</ele><time>2026-04-25T10:31:36Z</time></trkpt><trkpt lat="59.0700826049" lon="30.0034952257"><ele>87.62</ele><time>2026-04-25T10:31:49Z</time></trkpt><trkpt lat="59.0700996201" lon="30.0035745185"><ele>87.62</ele><time>2026-04-25T10:32:01Z</time></trkpt><trkpt lat="59.0701235086" lon="30.0036571641"><ele>87.14</ele><time>2026-04-25T10:32:18Z</time></trkpt><trkpt lat="59.0701965988" lon="30.0036497880"><ele>87.14</ele><time>2026-04-25T10:32:32Z</time></trkpt><trkpt lat="59.0702181403" lon="30.0035994966"><ele>87.14</ele><time>2026-04-25T10:32:37Z</time></trkpt><trkpt lat="59.0701946709" lon="30.0035854988"><ele>87.14</ele><time>2026-04-25T10:32:49Z</time></trkpt><trkpt lat="59.0701940842" lon="30.0036074594"><ele>87.14</ele><time>2026-04-25T10:33:04Z</time></trkpt><trkpt lat="59.0701987781" lon="30.0036292523"><ele>87.14</ele><time>2026-04-25T10:33:31Z</time></trkpt><trkpt lat="59.0702116024" lon="30.0036467705"><ele>87.14</ele><time>2026-04-25T10:33:48Z</time></trkpt><trkpt lat="59.0702237561" lon="30.0036139134"><ele>87.14</ele><time>2026-04-25T10:34:04Z</time></trkpt><trkpt lat="59.0702369995" lon="30.0036200322"><ele>87.62</ele><time>2026-04-25T10:34:21Z</time></trkpt><trkpt lat="59.0702899732" lon="30.0036380533"><ele>87.62</ele><time>2026-04-25T10:34:31Z</time></trkpt><trkpt lat="59.0703775641" lon="30.0035728421"><ele>87.14</ele><time>2026-04-25T10:34:44Z</time></trkpt><trkpt lat="59.0704025421" lon="30.0035471935"><ele>87.14</ele><time>2026-04-25T10:34:56Z</time></trkpt><trkpt lat="59.0704630595" lon="30.0035067089"><ele>87.14</ele><time>2026-04-25T10:35:08Z</time></trkpt><trkpt lat="59.0704996884" lon="30.0034845807"><ele>87.14</ele><time>2026-04-25T10:35:19Z</time></trkpt><trkpt lat="59.0706016123" lon="30.0034465268"><ele>87.14</ele><time>2026-04-25T10:35:30Z</time></trkpt><trkpt lat="59.0706876107" lon="30.0033987500"><ele>87.14</ele><time>2026-04-25T10:35:41Z</time></trkpt><trkpt lat="59.0708005987" lon="30.0033512246"><ele>87.14</ele><time>2026-04-25T10:35:52Z</time></trkpt><trkpt lat="59.0709435102" lon="30.0032925513"><ele>87.14</ele><time>2026-04-25T10:36:06Z</time></trkpt><trkpt lat="59.0710248984" lon="30.0032688305"><ele>87.14</ele><time>2026-04-25T10:36:17Z</time></trkpt><trkpt lat="59.0711328574" lon="30.0032169465"><ele>87.14</ele><time>2026-04-25T10:36:30Z</time></trkpt><trkpt lat="59.0712702367" lon="30.0031500589"><ele>87.62</ele><time>2026-04-25T10:36:42Z</time></trkpt><trkpt lat="59.0713753458" lon="30.0031243265"><ele>88.10</ele><time>2026-04-25T10:36:54Z</time></trkpt><trkpt lat="59.0713919420" lon="30.0031579379"><ele>87.62</ele><time>2026-04-25T10:37:05Z</time></trkpt><trkpt lat="59.0714108013" lon="30.0031602848"><ele>87.62</ele><time>2026-04-25T10:37:24Z</time></trkpt><trkpt lat="59.0714284033" lon="30.0031933933"><ele>87.62</ele><time>2026-04-25T10:37:44Z</time></trkpt><trkpt lat="59.0714740008" lon="30.0033266656"><ele>87.62</ele><time>2026-04-25T10:37:57Z</time></trkpt><trkpt lat="59.0715436544" lon="30.0034072995"><ele>87.62</ele><time>2026-04-25T10:38:10Z</time></trkpt><trkpt lat="59.0715882462" lon="30.0033992529"><ele>87.62</ele><time>2026-04-25T10:38:30Z</time></trkpt><trkpt lat="59.0716058481" lon="30.0033562537"><ele>88.10</ele><time>2026-04-25T10:38:46Z</time></trkpt><trkpt lat="59.0716275573" lon="30.0033442676"><ele>88.10</ele><time>2026-04-25T10:39:10Z</time></trkpt><trkpt lat="59.0716362745" lon="30.0033089798"><ele>88.10</ele><time>2026-04-25T10:39:19Z</time></trkpt><trkpt lat="59.0716527030" lon="30.0031629670"><ele>88.10</ele><time>2026-04-25T10:39:26Z</time></trkpt><trkpt lat="59.0716945287" lon="30.0028091669"><ele>88.10</ele><time>2026-04-25T10:39:41Z</time></trkpt><trkpt lat="59.0717092808" lon="30.0025337376"><ele>88.10</ele><time>2026-04-25T10:39:53Z</time></trkpt><trkpt lat="59.0717412159" lon="30.0022697076"><ele>88.10</ele><time>2026-04-25T10:40:05Z</time></trkpt><trkpt lat="59.0717409644" lon="30.0021918397"><ele>88.58</ele><time>2026-04-25T10:40:12Z</time></trkpt><trkpt lat="59.0718436427" lon="30.0023567956"><ele>88.58</ele><time>2026-04-25T10:40:26Z</time></trkpt><trkpt lat="59.0718831215" lon="30.0024536904"><ele>88.10</ele><time>2026-04-25T10:40:32Z</time></trkpt><trkpt lat="59.0719068423" lon="30.0024946779"><ele>88.10</ele><time>2026-04-25T10:40:35Z</time></trkpt><trkpt lat="59.0720129572" lon="30.0024907384"><ele>88.10</ele><time>2026-04-25T10:40:48Z</time></trkpt><trkpt lat="59.0720453952" lon="30.0024831947"><ele>88.10</ele><time>2026-04-25T10:40:52Z</time></trkpt><trkpt lat="59.0721408650" lon="30.0024836976"><ele>88.10</ele><time>2026-04-25T10:41:05Z</time></trkpt><trkpt lat="59.0721830260" lon="30.0024733040"><ele>88.10</ele><time>2026-04-25T10:41:15Z</time></trkpt><trkpt lat="59.0722960141" lon="30.0024530198"><ele>88.10</ele><time>2026-04-25T10:41:27Z</time></trkpt><trkpt lat="59.0723882988" lon="30.0023456477"><ele>88.10</ele><time>2026-04-25T10:41:38Z</time></trkpt><trkpt lat="59.0724199824" lon="30.0022727251"><ele>88.10</ele><time>2026-04-25T10:41:51Z</time></trkpt><trkpt lat="59.0724164620" lon="30.0022746529"><ele>88.10</ele><time>2026-04-25T10:41:57Z</time></trkpt><trkpt lat="59.0724596288" lon="30.0022588111"><ele>88.10</ele><time>2026-04-25T10:42:08Z</time></trkpt><trkpt lat="59.0725048073" lon="30.0023036543"><ele>88.10</ele><time>2026-04-25T10:42:16Z</time></trkpt><trkpt lat="59.0725416038" lon="30.0023274589"><ele>88.10</ele><time>2026-04-25T10:42:20Z</time></trkpt><trkpt lat="59.0725780651" lon="30.0024288800"><ele>88.10</ele><time>2026-04-25T10:42:31Z</time></trkpt><trkpt lat="59.0725990199" lon="30.0024174806"><ele>88.10</ele><time>2026-04-25T10:42:35Z</time></trkpt><trkpt lat="59.0726157837" lon="30.0024144631"><ele>88.10</ele><time>2026-04-25T10:42:37Z</time></trkpt><trkpt lat="59.0726671647" lon="30.0025325641"><ele>88.10</ele><time>2026-04-25T10:42:48Z</time></trkpt><trkpt lat="59.0727037936" lon="30.0025471486"><ele>87.62</ele><time>2026-04-25T10:42:58Z</time></trkpt><trkpt lat="59.0727023687" lon="30.0025334023"><ele>88.58</ele><time>2026-04-25T10:43:12Z</time></trkpt><trkpt lat="59.0726929810" lon="30.0025265291"><ele>88.58</ele><time>2026-04-25T10:43:26Z</time></trkpt><trkpt lat="59.0726909693" lon="30.0025340728"><ele>88.10</ele><time>2026-04-25T10:43:50Z</time></trkpt><trkpt lat="59.0726893768" lon="30.0025300495"><ele>88.10</ele><time>2026-04-25T10:44:20Z</time></trkpt><trkpt lat="59.0727211442" lon="30.0024609827"><ele>88.10</ele><time>2026-04-25T10:44:25Z</time></trkpt><trkpt lat="59.0727715194" lon="30.0023806840"><ele>88.10</ele><time>2026-04-25T10:44:32Z</time></trkpt><trkpt lat="59.0727970842" lon="30.0022495072"><ele>88.10</ele><time>2026-04-25T10:44:44Z</time></trkpt><trkpt lat="59.0728260856" lon="30.0021498464"><ele>88.10</ele><time>2026-04-25T10:44:53Z</time></trkpt><trkpt lat="59.0728640556" lon="30.0021837093"><ele>88.10</ele><time>2026-04-25T10:44:58Z</time></trkpt><trkpt lat="59.0729445219" lon="30.0021642633"><ele>87.62</ele><time>2026-04-25T10:45:07Z</time></trkpt><trkpt lat="59.0730267484" lon="30.0021422189"><ele>87.62</ele><time>2026-04-25T10:45:19Z</time></trkpt><trkpt lat="59.0730320290" lon="30.0021330826"><ele>87.62</ele><time>2026-04-25T10:45:20Z</time></trkpt><trkpt lat="59.0730655566" lon="30.0021291431"><ele>87.62</ele><time>2026-04-25T10:45:24Z</time></trkpt><trkpt lat="59.0731623676" lon="30.0021222699"><ele>87.62</ele><time>2026-04-25T10:45:37Z</time></trkpt><trkpt lat="59.0732639562" lon="30.0021538697"><ele>87.62</ele><time>2026-04-25T10:45:48Z</time></trkpt><trkpt lat="59.0732861683" lon="30.0021885708"><ele>87.62</ele><time>2026-04-25T10:45:51Z</time></trkpt><trkpt lat="59.0733077936" lon="30.0021583121"><ele>87.62</ele><time>2026-04-25T10:45:54Z</time></trkpt><trkpt lat="59.0733740944" lon="30.0021645147"><ele>87.62</ele><time>2026-04-25T10:46:01Z</time></trkpt><trkpt lat="59.0734464303" lon="30.0021951087"><ele>87.62</ele><time>2026-04-25T10:46:11Z</time></trkpt><trkpt lat="59.0734927822" lon="30.0021538697"><ele>87.62</ele><time>2026-04-25T10:46:17Z</time></trkpt><trkpt lat="59.0735446662" lon="30.0021478347"><ele>87.62</ele><time>2026-04-25T10:46:22Z</time></trkpt><trkpt lat="59.0736257192" lon="30.0021511037"><ele>87.62</ele><time>2026-04-25T10:46:34Z</time></trkpt><trkpt lat="59.0736377891" lon="30.0021432247"><ele>87.62</ele><time>2026-04-25T10:46:36Z</time></trkpt><trkpt lat="59.0736582410" lon="30.0021443143"><ele>87.62</ele><time>2026-04-25T10:46:38Z</time></trkpt><trkpt lat="59.0737609193" lon="30.0021247845"><ele>87.14</ele><time>2026-04-25T10:46:50Z</time></trkpt><trkpt lat="59.0738350153" lon="30.0020258781"><ele>87.14</ele><time>2026-04-25T10:47:02Z</time></trkpt><trkpt lat="59.0738589875" lon="30.0020267162"><ele>87.14</ele><time>2026-04-25T10:47:14Z</time></trkpt><trkpt lat="59.0739086084" lon="30.0019686297"><ele>87.14</ele><time>2026-04-25T10:47:24Z</time></trkpt><trkpt lat="59.0739820339" lon="30.0019420590"><ele>87.14</ele><time>2026-04-25T10:47:37Z</time></trkpt><trkpt lat="59.0740101971" lon="30.0019309949"><ele>87.14</ele><time>2026-04-25T10:47:48Z</time></trkpt><trkpt lat="59.0741322376" lon="30.0019245408"><ele>87.14</ele><time>2026-04-25T10:48:00Z</time></trkpt><trkpt lat="59.0741883963" lon="30.0018475112"><ele>87.14</ele><time>2026-04-25T10:48:08Z</time></trkpt><trkpt lat="59.0742500871" lon="30.0018338487"><ele>87.14</ele><time>2026-04-25T10:48:17Z</time></trkpt><trkpt lat="59.0742608160" lon="30.0018086191"><ele>86.66</ele><time>2026-04-25T10:48:19Z</time></trkpt><trkpt lat="59.0742756519" lon="30.0017748401"><ele>86.66</ele><time>2026-04-25T10:48:22Z</time></trkpt><trkpt lat="59.0743002947" lon="30.0017491914"><ele>86.66</ele><time>2026-04-25T10:48:25Z</time></trkpt><trkpt lat="59.0743230097" lon="30.0017300807"><ele>86.66</ele><time>2026-04-25T10:48:28Z</time></trkpt><trkpt lat="59.0743710380" lon="30.0016997382"><ele>86.66</ele><time>2026-04-25T10:48:39Z</time></trkpt><trkpt lat="59.0743769053" lon="30.0017112214"><ele>86.66</ele><time>2026-04-25T10:49:02Z</time></trkpt><trkpt lat="59.0743791685" lon="30.0017201900"><ele>86.66</ele><time>2026-04-25T10:49:25Z</time></trkpt><trkpt lat="59.0744404402" lon="30.0016774423"><ele>86.66</ele><time>2026-04-25T10:49:38Z</time></trkpt><trkpt lat="59.0745638218" lon="30.0016572420"><ele>86.66</ele><time>2026-04-25T10:49:52Z</time></trkpt><trkpt lat="59.0745938290" lon="30.0016943738"><ele>86.66</ele><time>2026-04-25T10:50:01Z</time></trkpt><trkpt lat="59.0746798273" lon="30.0016513746"><ele>86.66</ele><time>2026-04-25T10:50:12Z</time></trkpt><trkpt lat="59.0747285262" lon="30.0016417354"><ele>86.66</ele><time>2026-04-25T10:50:18Z</time></trkpt><trkpt lat="59.0748463757" lon="30.0015866663"><ele>86.18</ele><time>2026-04-25T10:50:31Z</time></trkpt><trkpt lat="59.0748555958" lon="30.0015834812"><ele>86.18</ele><time>2026-04-25T10:50:33Z</time></trkpt><trkpt lat="59.0748726949" lon="30.0015819725"><ele>86.18</ele><time>2026-04-25T10:50:35Z</time></trkpt><trkpt lat="59.0749757085" lon="30.0014641229"><ele>86.18</ele><time>2026-04-25T10:50:49Z</time></trkpt><trkpt lat="59.0750174504" lon="30.0014112331"><ele>86.18</ele><time>2026-04-25T10:50:54Z</time></trkpt><trkpt lat="59.0751095675" lon="30.0013066269"><ele>86.18</ele><time>2026-04-25T10:51:07Z</time></trkpt><trkpt lat="59.0751138423" lon="30.0012852531"><ele>86.18</ele><time>2026-04-25T10:51:09Z</time></trkpt><trkpt lat="59.0751442686" lon="30.0012391526"><ele>86.18</ele><time>2026-04-25T10:51:13Z</time></trkpt><trkpt lat="59.0752365533" lon="30.0010978337"><ele>86.18</ele><time>2026-04-25T10:51:27Z</time></trkpt><trkpt lat="59.0752662253" lon="30.0011611171"><ele>86.18</ele><time>2026-04-25T10:51:37Z</time></trkpt><trkpt lat="59.0752877668" lon="30.0012304354"><ele>86.18</ele><time>2026-04-25T10:51:43Z</time></trkpt><trkpt lat="59.0753152594" lon="30.0013151765"><ele>85.69</ele><time>2026-04-25T10:51:50Z</time></trkpt><trkpt lat="59.0753595158" lon="30.0014449283"><ele>86.18</ele><time>2026-04-25T10:52:01Z</time></trkpt><trkpt lat="59.0753761958" lon="30.0015319325"><ele>85.69</ele><time>2026-04-25T10:52:08Z</time></trkpt><trkpt lat="59.0754481964" lon="30.0015178509"><ele>85.69</ele><time>2026-04-25T10:52:18Z</time></trkpt><trkpt lat="59.0755043551" lon="30.0014385581"><ele>85.69</ele><time>2026-04-25T10:52:30Z</time></trkpt><trkpt lat="59.0755138267" lon="30.0014173519"><ele>85.69</ele><time>2026-04-25T10:52:37Z</time></trkpt><trkpt lat="59.0755417384" lon="30.0012725964"><ele>85.69</ele><time>2026-04-25T10:52:50Z</time></trkpt><trkpt lat="59.0755619388" lon="30.0012416672"><ele>85.69</ele><time>2026-04-25T10:52:57Z</time></trkpt><trkpt lat="59.0755774453" lon="30.0012246519"><ele>85.69</ele><time>2026-04-25T10:52:59Z</time></trkpt><trkpt lat="59.0756485239" lon="30.0012153480"><ele>85.69</ele><time>2026-04-25T10:53:10Z</time></trkpt><trkpt lat="59.0756476019" lon="30.0012173597"><ele>85.21</ele><time>2026-04-25T10:53:29Z</time></trkpt><trkpt lat="59.0756534692" lon="30.0012244843"><ele>85.21</ele><time>2026-04-25T10:53:40Z</time></trkpt><trkpt lat="59.0756566543" lon="30.0012277532"><ele>85.69</ele><time>2026-04-25T10:53:41Z</time></trkpt><trkpt lat="59.0756476857" lon="30.0012450200"><ele>85.21</ele><time>2026-04-25T10:53:43Z</time></trkpt><trkpt lat="59.0756393876" lon="30.0012373086"><ele>85.21</ele><time>2026-04-25T10:53:51Z</time></trkpt><trkpt lat="59.0756467637" lon="30.0012200419"><ele>85.21</ele><time>2026-04-25T10:54:02Z</time></trkpt><trkpt lat="59.0756464284" lon="30.0012218021"><ele>85.21</ele><time>2026-04-25T10:54:06Z</time></trkpt><trkpt lat="59.0756783634" lon="30.0011976622"><ele>85.21</ele><time>2026-04-25T10:54:10Z</time></trkpt><trkpt lat="59.0757579915" lon="30.0011052098"><ele>85.21</ele><time>2026-04-25T10:54:22Z</time></trkpt><trkpt lat="59.0757952072" lon="30.0010512304"><ele>85.21</ele><time>2026-04-25T10:54:30Z</time></trkpt><trkpt lat="59.0758574009" lon="30.0009842589"><ele>84.73</ele><time>2026-04-25T10:54:42Z</time></trkpt><trkpt lat="59.0758992266" lon="30.0008653197"><ele>84.73</ele><time>2026-04-25T10:54:53Z</time></trkpt><trkpt lat="59.0759599116" lon="30.0008410122"><ele>84.73</ele><time>2026-04-25T10:55:03Z</time></trkpt><trkpt lat="59.0760400426" lon="30.0007911399"><ele>85.21</ele><time>2026-04-25T10:55:13Z</time></trkpt><trkpt lat="59.0761309024" lon="30.0008208957"><ele>85.21</ele><time>2026-04-25T10:55:26Z</time></trkpt><trkpt lat="59.0761428885" lon="30.0008322950"><ele>85.21</ele><time>2026-04-25T10:55:31Z</time></trkpt><trkpt lat="59.0762017295" lon="30.0008768868"><ele>85.21</ele><time>2026-04-25T10:55:40Z</time></trkpt><trkpt lat="59.0763056651" lon="30.0008910522"><ele>85.21</ele><time>2026-04-25T10:55:53Z</time></trkpt><trkpt lat="59.0763938427" lon="30.0009097438"><ele>84.73</ele><time>2026-04-25T10:56:04Z</time></trkpt><trkpt lat="59.0764188208" lon="30.0009288546"><ele>84.73</ele><time>2026-04-25T10:56:12Z</time></trkpt><trkpt lat="59.0765093453" lon="30.0009201374"><ele>84.73</ele><time>2026-04-25T10:56:24Z</time></trkpt><trkpt lat="59.0765526798" lon="30.0008295290"><ele>84.73</ele><time>2026-04-25T10:56:32Z</time></trkpt><trkpt lat="59.0765672643" lon="30.0007923134"><ele>84.73</ele><time>2026-04-25T10:56:35Z</time></trkpt><trkpt lat="59.0766570345" lon="30.0007635634"><ele>84.73</ele><time>2026-04-25T10:56:46Z</time></trkpt><trkpt lat="59.0767555218" lon="30.0007421896"><ele>84.73</ele><time>2026-04-25T10:56:59Z</time></trkpt><trkpt lat="59.0768359881" lon="30.0006955024"><ele>84.73</ele><time>2026-04-25T10:57:11Z</time></trkpt><trkpt lat="59.0769077372" lon="30.0006735418"><ele>84.73</ele><time>2026-04-25T10:57:21Z</time></trkpt><trkpt lat="59.0769635607" lon="30.0006392598"><ele>84.73</ele><time>2026-04-25T10:57:27Z</time></trkpt><trkpt lat="59.0770115051" lon="30.0006270222"><ele>84.25</ele><time>2026-04-25T10:57:40Z</time></trkpt><trkpt lat="59.0770147741" lon="30.0006331410"><ele>84.25</ele><time>2026-04-25T10:58:11Z</time></trkpt><trkpt lat="59.0770140197" lon="30.0006436184"><ele>84.25</ele><time>2026-04-25T10:58:50Z</time></trkpt><trkpt lat="59.0770172887" lon="30.0006354041"><ele>84.25</ele><time>2026-04-25T10:59:04Z</time></trkpt><trkpt lat="59.0770907141" lon="30.0006053969"><ele>84.25</ele><time>2026-04-25T10:59:15Z</time></trkpt><trkpt lat="59.0771614574" lon="30.0005460531"><ele>83.77</ele><time>2026-04-25T10:59:25Z</time></trkpt><trkpt lat="59.0772355534" lon="30.0004536007"><ele>83.77</ele><time>2026-04-25T10:59:36Z</time></trkpt><trkpt lat="59.0772769600" lon="30.0004478171"><ele>83.77</ele><time>2026-04-25T10:59:40Z</time></trkpt><trkpt lat="59.0773151815" lon="30.0004489068"><ele>83.77</ele><time>2026-04-25T10:59:45Z</time></trkpt><trkpt lat="59.0774111543" lon="30.0004386809"><ele>83.77</ele><time>2026-04-25T10:59:58Z</time></trkpt><trkpt lat="59.0775144193" lon="30.0003793370"><ele>83.77</ele><time>2026-04-25T11:00:11Z</time></trkpt><trkpt lat="59.0776115656" lon="30.0003333203"><ele>83.77</ele><time>2026-04-25T11:00:23Z</time></trkpt><trkpt lat="59.0776392259" lon="30.0003797561"><ele>83.77</ele><time>2026-04-25T11:00:34Z</time></trkpt><trkpt lat="59.0776216239" lon="30.0003459770"><ele>83.77</ele><time>2026-04-25T11:00:46Z</time></trkpt><trkpt lat="59.0776253119" lon="30.0003334042"><ele>83.77</ele><time>2026-04-25T11:01:05Z</time></trkpt><trkpt lat="59.0776294190" lon="30.0003254414"><ele>83.29</ele><time>2026-04-25T11:01:25Z</time></trkpt><trkpt lat="59.0776342805" lon="30.0003247708"><ele>83.29</ele><time>2026-04-25T11:01:49Z</time></trkpt><trkpt lat="59.0776336938" lon="30.0003201608"><ele>83.29</ele><time>2026-04-25T11:02:19Z</time></trkpt><trkpt lat="59.0776379686" lon="30.0003199093"><ele>82.81</ele><time>2026-04-25T11:02:40Z</time></trkpt><trkpt lat="59.0776515473" lon="30.0003313925"><ele>82.81</ele><time>2026-04-25T11:03:02Z</time></trkpt><trkpt lat="59.0776512120" lon="30.0003436301"><ele>82.81</ele><time>2026-04-25T11:03:23Z</time></trkpt><trkpt lat="59.0776460990" lon="30.0003532693"><ele>83.29</ele><time>2026-04-25T11:03:47Z</time></trkpt><trkpt lat="59.0776525531" lon="30.0003341585"><ele>83.29</ele><time>2026-04-25T11:04:04Z</time></trkpt><trkpt lat="59.0776520502" lon="30.0003338233"><ele>83.29</ele><time>2026-04-25T11:04:27Z</time></trkpt><trkpt lat="59.0776501223" lon="30.0003352482"><ele>82.81</ele><time>2026-04-25T11:04:45Z</time></trkpt><trkpt lat="59.0776704904" lon="30.0003228430"><ele>82.81</ele><time>2026-04-25T11:04:58Z</time></trkpt><trkpt lat="59.0776787046" lon="30.0003026426"><ele>83.29</ele><time>2026-04-25T11:05:11Z</time></trkpt><trkpt lat="59.0776889306" lon="30.0002935063"><ele>82.81</ele><time>2026-04-25T11:05:13Z</time></trkpt><trkpt lat="59.0777674690" lon="30.0002805982"><ele>82.81</ele><time>2026-04-25T11:05:25Z</time></trkpt><trkpt lat="59.0778222866" lon="30.0002177339"><ele>82.81</ele><time>2026-04-25T11:05:34Z</time></trkpt><trkpt lat="59.0778852347" lon="30.0001914985"><ele>82.81</ele><time>2026-04-25T11:05:45Z</time></trkpt><trkpt lat="59.0779590793" lon="30.0001769140"><ele>82.81</ele><time>2026-04-25T11:05:57Z</time></trkpt><trkpt lat="59.0779898409" lon="30.0001371838"><ele>82.81</ele><time>2026-04-25T11:06:07Z</time></trkpt><trkpt lat="59.0780659486" lon="30.0000398699"><ele>82.81</ele><time>2026-04-25T11:06:18Z</time></trkpt><trkpt lat="59.0781727340" lon="29.9999957811"><ele>82.81</ele><time>2026-04-25T11:06:29Z</time></trkpt><trkpt lat="59.0782014839" lon="30.0000022352"><ele>83.29</ele><time>2026-04-25T11:06:32Z</time></trkpt><trkpt lat="59.0783083532" lon="30.0000386965"><ele>83.29</ele><time>2026-04-25T11:06:41Z</time></trkpt><trkpt lat="59.0783415455" lon="30.0000524428"><ele>83.29</ele><time>2026-04-25T11:06:43Z</time></trkpt><trkpt lat="59.0784808528" lon="30.0000666082"><ele>82.81</ele><time>2026-04-25T11:06:56Z</time></trkpt><trkpt lat="59.0785958525" lon="30.0000984594"><ele>82.81</ele><time>2026-04-25T11:07:07Z</time></trkpt><trkpt lat="59.0787273645" lon="29.9999697972"><ele>82.81</ele><time>2026-04-25T11:07:19Z</time></trkpt><trkpt lat="59.0787753928" lon="29.9998470023"><ele>83.29</ele><time>2026-04-25T11:07:30Z</time></trkpt><trkpt lat="59.0788004547" lon="29.9998273887"><ele>83.77</ele><time>2026-04-25T11:07:47Z</time></trkpt><trkpt lat="59.0788213257" lon="29.9998041708"><ele>83.77</ele><time>2026-04-25T11:08:19Z</time></trkpt><trkpt lat="59.0787935816" lon="29.9997368641"><ele>83.77</ele><time>2026-04-25T11:08:31Z</time></trkpt><trkpt lat="59.0787415300" lon="29.9995157495"><ele>83.77</ele><time>2026-04-25T11:08:44Z</time></trkpt><trkpt lat="59.0786736365" lon="29.9993117340"><ele>83.77</ele><time>2026-04-25T11:08:57Z</time></trkpt><trkpt lat="59.0786382649" lon="29.9991041981"><ele>83.77</ele><time>2026-04-25T11:09:10Z</time></trkpt><trkpt lat="59.0786362533" lon="29.9989658128"><ele>83.77</ele><time>2026-04-25T11:09:17Z</time></trkpt><trkpt lat="59.0786306374" lon="29.9987440277"><ele>83.77</ele><time>2026-04-25T11:09:31Z</time></trkpt><trkpt lat="59.0786313917" lon="29.9985488132"><ele>83.77</ele><time>2026-04-25T11:09:45Z</time></trkpt><trkpt lat="59.0786405280" lon="29.9985427782"><ele>83.77</ele><time>2026-04-25T11:10:10Z</time></trkpt><trkpt lat="59.0786359180" lon="29.9985331390"><ele>83.77</ele><time>2026-04-25T11:10:29Z</time></trkpt><trkpt lat="59.0785625763" lon="29.9984860327"><ele>83.77</ele><time>2026-04-25T11:10:39Z</time></trkpt><trkpt lat="59.0784708783" lon="29.9984487332"><ele>83.77</ele><time>2026-04-25T11:10:51Z</time></trkpt><trkpt lat="59.0783776715" lon="29.9983592145"><ele>83.77</ele><time>2026-04-25T11:11:03Z</time></trkpt><trkpt lat="59.0782858897" lon="29.9982605595"><ele>84.25</ele><time>2026-04-25T11:11:15Z</time></trkpt><trkpt lat="59.0782769211" lon="29.9982481543"><ele>84.25</ele><time>2026-04-25T11:11:16Z</time></trkpt><trkpt lat="59.0782083571" lon="29.9982064124"><ele>84.25</ele><time>2026-04-25T11:11:24Z</time></trkpt><trkpt lat="59.0780952852" lon="29.9983095098"><ele>84.25</ele><time>2026-04-25T11:11:37Z</time></trkpt><trkpt lat="59.0780760907" lon="29.9983328115"><ele>84.25</ele><time>2026-04-25T11:11:40Z</time></trkpt><trkpt lat="59.0779988095" lon="29.9983433727"><ele>84.25</ele><time>2026-04-25T11:11:48Z</time></trkpt><trkpt lat="59.0779149067" lon="29.9982765689"><ele>83.77</ele><time>2026-04-25T11:11:58Z</time></trkpt><trkpt lat="59.0779178403" lon="29.9982637446"><ele>83.77</ele><time>2026-04-25T11:12:24Z</time></trkpt><trkpt lat="59.0779073630" lon="29.9983054865"><ele>83.77</ele><time>2026-04-25T11:12:38Z</time></trkpt><trkpt lat="59.0779097937" lon="29.9983178917"><ele>83.77</ele><time>2026-04-25T11:12:39Z</time></trkpt><trkpt lat="59.0778806247" lon="29.9984944146"><ele>83.77</ele><time>2026-04-25T11:12:51Z</time></trkpt><trkpt lat="59.0778796189" lon="29.9986907188"><ele>83.77</ele><time>2026-04-25T11:13:03Z</time></trkpt><trkpt lat="59.0778953768" lon="29.9988435209"><ele>83.77</ele><time>2026-04-25T11:13:13Z</time></trkpt><trkpt lat="59.0779455844" lon="29.9989697523"><ele>83.29</ele><time>2026-04-25T11:13:25Z</time></trkpt><trkpt lat="59.0779947024" lon="29.9991255719"><ele>83.29</ele><time>2026-04-25T11:13:39Z</time></trkpt><trkpt lat="59.0780579019" lon="29.9993062019"><ele>83.29</ele><time>2026-04-25T11:13:51Z</time></trkpt><trkpt lat="59.0781040862" lon="29.9993448425"><ele>83.29</ele><time>2026-04-25T11:14:05Z</time></trkpt><trkpt lat="59.0780874901" lon="29.9994041026"><ele>83.77</ele><time>2026-04-25T11:14:16Z</time></trkpt><trkpt lat="59.0780780185" lon="29.9994271528"><ele>83.29</ele><time>2026-04-25T11:14:18Z</time></trkpt><trkpt lat="59.0780565608" lon="29.9995330162"><ele>83.29</ele><time>2026-04-25T11:14:30Z</time></trkpt><trkpt lat="59.0780369472" lon="29.9995587487"><ele>82.33</ele><time>2026-04-25T11:15:00Z</time></trkpt><trkpt lat="59.0780341811" lon="29.9995604251"><ele>82.33</ele><time>2026-04-25T11:15:08Z</time></trkpt><trkpt lat="59.0779837221" lon="29.9995539710"><ele>82.33</ele><time>2026-04-25T11:15:19Z</time></trkpt><trkpt lat="59.0779289883" lon="29.9995660409"><ele>82.33</ele><time>2026-04-25T11:15:30Z</time></trkpt><trkpt lat="59.0778270643" lon="29.9995707348"><ele>82.33</ele><time>2026-04-25T11:15:41Z</time></trkpt><trkpt lat="59.0777289122" lon="29.9995486904"><ele>82.33</ele><time>2026-04-25T11:15:52Z</time></trkpt><trkpt lat="59.0776062850" lon="29.9995141570"><ele>81.85</ele><time>2026-04-25T11:16:03Z</time></trkpt><trkpt lat="59.0775631182" lon="29.9995621014"><ele>81.85</ele><time>2026-04-25T11:16:08Z</time></trkpt><trkpt lat="59.0775189456" lon="29.9996826332"><ele>81.85</ele><time>2026-04-25T11:16:15Z</time></trkpt><trkpt lat="59.0774413291" lon="29.9997691344"><ele>81.85</ele><time>2026-04-25T11:16:26Z</time></trkpt><trkpt lat="59.0774176084" lon="29.9998395424"><ele>81.85</ele><time>2026-04-25T11:16:31Z</time></trkpt><trkpt lat="59.0773563366" lon="29.9998482596"><ele>81.85</ele><time>2026-04-25T11:16:42Z</time></trkpt><trkpt lat="59.0773523133" lon="29.9998547975"><ele>81.85</ele><time>2026-04-25T11:17:06Z</time></trkpt><trkpt lat="59.0773511399" lon="29.9998499360"><ele>81.85</ele><time>2026-04-25T11:17:19Z</time></trkpt><trkpt lat="59.0773535706" lon="29.9998283107"><ele>81.85</ele><time>2026-04-25T11:17:26Z</time></trkpt><trkpt lat="59.0773174446" lon="29.9996150751"><ele>81.85</ele><time>2026-04-25T11:17:39Z</time></trkpt><trkpt lat="59.0773133375" lon="29.9995947070"><ele>81.85</ele><time>2026-04-25T11:17:40Z</time></trkpt><trkpt lat="59.0773085598" lon="29.9995310884"><ele>81.85</ele><time>2026-04-25T11:17:43Z</time></trkpt><trkpt lat="59.0773118287" lon="29.9993056990"><ele>81.37</ele><time>2026-04-25T11:17:55Z</time></trkpt><trkpt lat="59.0773209650" lon="29.9992398173"><ele>81.37</ele><time>2026-04-25T11:18:00Z</time></trkpt><trkpt lat="59.0773073025" lon="29.9990903679"><ele>81.37</ele><time>2026-04-25T11:18:10Z</time></trkpt><trkpt lat="59.0772710927" lon="29.9989425112"><ele>81.85</ele><time>2026-04-25T11:18:21Z</time></trkpt><trkpt lat="59.0772698354" lon="29.9988789763"><ele>81.37</ele><time>2026-04-25T11:18:26Z</time></trkpt><trkpt lat="59.0772845875" lon="29.9987244979"><ele>81.37</ele><time>2026-04-25T11:18:36Z</time></trkpt><trkpt lat="59.0772838332" lon="29.9985417724"><ele>81.37</ele><time>2026-04-25T11:18:47Z</time></trkpt><trkpt lat="59.0772871859" lon="29.9985068198"><ele>81.37</ele><time>2026-04-25T11:18:57Z</time></trkpt><trkpt lat="59.0772690810" lon="29.9984660000"><ele>81.37</ele><time>2026-04-25T11:19:01Z</time></trkpt><trkpt lat="59.0772559214" lon="29.9982862920"><ele>81.37</ele><time>2026-04-25T11:19:12Z</time></trkpt><trkpt lat="59.0772661474" lon="29.9981325679"><ele>81.37</ele><time>2026-04-25T11:19:22Z</time></trkpt><trkpt lat="59.0772904549" lon="29.9980708770"><ele>81.37</ele><time>2026-04-25T11:19:27Z</time></trkpt><trkpt lat="59.0772807319" lon="29.9978978746"><ele>81.37</ele><time>2026-04-25T11:19:37Z</time></trkpt><trkpt lat="59.0772958193" lon="29.9978801887"><ele>81.37</ele><time>2026-04-25T11:19:47Z</time></trkpt><trkpt lat="59.0772934724" lon="29.9978857208"><ele>82.33</ele><time>2026-04-25T11:19:58Z</time></trkpt><trkpt lat="59.0772943106" lon="29.9978867266"><ele>82.81</ele><time>2026-04-25T11:20:12Z</time></trkpt><trkpt lat="59.0772166103" lon="29.9978981260"><ele>82.33</ele><time>2026-04-25T11:20:22Z</time></trkpt><trkpt lat="59.0771420952" lon="29.9978352617"><ele>82.33</ele><time>2026-04-25T11:20:32Z</time></trkpt><trkpt lat="59.0770736989" lon="29.9977714755"><ele>82.33</ele><time>2026-04-25T11:20:42Z</time></trkpt><trkpt lat="59.0770595334" lon="29.9977555498"><ele>82.33</ele><time>2026-04-25T11:20:44Z</time></trkpt><trkpt lat="59.0770259220" lon="29.9977365229"><ele>82.33</ele><time>2026-04-25T11:20:48Z</time></trkpt><trkpt lat="59.0769812465" lon="29.9977414683"><ele>82.33</ele><time>2026-04-25T11:20:53Z</time></trkpt><trkpt lat="59.0769151133" lon="29.9977183342"><ele>82.33</ele><time>2026-04-25T11:21:02Z</time></trkpt><trkpt lat="59.0769022051" lon="29.9977203459"><ele>82.33</ele><time>2026-04-25T11:21:06Z</time></trkpt><trkpt lat="59.0768204816" lon="29.9976945296"><ele>82.33</ele><time>2026-04-25T11:21:18Z</time></trkpt><trkpt lat="59.0767435357" lon="29.9976605829"><ele>82.33</ele><time>2026-04-25T11:21:29Z</time></trkpt><trkpt lat="59.0766489040" lon="29.9976963736"><ele>82.33</ele><time>2026-04-25T11:21:40Z</time></trkpt><trkpt lat="59.0766122751" lon="29.9976773467"><ele>82.33</ele><time>2026-04-25T11:21:45Z</time></trkpt><trkpt lat="59.0765864588" lon="29.9976741616"><ele>82.33</ele><time>2026-04-25T11:21:50Z</time></trkpt><trkpt lat="59.0765740536" lon="29.9976913445"><ele>82.33</ele><time>2026-04-25T11:22:02Z</time></trkpt><trkpt lat="59.0765744727" lon="29.9977029115"><ele>82.33</ele><time>2026-04-25T11:22:31Z</time></trkpt><trkpt lat="59.0765694436" lon="29.9977210164"><ele>82.33</ele><time>2026-04-25T11:22:33Z</time></trkpt><trkpt lat="59.0765734669" lon="29.9978944380"><ele>81.85</ele><time>2026-04-25T11:22:43Z</time></trkpt><trkpt lat="59.0765720420" lon="29.9979476631"><ele>81.85</ele><time>2026-04-25T11:22:54Z</time></trkpt><trkpt lat="59.0765472315" lon="29.9980822764"><ele>81.85</ele><time>2026-04-25T11:23:04Z</time></trkpt><trkpt lat="59.0765151288" lon="29.9982075021"><ele>81.85</ele><time>2026-04-25T11:23:14Z</time></trkpt><trkpt lat="59.0765214153" lon="29.9983625673"><ele>81.85</ele><time>2026-04-25T11:23:24Z</time></trkpt><trkpt lat="59.0765523445" lon="29.9984248448"><ele>81.85</ele><time>2026-04-25T11:23:31Z</time></trkpt><trkpt lat="59.0765689407" lon="29.9985777307"><ele>81.85</ele><time>2026-04-25T11:23:41Z</time></trkpt><trkpt lat="59.0766161308" lon="29.9986259267"><ele>81.85</ele><time>2026-04-25T11:23:47Z</time></trkpt><trkpt lat="59.0766767319" lon="29.9987727776"><ele>81.85</ele><time>2026-04-25T11:23:59Z</time></trkpt><trkpt lat="59.0766867902" lon="29.9988291040"><ele>81.85</ele><time>2026-04-25T11:24:02Z</time></trkpt><trkpt lat="59.0766867902" lon="29.9988835864"><ele>81.85</ele><time>2026-04-25T11:24:05Z</time></trkpt><trkpt lat="59.0766879637" lon="29.9989339616"><ele>81.85</ele><time>2026-04-25T11:24:08Z</time></trkpt><trkpt lat="59.0767095052" lon="29.9990956485"><ele>81.85</ele><time>2026-04-25T11:24:19Z</time></trkpt><trkpt lat="59.0767105110" lon="29.9991076346"><ele>81.85</ele><time>2026-04-25T11:24:20Z</time></trkpt><trkpt lat="59.0767027158" lon="29.9991327804"><ele>81.85</ele><time>2026-04-25T11:24:22Z</time></trkpt><trkpt lat="59.0766982734" lon="29.9992173538"><ele>81.85</ele><time>2026-04-25T11:24:28Z</time></trkpt><trkpt lat="59.0767114330" lon="29.9993260670"><ele>81.85</ele><time>2026-04-25T11:24:35Z</time></trkpt><trkpt lat="59.0767209884" lon="29.9993771128"><ele>81.85</ele><time>2026-04-25T11:24:38Z</time></trkpt><trkpt lat="59.0767122712" lon="29.9994616862"><ele>81.85</ele><time>2026-04-25T11:24:43Z</time></trkpt><trkpt lat="59.0767261852" lon="29.9994908553"><ele>81.85</ele><time>2026-04-25T11:24:48Z</time></trkpt><trkpt lat="59.0767305437" lon="29.9995404761"><ele>81.85</ele><time>2026-04-25T11:24:51Z</time></trkpt><trkpt lat="59.0767449606" lon="29.9996139016"><ele>81.85</ele><time>2026-04-25T11:24:55Z</time></trkpt><trkpt lat="59.0767196473" lon="29.9997858983"><ele>81.85</ele><time>2026-04-25T11:25:06Z</time></trkpt><trkpt lat="59.0767316334" lon="29.9998449907"><ele>81.85</ele><time>2026-04-25T11:25:10Z</time></trkpt><trkpt lat="59.0767464694" lon="29.9999461602"><ele>81.37</ele><time>2026-04-25T11:25:16Z</time></trkpt><trkpt lat="59.0767410211" lon="30.0000868086"><ele>81.37</ele><time>2026-04-25T11:25:25Z</time></trkpt><trkpt lat="59.0767260175" lon="30.0001155585"><ele>81.37</ele><time>2026-04-25T11:25:36Z</time></trkpt><trkpt lat="59.0767319687" lon="30.0001069251"><ele>82.81</ele><time>2026-04-25T11:26:09Z</time></trkpt><trkpt lat="59.0767339803" lon="30.0000845455"><ele>82.81</ele><time>2026-04-25T11:26:22Z</time></trkpt><trkpt lat="59.0767056495" lon="30.0000549573"><ele>82.81</ele><time>2026-04-25T11:26:26Z</time></trkpt><trkpt lat="59.0766842756" lon="30.0000485033"><ele>82.81</ele><time>2026-04-25T11:26:28Z</time></trkpt><trkpt lat="59.0766207408" lon="30.0000208430"><ele>81.85</ele><time>2026-04-25T11:26:36Z</time></trkpt><trkpt lat="59.0765919071" lon="30.0001079310"><ele>81.85</ele><time>2026-04-25T11:26:43Z</time></trkpt><trkpt lat="59.0765020531" lon="30.0001985393"><ele>81.85</ele><time>2026-04-25T11:26:55Z</time></trkpt><trkpt lat="59.0764323995" lon="30.0001996290"><ele>81.85</ele><time>2026-04-25T11:27:04Z</time></trkpt><trkpt lat="59.0763807669" lon="30.0001873914"><ele>81.85</ele><time>2026-04-25T11:27:11Z</time></trkpt><trkpt lat="59.0762910806" lon="30.0002022274"><ele>81.37</ele><time>2026-04-25T11:27:24Z</time></trkpt><trkpt lat="59.0762883145" lon="30.0001912471"><ele>81.37</ele><time>2026-04-25T11:27:26Z</time></trkpt><trkpt lat="59.0762547031" lon="30.0001656823"><ele>81.37</ele><time>2026-04-25T11:27:30Z</time></trkpt><trkpt lat="59.0762237739" lon="30.0001891516"><ele>81.37</ele><time>2026-04-25T11:27:33Z</time></trkpt><trkpt lat="59.0761408769" lon="30.0001881458"><ele>81.37</ele><time>2026-04-25T11:27:43Z</time></trkpt><trkpt lat="59.0761176590" lon="30.0001566298"><ele>81.37</ele><time>2026-04-25T11:27:46Z</time></trkpt><trkpt lat="59.0760822874" lon="30.0001800992"><ele>81.37</ele><time>2026-04-25T11:27:51Z</time></trkpt><trkpt lat="59.0760311577" lon="30.0002466515"><ele>81.37</ele><time>2026-04-25T11:28:05Z</time></trkpt><trkpt lat="59.0760335885" lon="30.0002434663"><ele>81.37</ele><time>2026-04-25T11:28:23Z</time></trkpt><trkpt lat="59.0760368574" lon="30.0002339948"><ele>81.85</ele><time>2026-04-25T11:28:42Z</time></trkpt><trkpt lat="59.0760352649" lon="30.0001624133"><ele>81.85</ele><time>2026-04-25T11:28:47Z</time></trkpt><trkpt lat="59.0759809501" lon="29.9999958649"><ele>81.85</ele><time>2026-04-25T11:28:57Z</time></trkpt><trkpt lat="59.0759555530" lon="29.9999345932"><ele>81.85</ele><time>2026-04-25T11:29:01Z</time></trkpt><trkpt lat="59.0759298205" lon="29.9997651950"><ele>81.85</ele><time>2026-04-25T11:29:11Z</time></trkpt><trkpt lat="59.0759246238" lon="29.9996997323"><ele>82.33</ele><time>2026-04-25T11:29:16Z</time></trkpt><trkpt lat="59.0759340953" lon="29.9996389635"><ele>81.85</ele><time>2026-04-25T11:29:33Z</time></trkpt><trkpt lat="59.0759397950" lon="29.9996308330"><ele>81.85</ele><time>2026-04-25T11:29:34Z</time></trkpt><trkpt lat="59.0759416390" lon="29.9995175935"><ele>81.85</ele><time>2026-04-25T11:29:44Z</time></trkpt><trkpt lat="59.0759462491" lon="29.9994629435"><ele>81.85</ele><time>2026-04-25T11:29:47Z</time></trkpt><trkpt lat="59.0759452432" lon="29.9993810523"><ele>81.85</ele><time>2026-04-25T11:29:52Z</time></trkpt><trkpt lat="59.0759206004" lon="29.9992124923"><ele>81.85</ele><time>2026-04-25T11:30:03Z</time></trkpt><trkpt lat="59.0759158228" lon="29.9990523979"><ele>81.85</ele><time>2026-04-25T11:30:13Z</time></trkpt><trkpt lat="59.0759378672" lon="29.9989892822"><ele>81.85</ele><time>2026-04-25T11:30:17Z</time></trkpt><trkpt lat="59.0759007353" lon="29.9989249092"><ele>81.85</ele><time>2026-04-25T11:30:22Z</time></trkpt><trkpt lat="59.0759003162" lon="29.9987369869"><ele>81.85</ele><time>2026-04-25T11:30:33Z</time></trkpt><trkpt lat="59.0758612566" lon="29.9985980149"><ele>81.85</ele><time>2026-04-25T11:30:44Z</time></trkpt><trkpt lat="59.0758500248" lon="29.9984458834"><ele>81.85</ele><time>2026-04-25T11:30:55Z</time></trkpt><trkpt lat="59.0758728236" lon="29.9983127788"><ele>81.85</ele><time>2026-04-25T11:31:08Z</time></trkpt><trkpt lat="59.0758625977" lon="29.9982974399"><ele>82.33</ele><time>2026-04-25T11:31:11Z</time></trkpt><trkpt lat="59.0758511983" lon="29.9982721265"><ele>81.85</ele><time>2026-04-25T11:31:13Z</time></trkpt><trkpt lat="59.0758633520" lon="29.9980319850"><ele>82.33</ele><time>2026-04-25T11:31:26Z</time></trkpt><trkpt lat="59.0758805349" lon="29.9979731441"><ele>82.33</ele><time>2026-04-25T11:31:31Z</time></trkpt><trkpt lat="59.0758880787" lon="29.9979592301"><ele>82.33</ele><time>2026-04-25T11:31:44Z</time></trkpt><trkpt lat="59.0758844744" lon="29.9979640916"><ele>82.33</ele><time>2026-04-25T11:32:06Z</time></trkpt><trkpt lat="59.0758847259" lon="29.9979614094"><ele>82.33</ele><time>2026-04-25T11:32:24Z</time></trkpt><trkpt lat="59.0758849774" lon="29.9979619961"><ele>82.33</ele><time>2026-04-25T11:32:36Z</time></trkpt><trkpt lat="59.0758014936" lon="29.9979676958"><ele>82.33</ele><time>2026-04-25T11:32:47Z</time></trkpt><trkpt lat="59.0757839754" lon="29.9979799334"><ele>82.33</ele><time>2026-04-25T11:32:49Z</time></trkpt><trkpt lat="59.0756739210" lon="29.9980512634"><ele>82.33</ele><time>2026-04-25T11:33:02Z</time></trkpt><trkpt lat="59.0755706560" lon="29.9980691168"><ele>82.33</ele><time>2026-04-25T11:33:14Z</time></trkpt><trkpt lat="59.0755410679" lon="29.9980728887"><ele>82.33</ele><time>2026-04-25T11:33:17Z</time></trkpt><trkpt lat="59.0754747670" lon="29.9981375132"><ele>82.33</ele><time>2026-04-25T11:33:26Z</time></trkpt><trkpt lat="59.0754304267" lon="29.9981008004"><ele>82.33</ele><time>2026-04-25T11:33:31Z</time></trkpt><trkpt lat="59.0754220448" lon="29.9980697036"><ele>82.33</ele><time>2026-04-25T11:33:33Z</time></trkpt><trkpt lat="59.0753417462" lon="29.9980453122"><ele>81.85</ele><time>2026-04-25T11:33:44Z</time></trkpt><trkpt lat="59.0752880182" lon="29.9980813544"><ele>82.81</ele><time>2026-04-25T11:33:54Z</time></trkpt><trkpt lat="59.0752781276" lon="29.9981071707"><ele>83.29</ele><time>2026-04-25T11:34:07Z</time></trkpt><trkpt lat="59.0752815641" lon="29.9981127027"><ele>83.29</ele><time>2026-04-25T11:34:31Z</time></trkpt><trkpt lat="59.0752824023" lon="29.9981671851"><ele>83.29</ele><time>2026-04-25T11:34:50Z</time></trkpt><trkpt lat="59.0752794687" lon="29.9981811829"><ele>83.29</ele><time>2026-04-25T11:34:51Z</time></trkpt><trkpt lat="59.0752831567" lon="29.9982828554"><ele>83.29</ele><time>2026-04-25T11:34:57Z</time></trkpt><trkpt lat="59.0752774570" lon="29.9983818457"><ele>83.29</ele><time>2026-04-25T11:35:02Z</time></trkpt><trkpt lat="59.0752685722" lon="29.9984740466"><ele>82.81</ele><time>2026-04-25T11:35:07Z</time></trkpt><trkpt lat="59.0752746072" lon="29.9985097535"><ele>82.81</ele><time>2026-04-25T11:35:09Z</time></trkpt><trkpt lat="59.0753112361" lon="29.9985772278"><ele>82.81</ele><time>2026-04-25T11:35:15Z</time></trkpt><trkpt lat="59.0753124095" lon="29.9986106716"><ele>82.81</ele><time>2026-04-25T11:35:17Z</time></trkpt><trkpt lat="59.0753435064" lon="29.9986804929"><ele>82.81</ele><time>2026-04-25T11:35:22Z</time></trkpt><trkpt lat="59.0753465239" lon="29.9987958279"><ele>82.81</ele><time>2026-04-25T11:35:36Z</time></trkpt><trkpt lat="59.0753485356" lon="29.9988974165"><ele>82.81</ele><time>2026-04-25T11:35:48Z</time></trkpt><trkpt lat="59.0753503796" lon="29.9989323691"><ele>82.81</ele><time>2026-04-25T11:35:50Z</time></trkpt><trkpt lat="59.0753992461" lon="29.9991106521"><ele>82.81</ele><time>2026-04-25T11:36:02Z</time></trkpt><trkpt lat="59.0754015930" lon="29.9992802180"><ele>82.81</ele><time>2026-04-25T11:36:15Z</time></trkpt><trkpt lat="59.0754181053" lon="29.9994304217"><ele>82.81</ele><time>2026-04-25T11:36:24Z</time></trkpt><trkpt lat="59.0754427481" lon="29.9995931145"><ele>82.81</ele><time>2026-04-25T11:36:36Z</time></trkpt><trkpt lat="59.0754419938" lon="29.9995987304"><ele>82.81</ele><time>2026-04-25T11:36:43Z</time></trkpt><trkpt lat="59.0754462685" lon="29.9997405522"><ele>82.81</ele><time>2026-04-25T11:36:55Z</time></trkpt><trkpt lat="59.0754473582" lon="29.9997926876"><ele>82.81</ele><time>2026-04-25T11:37:00Z</time></trkpt><trkpt lat="59.0754361264" lon="29.9998359382"><ele>82.81</ele><time>2026-04-25T11:37:03Z</time></trkpt><trkpt lat="59.0754327737" lon="29.9999000598"><ele>82.81</ele><time>2026-04-25T11:37:08Z</time></trkpt><trkpt lat="59.0754775330" lon="30.0000283867"><ele>82.81</ele><time>2026-04-25T11:37:21Z</time></trkpt><trkpt lat="59.0754793771" lon="30.0000446476"><ele>82.81</ele><time>2026-04-25T11:37:23Z</time></trkpt><trkpt lat="59.0754734259" lon="30.0001368485"><ele>82.81</ele><time>2026-04-25T11:37:31Z</time></trkpt><trkpt lat="59.0754672233" lon="30.0001681130"><ele>82.81</ele><time>2026-04-25T11:37:33Z</time></trkpt><trkpt lat="59.0754915308" lon="30.0002646726"><ele>82.81</ele><time>2026-04-25T11:37:41Z</time></trkpt><trkpt lat="59.0755220409" lon="30.0003879704"><ele>82.81</ele><time>2026-04-25T11:37:51Z</time></trkpt><trkpt lat="59.0755413193" lon="30.0004737172"><ele>82.81</ele><time>2026-04-25T11:37:58Z</time></trkpt><trkpt lat="59.0755429119" lon="30.0005744677"><ele>82.81</ele><time>2026-04-25T11:38:09Z</time></trkpt><trkpt lat="59.0755348653" lon="30.0006189756"><ele>82.81</ele><time>2026-04-25T11:38:20Z</time></trkpt><trkpt lat="59.0755456779" lon="30.0006188080"><ele>83.77</ele><time>2026-04-25T11:38:46Z</time></trkpt><trkpt lat="59.0755512938" lon="30.0006512459"><ele>83.77</ele><time>2026-04-25T11:38:48Z</time></trkpt><trkpt lat="59.0755490307" lon="30.0006833486"><ele>83.77</ele><time>2026-04-25T11:38:51Z</time></trkpt><trkpt lat="59.0755760204" lon="30.0007461291"><ele>82.33</ele><time>2026-04-25T11:39:05Z</time></trkpt><trkpt lat="59.0755781997" lon="30.0007477216"><ele>81.37</ele><time>2026-04-25T11:39:11Z</time></trkpt><trkpt lat="59.0754913632" lon="30.0008447003"><ele>81.37</ele><time>2026-04-25T11:39:23Z</time></trkpt><trkpt lat="59.0754189435" lon="30.0009208079"><ele>81.37</ele><time>2026-04-25T11:39:33Z</time></trkpt><trkpt lat="59.0753474459" lon="30.0010156911"><ele>81.37</ele><time>2026-04-25T11:39:41Z</time></trkpt><trkpt lat="59.0752781276" lon="30.0010561757"><ele>81.37</ele><time>2026-04-25T11:39:52Z</time></trkpt><trkpt lat="59.0752736852" lon="30.0010629650"><ele>81.37</ele><time>2026-04-25T11:39:53Z</time></trkpt><trkpt lat="59.0752526466" lon="30.0010570139"><ele>81.37</ele><time>2026-04-25T11:39:56Z</time></trkpt><trkpt lat="59.0752176940" lon="30.0010772143"><ele>81.37</ele><time>2026-04-25T11:40:00Z</time></trkpt><trkpt lat="59.0751628764" lon="30.0011444371"><ele>81.37</ele><time>2026-04-25T11:40:07Z</time></trkpt><trkpt lat="59.0750980005" lon="30.0011562556"><ele>81.37</ele><time>2026-04-25T11:40:18Z</time></trkpt><trkpt lat="59.0750860982" lon="30.0011453591"><ele>81.37</ele><time>2026-04-25T11:40:20Z</time></trkpt><trkpt lat="59.0750344656" lon="30.0011757854"><ele>81.37</ele><time>2026-04-25T11:40:26Z</time></trkpt><trkpt lat="59.0750115830" lon="30.0012214668"><ele>81.37</ele><time>2026-04-25T11:40:30Z</time></trkpt><trkpt lat="59.0749450307" lon="30.0012365542"><ele>81.37</ele><time>2026-04-25T11:40:41Z</time></trkpt><trkpt lat="59.0749013610" lon="30.0012273341"><ele>81.37</ele><time>2026-04-25T11:40:51Z</time></trkpt><trkpt lat="59.0748912189" lon="30.0012354646"><ele>81.37</ele><time>2026-04-25T11:41:03Z</time></trkpt><trkpt lat="59.0748837590" lon="30.0012591016"><ele>81.37</ele><time>2026-04-25T11:41:24Z</time></trkpt><trkpt lat="59.0748865250" lon="30.0012404937"><ele>81.37</ele><time>2026-04-25T11:41:37Z</time></trkpt><trkpt lat="59.0748822503" lon="30.0011907052"><ele>81.37</ele><time>2026-04-25T11:41:40Z</time></trkpt><trkpt lat="59.0748518240" lon="30.0010071415"><ele>81.37</ele><time>2026-04-25T11:41:51Z</time></trkpt><trkpt lat="59.0748270135" lon="30.0008328818"><ele>81.37</ele><time>2026-04-25T11:42:02Z</time></trkpt><trkpt lat="59.0748168714" lon="30.0007168762"><ele>81.37</ele><time>2026-04-25T11:42:12Z</time></trkpt><trkpt lat="59.0748156980" lon="30.0005634036"><ele>81.37</ele><time>2026-04-25T11:42:25Z</time></trkpt><trkpt lat="59.0748185478" lon="30.0005307980"><ele>81.37</ele><time>2026-04-25T11:42:27Z</time></trkpt><trkpt lat="59.0748360660" lon="30.0004418660"><ele>81.37</ele><time>2026-04-25T11:42:33Z</time></trkpt><trkpt lat="59.0748271812" lon="30.0003695302"><ele>81.37</ele><time>2026-04-25T11:42:37Z</time></trkpt><trkpt lat="59.0748008620" lon="30.0002747308"><ele>81.37</ele><time>2026-04-25T11:42:44Z</time></trkpt><trkpt lat="59.0747345611" lon="30.0001939293"><ele>81.37</ele><time>2026-04-25T11:42:53Z</time></trkpt><trkpt lat="59.0747442003" lon="30.0000176579"><ele>82.33</ele><time>2026-04-25T11:43:05Z</time></trkpt><trkpt lat="59.0747537557" lon="29.9999668635"><ele>82.33</ele><time>2026-04-25T11:43:09Z</time></trkpt><trkpt lat="59.0747182164" lon="29.9998930190"><ele>82.33</ele><time>2026-04-25T11:43:16Z</time></trkpt><trkpt lat="59.0746886283" lon="29.9997352716"><ele>82.81</ele><time>2026-04-25T11:43:26Z</time></trkpt><trkpt lat="59.0746898856" lon="29.9997208547"><ele>82.33</ele><time>2026-04-25T11:43:27Z</time></trkpt><trkpt lat="59.0746809170" lon="29.9996356107"><ele>82.33</ele><time>2026-04-25T11:43:33Z</time></trkpt><trkpt lat="59.0747120976" lon="29.9994795397"><ele>82.33</ele><time>2026-04-25T11:43:43Z</time></trkpt><trkpt lat="59.0746983513" lon="29.9993168470"><ele>82.33</ele><time>2026-04-25T11:43:53Z</time></trkpt><trkpt lat="59.0746758040" lon="29.9991825689"><ele>82.33</ele><time>2026-04-25T11:44:02Z</time></trkpt><trkpt lat="59.0746588726" lon="29.9991570041"><ele>82.33</ele><time>2026-04-25T11:44:04Z</time></trkpt><trkpt lat="59.0746224113" lon="29.9990031961"><ele>82.33</ele><time>2026-04-25T11:44:16Z</time></trkpt><trkpt lat="59.0746333078" lon="29.9987967499"><ele>82.33</ele><time>2026-04-25T11:44:30Z</time></trkpt><trkpt lat="59.0746178851" lon="29.9987722747"><ele>83.29</ele><time>2026-04-25T11:44:32Z</time></trkpt><trkpt lat="59.0745868720" lon="29.9985953327"><ele>83.29</ele><time>2026-04-25T11:44:43Z</time></trkpt><trkpt lat="59.0745730419" lon="29.9984631501"><ele>83.29</ele><time>2026-04-25T11:44:54Z</time></trkpt><trkpt lat="59.0745779034" lon="29.9984505773"><ele>82.81</ele><time>2026-04-25T11:45:06Z</time></trkpt><trkpt lat="59.0745743830" lon="29.9984545168"><ele>83.29</ele><time>2026-04-25T11:45:27Z</time></trkpt><trkpt lat="59.0745737124" lon="29.9984434526"><ele>83.29</ele><time>2026-04-25T11:45:52Z</time></trkpt><trkpt lat="59.0745204873" lon="29.9984473083"><ele>83.29</ele><time>2026-04-25T11:46:09Z</time></trkpt><trkpt lat="59.0744573716" lon="29.9984893017"><ele>83.29</ele><time>2026-04-25T11:46:17Z</time></trkpt><trkpt lat="59.0744287893" lon="29.9984486494"><ele>83.29</ele><time>2026-04-25T11:46:21Z</time></trkpt><trkpt lat="59.0743196569" lon="29.9985269364"><ele>83.29</ele><time>2026-04-25T11:46:34Z</time></trkpt><trkpt lat="59.0742389392" lon="29.9986295309"><ele>83.29</ele><time>2026-04-25T11:46:46Z</time></trkpt><trkpt lat="59.0741963591" lon="29.9986596219"><ele>83.29</ele><time>2026-04-25T11:46:50Z</time></trkpt><trkpt lat="59.0741520189" lon="29.9987433571"><ele>83.29</ele><time>2026-04-25T11:46:56Z</time></trkpt><trkpt lat="59.0741324890" lon="29.9987410102"><ele>83.29</ele><time>2026-04-25T11:46:58Z</time></trkpt><trkpt lat="59.0740739834" lon="29.9986848515"><ele>83.29</ele><time>2026-04-25T11:47:07Z</time></trkpt><trkpt lat="59.0740366839" lon="29.9986944068"><ele>83.29</ele><time>2026-04-25T11:47:13Z</time></trkpt><trkpt lat="59.0739366040" lon="29.9987496436"><ele>83.29</ele><time>2026-04-25T11:47:27Z</time></trkpt><trkpt lat="59.0739056747" lon="29.9987913016"><ele>83.29</ele><time>2026-04-25T11:47:40Z</time></trkpt><trkpt lat="59.0739122126" lon="29.9987923075"><ele>83.29</ele><time>2026-04-25T11:48:06Z</time></trkpt><trkpt lat="59.0739166550" lon="29.9987906311"><ele>84.73</ele><time>2026-04-25T11:48:26Z</time></trkpt><trkpt lat="59.0739067644" lon="29.9988093227"><ele>85.21</ele><time>2026-04-25T11:48:46Z</time></trkpt><trkpt lat="59.0739088599" lon="29.9988705944"><ele>83.77</ele><time>2026-04-25T11:48:58Z</time></trkpt><trkpt lat="59.0739189181" lon="29.9989109952"><ele>83.77</ele><time>2026-04-25T11:49:01Z</time></trkpt><trkpt lat="59.0739348438" lon="29.9989965744"><ele>83.77</ele><time>2026-04-25T11:49:09Z</time></trkpt><trkpt lat="59.0739583969" lon="29.9990166072"><ele>83.77</ele><time>2026-04-25T11:49:12Z</time></trkpt><trkpt lat="59.0739982948" lon="29.9990967382"><ele>83.77</ele><time>2026-04-25T11:49:18Z</time></trkpt><trkpt lat="59.0740377735" lon="29.9991762824"><ele>83.77</ele><time>2026-04-25T11:49:24Z</time></trkpt><trkpt lat="59.0740665235" lon="29.9992605206"><ele>83.77</ele><time>2026-04-25T11:49:29Z</time></trkpt><trkpt lat="59.0740735643" lon="29.9993347004"><ele>83.77</ele><time>2026-04-25T11:49:33Z</time></trkpt><trkpt lat="59.0740308166" lon="29.9995228741"><ele>83.77</ele><time>2026-04-25T11:49:43Z</time></trkpt><trkpt lat="59.0740321577" lon="29.9996519554"><ele>83.77</ele><time>2026-04-25T11:49:51Z</time></trkpt><trkpt lat="59.0740723070" lon="29.9998135585"><ele>83.77</ele><time>2026-04-25T11:50:04Z</time></trkpt><trkpt lat="59.0741018951" lon="29.9999503512"><ele>82.81</ele><time>2026-04-25T11:50:13Z</time></trkpt><trkpt lat="59.0741055831" lon="29.9999630917"><ele>82.81</ele><time>2026-04-25T11:50:14Z</time></trkpt><trkpt lat="59.0741214249" lon="30.0001862179"><ele>82.81</ele><time>2026-04-25T11:50:27Z</time></trkpt><trkpt lat="59.0741293039" lon="30.0002515968"><ele>82.81</ele><time>2026-04-25T11:50:31Z</time></trkpt><trkpt lat="59.0741279628" lon="30.0002903212"><ele>82.81</ele><time>2026-04-25T11:50:33Z</time></trkpt><trkpt lat="59.0741864685" lon="30.0004738849"><ele>82.81</ele><time>2026-04-25T11:50:47Z</time></trkpt><trkpt lat="59.0741936769" lon="30.0004803389"><ele>82.81</ele><time>2026-04-25T11:50:48Z</time></trkpt><trkpt lat="59.0741957724" lon="30.0005488191"><ele>82.81</ele><time>2026-04-25T11:50:52Z</time></trkpt><trkpt lat="59.0742163919" lon="30.0005836040"><ele>82.81</ele><time>2026-04-25T11:50:55Z</time></trkpt><trkpt lat="59.0742489975" lon="30.0008083228"><ele>82.81</ele><time>2026-04-25T11:51:08Z</time></trkpt><trkpt lat="59.0742639173" lon="30.0008860230"><ele>82.81</ele><time>2026-04-25T11:51:13Z</time></trkpt><trkpt lat="59.0742606483" lon="30.0009554252"><ele>82.81</ele><time>2026-04-25T11:51:17Z</time></trkpt><trkpt lat="59.0742733888" lon="30.0009800680"><ele>82.81</ele><time>2026-04-25T11:51:19Z</time></trkpt><trkpt lat="59.0742990375" lon="30.0011282600"><ele>82.81</ele><time>2026-04-25T11:51:30Z</time></trkpt><trkpt lat="59.0742992889" lon="30.0011259131"><ele>82.81</ele><time>2026-04-25T11:51:42Z</time></trkpt><trkpt lat="59.0743034799" lon="30.0011054613"><ele>82.81</ele><time>2026-04-25T11:52:04Z</time></trkpt><trkpt lat="59.0742705390" lon="30.0010918826"><ele>82.81</ele><time>2026-04-25T11:52:18Z</time></trkpt><trkpt lat="59.0742505062" lon="30.0010938104"><ele>82.81</ele><time>2026-04-25T11:52:20Z</time></trkpt><trkpt lat="59.0741547849" lon="30.0012051221"><ele>82.81</ele><time>2026-04-25T11:52:31Z</time></trkpt><trkpt lat="59.0741471574" lon="30.0012200419"><ele>82.81</ele><time>2026-04-25T11:52:32Z</time></trkpt><trkpt lat="59.0740770008" lon="30.0012579281"><ele>82.81</ele><time>2026-04-25T11:52:44Z</time></trkpt><trkpt lat="59.0740319062" lon="30.0012922939"><ele>82.81</ele><time>2026-04-25T11:52:55Z</time></trkpt><trkpt lat="59.0739552956" lon="30.0013460219"><ele>82.81</ele><time>2026-04-25T11:53:06Z</time></trkpt><trkpt lat="59.0738925152" lon="30.0013749395"><ele>82.81</ele><time>2026-04-25T11:53:16Z</time></trkpt><trkpt lat="59.0737832151" lon="30.0014063716"><ele>82.81</ele><time>2026-04-25T11:53:28Z</time></trkpt><trkpt lat="59.0737109631" lon="30.0014732592"><ele>82.33</ele><time>2026-04-25T11:53:39Z</time></trkpt><trkpt lat="59.0736760944" lon="30.0014649611"><ele>82.33</ele><time>2026-04-25T11:53:43Z</time></trkpt><trkpt lat="59.0736522060" lon="30.0014739297"><ele>82.33</ele><time>2026-04-25T11:53:54Z</time></trkpt><trkpt lat="59.0736545529" lon="30.0014626980"><ele>82.33</ele><time>2026-04-25T11:54:17Z</time></trkpt><trkpt lat="59.0736506972" lon="30.0014644582"><ele>82.33</ele><time>2026-04-25T11:54:44Z</time></trkpt><trkpt lat="59.0736568999" lon="30.0014534779"><ele>82.33</ele><time>2026-04-25T11:55:18Z</time></trkpt><trkpt lat="59.0736387111" lon="30.0014005043"><ele>82.33</ele><time>2026-04-25T11:55:46Z</time></trkpt><trkpt lat="59.0736242943" lon="30.0013720896"><ele>82.33</ele><time>2026-04-25T11:55:48Z</time></trkpt><trkpt lat="59.0736192651" lon="30.0013093930"><ele>82.33</ele><time>2026-04-25T11:55:51Z</time></trkpt><trkpt lat="59.0736253839" lon="30.0012239814"><ele>82.33</ele><time>2026-04-25T11:55:56Z</time></trkpt><trkpt lat="59.0736029204" lon="30.0009901263"><ele>82.33</ele><time>2026-04-25T11:56:09Z</time></trkpt><trkpt lat="59.0736096259" lon="30.0008394197"><ele>82.33</ele><time>2026-04-25T11:56:18Z</time></trkpt><trkpt lat="59.0735800378" lon="30.0007176306"><ele>82.33</ele><time>2026-04-25T11:56:26Z</time></trkpt><trkpt lat="59.0735566523" lon="30.0006144494"><ele>82.33</ele><time>2026-04-25T11:56:33Z</time></trkpt><trkpt lat="59.0735631902" lon="30.0005662534"><ele>83.29</ele><time>2026-04-25T11:56:36Z</time></trkpt><trkpt lat="59.0735462587" lon="30.0005477294"><ele>83.29</ele><time>2026-04-25T11:56:38Z</time></trkpt><trkpt lat="59.0734920278" lon="30.0004369207"><ele>83.29</ele><time>2026-04-25T11:56:49Z</time></trkpt><trkpt lat="59.0734908544" lon="30.0003551971"><ele>83.29</ele><time>2026-04-25T11:56:53Z</time></trkpt><trkpt lat="59.0734911896" lon="30.0001535285"><ele>83.29</ele><time>2026-04-25T11:57:05Z</time></trkpt><trkpt lat="59.0734846517" lon="30.0001205876"><ele>83.29</ele><time>2026-04-25T11:57:07Z</time></trkpt><trkpt lat="59.0734548960" lon="29.9999378622"><ele>83.29</ele><time>2026-04-25T11:57:19Z</time></trkpt><trkpt lat="59.0734543093" lon="29.9998972937"><ele>83.29</ele><time>2026-04-25T11:57:22Z</time></trkpt><trkpt lat="59.0734294988" lon="29.9997355230"><ele>83.29</ele><time>2026-04-25T11:57:32Z</time></trkpt><trkpt lat="59.0734025091" lon="29.9996351078"><ele>83.29</ele><time>2026-04-25T11:57:39Z</time></trkpt><trkpt lat="59.0734016709" lon="29.9995274842"><ele>83.29</ele><time>2026-04-25T11:57:45Z</time></trkpt><trkpt lat="59.0733612701" lon="29.9993649591"><ele>83.29</ele><time>2026-04-25T11:57:57Z</time></trkpt><trkpt lat="59.0733688138" lon="29.9992626999"><ele>83.29</ele><time>2026-04-25T11:58:05Z</time></trkpt><trkpt lat="59.0733629465" lon="29.9991989974"><ele>83.29</ele><time>2026-04-25T11:58:09Z</time></trkpt><trkpt lat="59.0733585041" lon="29.9991573393"><ele>83.29</ele><time>2026-04-25T11:58:11Z</time></trkpt><trkpt lat="59.0733735077" lon="29.9990995880"><ele>84.25</ele><time>2026-04-25T11:58:26Z</time></trkpt><trkpt lat="59.0733669698" lon="29.9990992527"><ele>84.25</ele><time>2026-04-25T11:58:41Z</time></trkpt><trkpt lat="59.0733704902" lon="29.9990922119"><ele>84.25</ele><time>2026-04-25T11:58:48Z</time></trkpt><trkpt lat="59.0733737592" lon="29.9991163518"><ele>84.25</ele><time>2026-04-25T11:59:04Z</time></trkpt><trkpt lat="59.0733728372" lon="29.9991202913"><ele>84.25</ele><time>2026-04-25T11:59:30Z</time></trkpt><trkpt lat="59.0733714961" lon="29.9991195370"><ele>84.25</ele><time>2026-04-25T11:59:33Z</time></trkpt><trkpt lat="59.0733591747" lon="29.9990942236"><ele>84.25</ele><time>2026-04-25T11:59:37Z</time></trkpt><trkpt lat="59.0733533073" lon="29.9991068803"><ele>84.25</ele><time>2026-04-25T11:59:39Z</time></trkpt><trkpt lat="59.0733055305" lon="29.9991298467"><ele>84.25</ele><time>2026-04-25T11:59:48Z</time></trkpt><trkpt lat="59.0732875932" lon="29.9991113227"><ele>84.25</ele><time>2026-04-25T11:59:50Z</time></trkpt><trkpt lat="59.0731864236" lon="29.9991017673"><ele>84.25</ele><time>2026-04-25T12:00:01Z</time></trkpt><trkpt lat="59.0731615294" lon="29.9991120771"><ele>84.25</ele><time>2026-04-25T12:00:04Z</time></trkpt><trkpt lat="59.0730948094" lon="29.9991428386"><ele>84.73</ele><time>2026-04-25T12:00:11Z</time></trkpt><trkpt lat="59.0730631258" lon="29.9991693255"><ele>84.25</ele><time>2026-04-25T12:00:26Z</time></trkpt><trkpt lat="59.0730379801" lon="29.9991989136"><ele>84.25</ele><time>2026-04-25T12:00:43Z</time></trkpt><trkpt lat="59.0730027761" lon="29.9992151745"><ele>84.25</ele><time>2026-04-25T12:00:47Z</time></trkpt><trkpt lat="59.0729435161" lon="29.9992257357"><ele>84.25</ele><time>2026-04-25T12:00:54Z</time></trkpt><trkpt lat="59.0728581883" lon="29.9992242269"><ele>84.25</ele><time>2026-04-25T12:01:05Z</time></trkpt><trkpt lat="59.0727723576" lon="29.9991684034"><ele>84.25</ele><time>2026-04-25T12:01:16Z</time></trkpt><trkpt lat="59.0727503132" lon="29.9992023502"><ele>84.25</ele><time>2026-04-25T12:01:22Z</time></trkpt><trkpt lat="59.0727310348" lon="29.9992169347"><ele>84.25</ele><time>2026-04-25T12:01:25Z</time></trkpt><trkpt lat="59.0727244131" lon="29.9991862569"><ele>84.25</ele><time>2026-04-25T12:01:36Z</time></trkpt><trkpt lat="59.0727265086" lon="29.9991960637"><ele>84.73</ele><time>2026-04-25T12:01:54Z</time></trkpt><trkpt lat="59.0727253351" lon="29.9991966505"><ele>84.73</ele><time>2026-04-25T12:01:57Z</time></trkpt><trkpt lat="59.0727217309" lon="29.9992032722"><ele>84.73</ele><time>2026-04-25T12:02:12Z</time></trkpt><trkpt lat="59.0727215633" lon="29.9992041942"><ele>84.73</ele><time>2026-04-25T12:02:13Z</time></trkpt><trkpt lat="59.0727369860" lon="29.9992927909"><ele>84.73</ele><time>2026-04-25T12:02:19Z</time></trkpt><trkpt lat="59.0727217309" lon="29.9994345289"><ele>84.73</ele><time>2026-04-25T12:02:31Z</time></trkpt><trkpt lat="59.0727029555" lon="29.9995849840"><ele>84.73</ele><time>2026-04-25T12:02:44Z</time></trkpt><trkpt lat="59.0726928972" lon="29.9996567331"><ele>84.73</ele><time>2026-04-25T12:02:49Z</time></trkpt><trkpt lat="59.0727563482" lon="29.9998109601"><ele>85.21</ele><time>2026-04-25T12:03:01Z</time></trkpt><trkpt lat="59.0727657359" lon="29.9999089446"><ele>85.21</ele><time>2026-04-25T12:03:06Z</time></trkpt><trkpt lat="59.0728158597" lon="30.0000819471"><ele>85.21</ele><time>2026-04-25T12:03:17Z</time></trkpt><trkpt lat="59.0728261694" lon="30.0002458133"><ele>85.21</ele><time>2026-04-25T12:03:26Z</time></trkpt><trkpt lat="59.0728089027" lon="30.0004437100"><ele>85.21</ele><time>2026-04-25T12:03:38Z</time></trkpt><trkpt lat="59.0728058014" lon="30.0004548579"><ele>85.21</ele><time>2026-04-25T12:03:39Z</time></trkpt><trkpt lat="59.0728022810" lon="30.0004913192"><ele>85.21</ele><time>2026-04-25T12:03:41Z</time></trkpt><trkpt lat="59.0728138480" lon="30.0005783234"><ele>84.73</ele><time>2026-04-25T12:03:46Z</time></trkpt><trkpt lat="59.0729076415" lon="30.0007166248"><ele>84.73</ele><time>2026-04-25T12:03:58Z</time></trkpt><trkpt lat="59.0729482099" lon="30.0008213986"><ele>84.73</ele><time>2026-04-25T12:04:05Z</time></trkpt><trkpt lat="59.0729557537" lon="30.0009472948"><ele>84.73</ele><time>2026-04-25T12:04:12Z</time></trkpt><trkpt lat="59.0729481261" lon="30.0009841751"><ele>84.73</ele><time>2026-04-25T12:04:28Z</time></trkpt><trkpt lat="59.0729836654" lon="30.0011985004"><ele>84.73</ele><time>2026-04-25T12:04:42Z</time></trkpt><trkpt lat="59.0730166901" lon="30.0013844948"><ele>84.73</ele><time>2026-04-25T12:04:54Z</time></trkpt><trkpt lat="59.0730146784" lon="30.0013982411"><ele>84.73</ele><time>2026-04-25T12:05:05Z</time></trkpt><trkpt lat="59.0730121639" lon="30.0013922900"><ele>84.73</ele><time>2026-04-25T12:05:28Z</time></trkpt><trkpt lat="59.0730119962" lon="30.0013912003"><ele>84.73</ele><time>2026-04-25T12:05:29Z</time></trkpt><trkpt lat="59.0729166102" lon="30.0014725886"><ele>84.73</ele><time>2026-04-25T12:05:39Z</time></trkpt><trkpt lat="59.0728083160" lon="30.0014807191"><ele>84.73</ele><time>2026-04-25T12:05:51Z</time></trkpt><trkpt lat="59.0727840923" lon="30.0015156716"><ele>84.73</ele><time>2026-04-25T12:05:54Z</time></trkpt><trkpt lat="59.0727564320" lon="30.0015829783"><ele>84.73</ele><time>2026-04-25T12:05:59Z</time></trkpt><trkpt lat="59.0726728644" lon="30.0016332697"><ele>84.73</ele><time>2026-04-25T12:06:10Z</time></trkpt><trkpt lat="59.0725875366" lon="30.0017269794"><ele>84.73</ele><time>2026-04-25T12:06:21Z</time></trkpt><trkpt lat="59.0725462139" lon="30.0017363671"><ele>84.73</ele><time>2026-04-25T12:06:26Z</time></trkpt><trkpt lat="59.0724815894" lon="30.0018605031"><ele>84.73</ele><time>2026-04-25T12:06:37Z</time></trkpt><trkpt lat="59.0724276099" lon="30.0019102078"><ele>84.73</ele><time>2026-04-25T12:06:44Z</time></trkpt><trkpt lat="59.0723879635" lon="30.0019454956"><ele>84.73</ele><time>2026-04-25T12:06:53Z</time></trkpt><trkpt lat="59.0723949205" lon="30.0019483455"><ele>84.73</ele><time>2026-04-25T12:07:18Z</time></trkpt><trkpt lat="59.0723439585" lon="30.0018826313"><ele>84.73</ele><time>2026-04-25T12:07:26Z</time></trkpt><trkpt lat="59.0723137837" lon="30.0018042605"><ele>84.73</ele><time>2026-04-25T12:07:30Z</time></trkpt><trkpt lat="59.0723443776" lon="30.0015371293"><ele>84.73</ele><time>2026-04-25T12:07:43Z</time></trkpt><trkpt lat="59.0723496582" lon="30.0014582556"><ele>84.73</ele><time>2026-04-25T12:07:47Z</time></trkpt><trkpt lat="59.0723225009" lon="30.0012956467"><ele>84.73</ele><time>2026-04-25T12:07:57Z</time></trkpt><trkpt lat="59.0722724609" lon="30.0011107419"><ele>84.73</ele><time>2026-04-25T12:08:08Z</time></trkpt><trkpt lat="59.0722489078" lon="30.0009031221"><ele>84.73</ele><time>2026-04-25T12:08:19Z</time></trkpt><trkpt lat="59.0722478181" lon="30.0008808263"><ele>84.73</ele><time>2026-04-25T12:08:20Z</time></trkpt><trkpt lat="59.0722453035" lon="30.0007934868"><ele>84.73</ele><time>2026-04-25T12:08:25Z</time></trkpt><trkpt lat="59.0722577088" lon="30.0006999448"><ele>84.73</ele><time>2026-04-25T12:08:32Z</time></trkpt><trkpt lat="59.0722525958" lon="30.0005970150"><ele>84.73</ele><time>2026-04-25T12:08:41Z</time></trkpt><trkpt lat="59.0722373407" lon="30.0005514175"><ele>84.73</ele><time>2026-04-25T12:08:44Z</time></trkpt><trkpt lat="59.0722059924" lon="30.0004403573"><ele>84.73</ele><time>2026-04-25T12:08:52Z</time></trkpt><trkpt lat="59.0721686091" lon="30.0003430434"><ele>84.73</ele><time>2026-04-25T12:09:01Z</time></trkpt><trkpt lat="59.0721462294" lon="30.0002527703"><ele>84.73</ele><time>2026-04-25T12:09:07Z</time></trkpt><trkpt lat="59.0721494984" lon="30.0001391955"><ele>84.73</ele><time>2026-04-25T12:09:12Z</time></trkpt><trkpt lat="59.0721358359" lon="30.0000402890"><ele>84.73</ele><time>2026-04-25T12:09:17Z</time></trkpt><trkpt lat="59.0721444692" lon="29.9998773448"><ele>84.73</ele><time>2026-04-25T12:09:29Z</time></trkpt><trkpt lat="59.0721292980" lon="29.9998060986"><ele>84.73</ele><time>2026-04-25T12:09:33Z</time></trkpt><trkpt lat="59.0720748994" lon="29.9997129757"><ele>84.73</ele><time>2026-04-25T12:09:41Z</time></trkpt><trkpt lat="59.0720594767" lon="29.9996612594"><ele>84.73</ele><time>2026-04-25T12:09:49Z</time></trkpt><trkpt lat="59.0720508434" lon="29.9996414781"><ele>84.73</ele><time>2026-04-25T12:10:09Z</time></trkpt><trkpt lat="59.0720406175" lon="29.9996307492"><ele>84.73</ele><time>2026-04-25T12:10:29Z</time></trkpt><trkpt lat="59.0720399469" lon="29.9996625166"><ele>84.73</ele><time>2026-04-25T12:10:50Z</time></trkpt><trkpt lat="59.0720386896" lon="29.9996722396"><ele>84.73</ele><time>2026-04-25T12:10:57Z</time></trkpt><trkpt lat="59.0720219258" lon="29.9996654503"><ele>84.73</ele><time>2026-04-25T12:11:00Z</time></trkpt><trkpt lat="59.0719300602" lon="29.9996678811"><ele>84.73</ele><time>2026-04-25T12:11:11Z</time></trkpt><trkpt lat="59.0718622506" lon="29.9997098744"><ele>84.73</ele><time>2026-04-25T12:11:20Z</time></trkpt><trkpt lat="59.0717374440" lon="29.9997630995"><ele>84.73</ele><time>2026-04-25T12:11:33Z</time></trkpt><trkpt lat="59.0717284754" lon="29.9997679610"><ele>84.73</ele><time>2026-04-25T12:11:34Z</time></trkpt><trkpt lat="59.0717030782" lon="29.9997935258"><ele>84.73</ele><time>2026-04-25T12:11:37Z</time></trkpt><trkpt lat="59.0716001485" lon="29.9997408036"><ele>84.73</ele><time>2026-04-25T12:11:50Z</time></trkpt><trkpt lat="59.0715848096" lon="29.9997374509"><ele>84.73</ele><time>2026-04-25T12:11:52Z</time></trkpt><trkpt lat="59.0715221129" lon="29.9998548813"><ele>84.73</ele><time>2026-04-25T12:12:04Z</time></trkpt><trkpt lat="59.0714787785" lon="29.9999093637"><ele>84.73</ele><time>2026-04-25T12:12:14Z</time></trkpt><trkpt lat="59.0714615118" lon="29.9998919293"><ele>84.73</ele><time>2026-04-25T12:12:21Z</time></trkpt><trkpt lat="59.0714123100" lon="29.9998366926"><ele>84.25</ele><time>2026-04-25T12:12:31Z</time></trkpt><trkpt lat="59.0714050177" lon="29.9998304062"><ele>84.25</ele><time>2026-04-25T12:12:42Z</time></trkpt><trkpt lat="59.0713926125" lon="29.9998235330"><ele>84.25</ele><time>2026-04-25T12:13:02Z</time></trkpt><trkpt lat="59.0713964682" lon="29.9998382851"><ele>84.25</ele><time>2026-04-25T12:13:15Z</time></trkpt><trkpt lat="59.0713911038" lon="29.9999604933"><ele>84.25</ele><time>2026-04-25T12:13:25Z</time></trkpt><trkpt lat="59.0713858232" lon="29.9999878183"><ele>84.25</ele><time>2026-04-25T12:13:27Z</time></trkpt><trkpt lat="59.0713936184" lon="30.0000448991"><ele>84.25</ele><time>2026-04-25T12:13:30Z</time></trkpt><trkpt lat="59.0714070294" lon="30.0000721402"><ele>84.25</ele><time>2026-04-25T12:13:32Z</time></trkpt><trkpt lat="59.0714221168" lon="30.0001690350"><ele>84.25</ele><time>2026-04-25T12:13:42Z</time></trkpt><trkpt lat="59.0714538842" lon="30.0002082624"><ele>84.25</ele><time>2026-04-25T12:13:46Z</time></trkpt><trkpt lat="59.0714955423" lon="30.0003253575"><ele>84.25</ele><time>2026-04-25T12:13:55Z</time></trkpt><trkpt lat="59.0715156589" lon="30.0004995335"><ele>84.25</ele><time>2026-04-25T12:14:06Z</time></trkpt><trkpt lat="59.0715350211" lon="30.0006824266"><ele>84.25</ele><time>2026-04-25T12:14:18Z</time></trkpt><trkpt lat="59.0715603344" lon="30.0008138549"><ele>84.25</ele><time>2026-04-25T12:14:30Z</time></trkpt><trkpt lat="59.0715875756" lon="30.0008928124"><ele>84.25</ele><time>2026-04-25T12:14:40Z</time></trkpt><trkpt lat="59.0715920180" lon="30.0009479653"><ele>84.25</ele><time>2026-04-25T12:14:49Z</time></trkpt><trkpt lat="59.0715863183" lon="30.0011015218"><ele>84.25</ele><time>2026-04-25T12:14:57Z</time></trkpt><trkpt lat="59.0716294851" lon="30.0012729317"><ele>84.25</ele><time>2026-04-25T12:15:08Z</time></trkpt><trkpt lat="59.0716279764" lon="30.0014123227"><ele>84.73</ele><time>2026-04-25T12:15:20Z</time></trkpt><trkpt lat="59.0716514457" lon="30.0015123188"><ele>84.73</ele><time>2026-04-25T12:15:37Z</time></trkpt><trkpt lat="59.0716541279" lon="30.0015491992"><ele>84.73</ele><time>2026-04-25T12:15:39Z</time></trkpt><trkpt lat="59.0716585703" lon="30.0016064476"><ele>84.73</ele><time>2026-04-25T12:15:43Z</time></trkpt><trkpt lat="59.0716879908" lon="30.0017424021"><ele>84.73</ele><time>2026-04-25T12:15:51Z</time></trkpt><trkpt lat="59.0717457421" lon="30.0019141473"><ele>84.73</ele><time>2026-04-25T12:16:01Z</time></trkpt><trkpt lat="59.0717335045" lon="30.0022038259"><ele>84.73</ele><time>2026-04-25T12:16:16Z</time></trkpt><trkpt lat="59.0717327502" lon="30.0022904947"><ele>84.73</ele><time>2026-04-25T12:16:21Z</time></trkpt><trkpt lat="59.0717273857" lon="30.0023229327"><ele>84.73</ele><time>2026-04-25T12:16:32Z</time></trkpt><trkpt lat="59.0717526991" lon="30.0023166463"><ele>84.73</ele><time>2026-04-25T12:16:55Z</time></trkpt><trkpt lat="59.0717185847" lon="30.0023278780"><ele>84.73</ele><time>2026-04-25T12:17:09Z</time></trkpt><trkpt lat="59.0717088617" lon="30.0023454800"><ele>84.73</ele><time>2026-04-25T12:17:23Z</time></trkpt><trkpt lat="59.0716687124" lon="30.0023802649"><ele>84.73</ele><time>2026-04-25T12:17:33Z</time></trkpt><trkpt lat="59.0715841390" lon="30.0023951009"><ele>84.73</ele><time>2026-04-25T12:17:44Z</time></trkpt><trkpt lat="59.0715062711" lon="30.0024540257"><ele>84.73</ele><time>2026-04-25T12:17:52Z</time></trkpt><trkpt lat="59.0713877510" lon="30.0024844520"><ele>84.73</ele><time>2026-04-25T12:18:03Z</time></trkpt><trkpt lat="59.0713237133" lon="30.0025212485"><ele>83.77</ele><time>2026-04-25T12:18:10Z</time></trkpt><trkpt lat="59.0713040158" lon="30.0025465619"><ele>83.77</ele><time>2026-04-25T12:18:12Z</time></trkpt><trkpt lat="59.0711894352" lon="30.0026089232"><ele>83.77</ele><time>2026-04-25T12:18:22Z</time></trkpt><trkpt lat="59.0711303428" lon="30.0026478153"><ele>83.77</ele><time>2026-04-25T12:18:29Z</time></trkpt><trkpt lat="59.0710922051" lon="30.0026493240"><ele>83.77</ele><time>2026-04-25T12:18:41Z</time></trkpt><trkpt lat="59.0710963961" lon="30.0026760623"><ele>83.77</ele><time>2026-04-25T12:18:55Z</time></trkpt><trkpt lat="59.0710974019" lon="30.0026867073"><ele>83.77</ele><time>2026-04-25T12:19:15Z</time></trkpt><trkpt lat="59.0711011738" lon="30.0027140323"><ele>83.77</ele><time>2026-04-25T12:19:43Z</time></trkpt><trkpt lat="59.0711048618" lon="30.0027106795"><ele>83.77</ele><time>2026-04-25T12:19:59Z</time></trkpt><trkpt lat="59.0711091366" lon="30.0027048122"><ele>83.77</ele><time>2026-04-25T12:20:09Z</time></trkpt><trkpt lat="59.0711146686" lon="30.0026925746"><ele>83.77</ele><time>2026-04-25T12:20:31Z</time></trkpt><trkpt lat="59.0711192787" lon="30.0026758946"><ele>84.73</ele><time>2026-04-25T12:20:49Z</time></trkpt><trkpt lat="59.0710585099" lon="30.0025886390"><ele>84.73</ele><time>2026-04-25T12:21:01Z</time></trkpt><trkpt lat="59.0710575879" lon="30.0024848711"><ele>84.73</ele><time>2026-04-25T12:21:08Z</time></trkpt><trkpt lat="59.0710134991" lon="30.0023106951"><ele>84.73</ele><time>2026-04-25T12:21:19Z</time></trkpt><trkpt lat="59.0709970705" lon="30.0021576416"><ele>84.73</ele><time>2026-04-25T12:21:27Z</time></trkpt><trkpt lat="59.0710088890" lon="30.0019808672"><ele>84.73</ele><time>2026-04-25T12:21:39Z</time></trkpt><trkpt lat="59.0710195340" lon="30.0018929411"><ele>84.73</ele><time>2026-04-25T12:21:45Z</time></trkpt><trkpt lat="59.0709624533" lon="30.0017181784"><ele>84.73</ele><time>2026-04-25T12:21:57Z</time></trkpt><trkpt lat="59.0709679853" lon="30.0016745925"><ele>84.73</ele><time>2026-04-25T12:21:59Z</time></trkpt><trkpt lat="59.0709668957" lon="30.0016325992"><ele>84.73</ele><time>2026-04-25T12:22:01Z</time></trkpt><trkpt lat="59.0709460247" lon="30.0014532264"><ele>84.73</ele><time>2026-04-25T12:22:11Z</time></trkpt><trkpt lat="59.0709247347" lon="30.0013860036"><ele>84.73</ele><time>2026-04-25T12:22:16Z</time></trkpt><trkpt lat="59.0709139220" lon="30.0013212953"><ele>84.73</ele><time>2026-04-25T12:22:20Z</time></trkpt><trkpt lat="59.0709262434" lon="30.0012352969"><ele>84.73</ele><time>2026-04-25T12:22:31Z</time></trkpt><trkpt lat="59.0709326975" lon="30.0012609456"><ele>84.73</ele><time>2026-04-25T12:22:51Z</time></trkpt><trkpt lat="59.0709229745" lon="30.0012598559"><ele>84.73</ele><time>2026-04-25T12:23:11Z</time></trkpt><trkpt lat="59.0709082223" lon="30.0012485404"><ele>85.21</ele><time>2026-04-25T12:23:39Z</time></trkpt><trkpt lat="59.0709092282" lon="30.0012379792"><ele>85.21</ele><time>2026-04-25T12:23:44Z</time></trkpt><trkpt lat="59.0708902013" lon="30.0010783877"><ele>85.21</ele><time>2026-04-25T12:23:53Z</time></trkpt><trkpt lat="59.0708493814" lon="30.0009433553"><ele>85.21</ele><time>2026-04-25T12:24:02Z</time></trkpt><trkpt lat="59.0708565898" lon="30.0008483045"><ele>85.21</ele><time>2026-04-25T12:24:11Z</time></trkpt><trkpt lat="59.0708367247" lon="30.0007785670"><ele>85.21</ele><time>2026-04-25T12:24:21Z</time></trkpt><trkpt lat="59.0708183683" lon="30.0007263478"><ele>85.21</ele><time>2026-04-25T12:24:34Z</time></trkpt><trkpt lat="59.0708067175" lon="30.0007279404"><ele>85.21</ele><time>2026-04-25T12:24:38Z</time></trkpt><trkpt lat="59.0707817394" lon="30.0007384177"><ele>85.21</ele><time>2026-04-25T12:24:41Z</time></trkpt><trkpt lat="59.0708138421" lon="30.0006169640"><ele>85.21</ele><time>2026-04-25T12:24:50Z</time></trkpt><trkpt lat="59.0708102379" lon="30.0005867053"><ele>85.21</ele><time>2026-04-25T12:24:55Z</time></trkpt><trkpt lat="59.0708062146" lon="30.0005033053"><ele>85.21</ele><time>2026-04-25T12:25:01Z</time></trkpt><trkpt lat="59.0707403328" lon="30.0004496612"><ele>85.21</ele><time>2026-04-25T12:25:13Z</time></trkpt><trkpt lat="59.0707176179" lon="30.0003820192"><ele>85.21</ele><time>2026-04-25T12:25:25Z</time></trkpt><trkpt lat="59.0706960764" lon="30.0001628324"><ele>85.21</ele><time>2026-04-25T12:25:38Z</time></trkpt><trkpt lat="59.0706837550" lon="30.0001339149"><ele>85.69</ele><time>2026-04-25T12:25:49Z</time></trkpt><trkpt lat="59.0706798993" lon="30.0001247786"><ele>86.18</ele><time>2026-04-25T12:26:09Z</time></trkpt><trkpt lat="59.0705725271" lon="30.0001599826"><ele>86.18</ele><time>2026-04-25T12:26:20Z</time></trkpt><trkpt lat="59.0705140214" lon="30.0002371799"><ele>86.18</ele><time>2026-04-25T12:26:28Z</time></trkpt><trkpt lat="59.0704222396" lon="30.0002878904"><ele>84.73</ele><time>2026-04-25T12:26:39Z</time></trkpt><trkpt lat="59.0703561064" lon="30.0002955180"><ele>84.73</ele><time>2026-04-25T12:26:49Z</time></trkpt><trkpt lat="59.0702655818" lon="30.0003128685"><ele>84.73</ele><time>2026-04-25T12:27:01Z</time></trkpt><trkpt lat="59.0702276956" lon="30.0003704522"><ele>84.73</ele><time>2026-04-25T12:27:16Z</time></trkpt><trkpt lat="59.0702028852" lon="30.0004356634"><ele>84.73</ele><time>2026-04-25T12:27:35Z</time></trkpt><trkpt lat="59.0702072438" lon="30.0006300397"><ele>84.73</ele><time>2026-04-25T12:27:45Z</time></trkpt><trkpt lat="59.0702066571" lon="30.0006448757"><ele>84.73</ele><time>2026-04-25T12:27:46Z</time></trkpt><trkpt lat="59.0702267736" lon="30.0007105898"><ele>84.25</ele><time>2026-04-25T12:27:59Z</time></trkpt><trkpt lat="59.0702017955" lon="30.0007890444"><ele>84.25</ele><time>2026-04-25T12:28:13Z</time></trkpt><trkpt lat="59.0701743029" lon="30.0008674990"><ele>84.25</ele><time>2026-04-25T12:28:25Z</time></trkpt><trkpt lat="59.0701312199" lon="30.0008945726"><ele>84.25</ele><time>2026-04-25T12:28:36Z</time></trkpt><trkpt lat="59.0701317228" lon="30.0009633880"><ele>84.25</ele><time>2026-04-25T12:28:48Z</time></trkpt><trkpt lat="59.0701553598" lon="30.0010367297"><ele>84.25</ele><time>2026-04-25T12:28:53Z</time></trkpt><trkpt lat="59.0702011250" lon="30.0011936389"><ele>83.77</ele><time>2026-04-25T12:29:03Z</time></trkpt><trkpt lat="59.0702694375" lon="30.0012487918"><ele>83.77</ele><time>2026-04-25T12:29:11Z</time></trkpt><trkpt lat="59.0703354031" lon="30.0013238937"><ele>83.77</ele><time>2026-04-25T12:29:20Z</time></trkpt><trkpt lat="59.0704202279" lon="30.0014809705"><ele>83.77</ele><time>2026-04-25T12:29:33Z</time></trkpt><trkpt lat="59.0704287775" lon="30.0015132409"><ele>83.77</ele><time>2026-04-25T12:29:35Z</time></trkpt><trkpt lat="59.0704496484" lon="30.0015340280"><ele>83.77</ele><time>2026-04-25T12:29:37Z</time></trkpt><trkpt lat="59.0704809129" lon="30.0016728323"><ele>83.77</ele><time>2026-04-25T12:29:46Z</time></trkpt><trkpt lat="59.0704654902" lon="30.0017508678"><ele>83.77</ele><time>2026-04-25T12:29:50Z</time></trkpt><trkpt lat="59.0705153625" lon="30.0019646063"><ele>83.77</ele><time>2026-04-25T12:30:03Z</time></trkpt><trkpt lat="59.0705001075" lon="30.0021060929"><ele>83.77</ele><time>2026-04-25T12:30:15Z</time></trkpt><trkpt lat="59.0705177933" lon="30.0021865591"><ele>83.77</ele><time>2026-04-25T12:30:28Z</time></trkpt><trkpt lat="59.0705114231" lon="30.0022439752"><ele>83.29</ele><time>2026-04-25T12:30:44Z</time></trkpt><trkpt lat="59.0704809129" lon="30.0024478231"><ele>84.25</ele><time>2026-04-25T12:30:56Z</time></trkpt><trkpt lat="59.0704557672" lon="30.0026941672"><ele>84.25</ele><time>2026-04-25T12:31:12Z</time></trkpt><trkpt lat="59.0704279393" lon="30.0027632341"><ele>83.77</ele><time>2026-04-25T12:31:40Z</time></trkpt><trkpt lat="59.0704298671" lon="30.0027910620"><ele>83.77</ele><time>2026-04-25T12:32:02Z</time></trkpt><trkpt lat="59.0704277717" lon="30.0027943309"><ele>83.77</ele><time>2026-04-25T12:32:06Z</time></trkpt><trkpt lat="59.0704427753" lon="30.0028078258"><ele>83.77</ele><time>2026-04-25T12:32:09Z</time></trkpt><trkpt lat="59.0704836790" lon="30.0028911419"><ele>83.77</ele><time>2026-04-25T12:32:15Z</time></trkpt><trkpt lat="59.0705192182" lon="30.0029483903"><ele>84.25</ele><time>2026-04-25T12:32:30Z</time></trkpt><trkpt lat="59.0705477167" lon="30.0029550958"><ele>84.25</ele><time>2026-04-25T12:32:38Z</time></trkpt><trkpt lat="59.0705764666" lon="30.0029561017"><ele>84.25</ele><time>2026-04-25T12:32:43Z</time></trkpt><trkpt lat="59.0706866048" lon="30.0029027089"><ele>84.25</ele><time>2026-04-25T12:32:56Z</time></trkpt><trkpt lat="59.0706969984" lon="30.0028940756"><ele>83.77</ele><time>2026-04-25T12:32:57Z</time></trkpt><trkpt lat="59.0707971621" lon="30.0028523337"><ele>83.77</ele><time>2026-04-25T12:33:09Z</time></trkpt><trkpt lat="59.0708814841" lon="30.0028091669"><ele>83.77</ele><time>2026-04-25T12:33:20Z</time></trkpt><trkpt lat="59.0709162690" lon="30.0027775671"><ele>83.77</ele><time>2026-04-25T12:33:25Z</time></trkpt><trkpt lat="59.0710260719" lon="30.0027139485"><ele>84.25</ele><time>2026-04-25T12:33:35Z</time></trkpt><trkpt lat="59.0711172670" lon="30.0026774872"><ele>84.25</ele><time>2026-04-25T12:33:47Z</time></trkpt><trkpt lat="59.0711295046" lon="30.0026766490"><ele>84.25</ele><time>2026-04-25T12:33:48Z</time></trkpt><trkpt lat="59.0712190233" lon="30.0026187301"><ele>84.73</ele><time>2026-04-25T12:34:00Z</time></trkpt><trkpt lat="59.0712753497" lon="30.0026014633"><ele>84.73</ele><time>2026-04-25T12:34:13Z</time></trkpt><trkpt lat="59.0713719930" lon="30.0025332347"><ele>84.73</ele><time>2026-04-25T12:34:25Z</time></trkpt><trkpt lat="59.0714496933" lon="30.0024328195"><ele>84.73</ele><time>2026-04-25T12:34:35Z</time></trkpt><trkpt lat="59.0715625975" lon="30.0023063365"><ele>84.73</ele><time>2026-04-25T12:34:49Z</time></trkpt><trkpt lat="59.0716741607" lon="30.0021923427"><ele>84.25</ele><time>2026-04-25T12:35:02Z</time></trkpt><trkpt lat="59.0716818720" lon="30.0021574739"><ele>84.73</ele><time>2026-04-25T12:35:16Z</time></trkpt><trkpt lat="59.0716822911" lon="30.0020904187"><ele>84.73</ele><time>2026-04-25T12:35:20Z</time></trkpt><trkpt lat="59.0716920979" lon="30.0020618364"><ele>84.73</ele><time>2026-04-25T12:35:22Z</time></trkpt><trkpt lat="59.0716998931" lon="30.0017869100"><ele>84.73</ele><time>2026-04-25T12:35:35Z</time></trkpt><trkpt lat="59.0716993064" lon="30.0017187651"><ele>84.73</ele><time>2026-04-25T12:35:38Z</time></trkpt><trkpt lat="59.0717008989" lon="30.0016768556"><ele>84.73</ele><time>2026-04-25T12:35:40Z</time></trkpt><trkpt lat="59.0717078559" lon="30.0015473552"><ele>84.73</ele><time>2026-04-25T12:35:45Z</time></trkpt><trkpt lat="59.0717082750" lon="30.0014225487"><ele>84.73</ele><time>2026-04-25T12:35:50Z</time></trkpt><trkpt lat="59.0717207640" lon="30.0012863427"><ele>84.73</ele><time>2026-04-25T12:35:57Z</time></trkpt><trkpt lat="59.0717529505" lon="30.0011267513"><ele>84.73</ele><time>2026-04-25T12:36:06Z</time></trkpt><trkpt lat="59.0717607457" lon="30.0010669045"><ele>84.73</ele><time>2026-04-25T12:36:09Z</time></trkpt><trkpt lat="59.0717666131" lon="30.0009785593"><ele>84.73</ele><time>2026-04-25T12:36:13Z</time></trkpt><trkpt lat="59.0717948601" lon="30.0008454546"><ele>84.73</ele><time>2026-04-25T12:36:20Z</time></trkpt><trkpt lat="59.0718221013" lon="30.0007345621"><ele>84.73</ele><time>2026-04-25T12:36:25Z</time></trkpt><trkpt lat="59.0718270466" lon="30.0006040558"><ele>84.73</ele><time>2026-04-25T12:36:32Z</time></trkpt><trkpt lat="59.0718326624" lon="30.0005535968"><ele>84.73</ele><time>2026-04-25T12:36:35Z</time></trkpt><trkpt lat="59.0718244482" lon="30.0004618987"><ele>84.73</ele><time>2026-04-25T12:36:39Z</time></trkpt><trkpt lat="59.0718300641" lon="30.0003697816"><ele>84.73</ele><time>2026-04-25T12:36:44Z</time></trkpt><trkpt lat="59.0718121268" lon="30.0001106970"><ele>84.25</ele><time>2026-04-25T12:36:57Z</time></trkpt><trkpt lat="59.0718007274" lon="29.9999671150"><ele>84.25</ele><time>2026-04-25T12:37:03Z</time></trkpt><trkpt lat="59.0717414673" lon="29.9997345172"><ele>84.25</ele><time>2026-04-25T12:37:16Z</time></trkpt><trkpt lat="59.0716708079" lon="29.9994885921"><ele>84.25</ele><time>2026-04-25T12:37:29Z</time></trkpt><trkpt lat="59.0716506075" lon="29.9993844051"><ele>84.25</ele><time>2026-04-25T12:37:34Z</time></trkpt><trkpt lat="59.0715854801" lon="29.9991139211"><ele>84.25</ele><time>2026-04-25T12:37:46Z</time></trkpt><trkpt lat="59.0715448279" lon="29.9988703430"><ele>84.25</ele><time>2026-04-25T12:37:58Z</time></trkpt><trkpt lat="59.0715287346" lon="29.9988260865"><ele>84.25</ele><time>2026-04-25T12:38:00Z</time></trkpt><trkpt lat="59.0714443289" lon="29.9985017907"><ele>84.25</ele><time>2026-04-25T12:38:14Z</time></trkpt><trkpt lat="59.0714243799" lon="29.9983958434"><ele>84.25</ele><time>2026-04-25T12:38:26Z</time></trkpt><trkpt lat="59.0714208595" lon="29.9984175526"><ele>84.25</ele><time>2026-04-25T12:38:45Z</time></trkpt><trkpt lat="59.0714230388" lon="29.9984279461"><ele>84.25</ele><time>2026-04-25T12:39:03Z</time></trkpt><trkpt lat="59.0714225359" lon="29.9984338973"><ele>84.25</ele><time>2026-04-25T12:39:24Z</time></trkpt><trkpt lat="59.0714221168" lon="29.9984478951"><ele>83.77</ele><time>2026-04-25T12:39:43Z</time></trkpt><trkpt lat="59.0714199375" lon="29.9984501582"><ele>83.77</ele><time>2026-04-25T12:40:00Z</time></trkpt><trkpt lat="59.0714165848" lon="29.9984490685"><ele>83.77</ele><time>2026-04-25T12:40:24Z</time></trkpt><trkpt lat="59.0714211948" lon="29.9984561931"><ele>83.77</ele><time>2026-04-25T12:40:46Z</time></trkpt><trkpt lat="59.0714216977" lon="29.9984596297"><ele>83.77</ele><time>2026-04-25T12:41:11Z</time></trkpt><trkpt lat="59.0714230388" lon="29.9984511640"><ele>83.77</ele><time>2026-04-25T12:41:35Z</time></trkpt><trkpt lat="59.0714242123" lon="29.9984496552"><ele>83.77</ele><time>2026-04-25T12:41:58Z</time></trkpt><trkpt lat="59.0714222845" lon="29.9984504934"><ele>83.77</ele><time>2026-04-25T12:42:24Z</time></trkpt><trkpt lat="59.0714225359" lon="29.9984509964"><ele>83.77</ele><time>2026-04-25T12:42:48Z</time></trkpt><trkpt lat="59.0714227874" lon="29.9984513316"><ele>83.77</ele><time>2026-04-25T12:43:17Z</time></trkpt><trkpt lat="59.0713948756" lon="29.9984921515"><ele>83.77</ele><time>2026-04-25T12:43:41Z</time></trkpt><trkpt lat="59.0714079514" lon="29.9984882120"><ele>83.77</ele><time>2026-04-25T12:44:05Z</time></trkpt><trkpt lat="59.0714156628" lon="29.9984783214"><ele>83.77</ele><time>2026-04-25T12:44:31Z</time></trkpt><trkpt lat="59.0714148246" lon="29.9984794110"><ele>83.77</ele><time>2026-04-25T12:44:58Z</time></trkpt><trkpt lat="59.0714227874" lon="29.9984685984"><ele>83.77</ele><time>2026-04-25T12:45:26Z</time></trkpt><trkpt lat="59.0714343544" lon="29.9984568637"><ele>83.77</ele><time>2026-04-25T12:45:53Z</time></trkpt><trkpt lat="59.0714330971" lon="29.9984546006"><ele>83.77</ele><time>2026-04-25T12:46:21Z</time></trkpt><trkpt lat="59.0714314207" lon="29.9984587077"><ele>83.77</ele><time>2026-04-25T12:46:53Z</time></trkpt><trkpt lat="59.0714403056" lon="29.9984529242"><ele>84.25</ele><time>2026-04-25T12:47:16Z</time></trkpt><trkpt lat="59.0714404732" lon="29.9984456319"><ele>84.25</ele><time>2026-04-25T12:47:30Z</time></trkpt><trkpt lat="59.0714366175" lon="29.9984276108"><ele>84.25</ele><time>2026-04-25T12:47:50Z</time></trkpt><trkpt lat="59.0714364499" lon="29.9984236713"><ele>83.77</ele><time>2026-04-25T12:48:07Z</time></trkpt><trkpt lat="59.0714350250" lon="29.9983943347"><ele>83.77</ele><time>2026-04-25T12:48:21Z</time></trkpt><trkpt lat="59.0714258887" lon="29.9983763974"><ele>83.77</ele><time>2026-04-25T12:48:34Z</time></trkpt><trkpt lat="59.0714255534" lon="29.9982063286"><ele>83.77</ele><time>2026-04-25T12:48:43Z</time></trkpt><trkpt lat="59.0713574085" lon="29.9979027361"><ele>83.77</ele><time>2026-04-25T12:48:57Z</time></trkpt><trkpt lat="59.0712816361" lon="29.9976392929"><ele>83.77</ele><time>2026-04-25T12:49:10Z</time></trkpt><trkpt lat="59.0712633636" lon="29.9975579046"><ele>84.25</ele><time>2026-04-25T12:49:22Z</time></trkpt><trkpt lat="59.0712715778" lon="29.9975765962"><ele>84.25</ele><time>2026-04-25T12:49:37Z</time></trkpt><trkpt lat="59.0712577477" lon="29.9975339323"><ele>84.25</ele><time>2026-04-25T12:49:49Z</time></trkpt><trkpt lat="59.0712170117" lon="29.9973147456"><ele>84.25</ele><time>2026-04-25T12:49:59Z</time></trkpt><trkpt lat="59.0712134074" lon="29.9972714949"><ele>84.73</ele><time>2026-04-25T12:50:01Z</time></trkpt><trkpt lat="59.0711676423" lon="29.9970352091"><ele>84.25</ele><time>2026-04-25T12:50:12Z</time></trkpt><trkpt lat="59.0711590927" lon="29.9969281722"><ele>84.25</ele><time>2026-04-25T12:50:17Z</time></trkpt><trkpt lat="59.0711398143" lon="29.9968218897"><ele>84.25</ele><time>2026-04-25T12:50:22Z</time></trkpt><trkpt lat="59.0711222962" lon="29.9966757093"><ele>84.25</ele><time>2026-04-25T12:50:30Z</time></trkpt><trkpt lat="59.0710818116" lon="29.9964775611"><ele>84.25</ele><time>2026-04-25T12:50:39Z</time></trkpt><trkpt lat="59.0710778721" lon="29.9964208156"><ele>84.25</ele><time>2026-04-25T12:50:41Z</time></trkpt><trkpt lat="59.0710361302" lon="29.9962489866"><ele>84.25</ele><time>2026-04-25T12:50:50Z</time></trkpt><trkpt lat="59.0710004233" lon="29.9960222561"><ele>84.25</ele><time>2026-04-25T12:50:59Z</time></trkpt><trkpt lat="59.0709944721" lon="29.9959738087"><ele>85.21</ele><time>2026-04-25T12:51:01Z</time></trkpt><trkpt lat="59.0709860902" lon="29.9958558753"><ele>85.21</ele><time>2026-04-25T12:51:08Z</time></trkpt><trkpt lat="59.0709814802" lon="29.9958150554"><ele>85.21</ele><time>2026-04-25T12:51:10Z</time></trkpt><trkpt lat="59.0709502157" lon="29.9957279675"><ele>85.21</ele><time>2026-04-25T12:51:14Z</time></trkpt><trkpt lat="59.0709417500" lon="29.9955720641"><ele>85.21</ele><time>2026-04-25T12:51:21Z</time></trkpt><trkpt lat="59.0709574241" lon="29.9953341018"><ele>85.21</ele><time>2026-04-25T12:51:34Z</time></trkpt><trkpt lat="59.0709999204" lon="29.9951634463"><ele>85.21</ele><time>2026-04-25T12:51:46Z</time></trkpt><trkpt lat="59.0710145049" lon="29.9951388873"><ele>85.21</ele><time>2026-04-25T12:51:48Z</time></trkpt><trkpt lat="59.0711098071" lon="29.9950379692"><ele>84.73</ele><time>2026-04-25T12:52:02Z</time></trkpt><trkpt lat="59.0711870044" lon="29.9950108957"><ele>84.73</ele><time>2026-04-25T12:52:13Z</time></trkpt><trkpt lat="59.0713009145" lon="29.9948998354"><ele>84.73</ele><time>2026-04-25T12:52:24Z</time></trkpt><trkpt lat="59.0713801235" lon="29.9948395696"><ele>84.73</ele><time>2026-04-25T12:52:29Z</time></trkpt><trkpt lat="59.0714738332" lon="29.9947657250"><ele>84.73</ele><time>2026-04-25T12:52:39Z</time></trkpt><trkpt lat="59.0715579037" lon="29.9946809001"><ele>83.77</ele><time>2026-04-25T12:52:46Z</time></trkpt><trkpt lat="59.0716459975" lon="29.9945654813"><ele>83.29</ele><time>2026-04-25T12:52:56Z</time></trkpt><trkpt lat="59.0717083588" lon="29.9945229013"><ele>83.29</ele><time>2026-04-25T12:53:02Z</time></trkpt><trkpt lat="59.0717649367" lon="29.9944864400"><ele>83.29</ele><time>2026-04-25T12:53:17Z</time></trkpt><trkpt lat="59.0718629211" lon="29.9945167825"><ele>83.29</ele><time>2026-04-25T12:53:25Z</time></trkpt><trkpt lat="59.0719459020" lon="29.9945366476"><ele>82.81</ele><time>2026-04-25T12:53:35Z</time></trkpt><trkpt lat="59.0720842034" lon="29.9945389945"><ele>82.33</ele><time>2026-04-25T12:53:48Z</time></trkpt><trkpt lat="59.0721746441" lon="29.9945696723"><ele>82.33</ele><time>2026-04-25T12:53:59Z</time></trkpt><trkpt lat="59.0723248478" lon="29.9946271721"><ele>82.81</ele><time>2026-04-25T12:54:11Z</time></trkpt><trkpt lat="59.0724056493" lon="29.9946845043"><ele>82.33</ele><time>2026-04-25T12:54:20Z</time></trkpt><trkpt lat="59.0724344831" lon="29.9947168585"><ele>82.33</ele><time>2026-04-25T12:54:33Z</time></trkpt><trkpt lat="59.0724484809" lon="29.9947346281"><ele>82.33</ele><time>2026-04-25T12:54:55Z</time></trkpt><trkpt lat="59.0724979341" lon="29.9947649706"><ele>82.33</ele><time>2026-04-25T12:55:05Z</time></trkpt><trkpt lat="59.0726509877" lon="29.9948194530"><ele>82.33</ele><time>2026-04-25T12:55:17Z</time></trkpt><trkpt lat="59.0727541689" lon="29.9947733525"><ele>82.33</ele><time>2026-04-25T12:55:26Z</time></trkpt><trkpt lat="59.0728686657" lon="29.9946860131"><ele>81.85</ele><time>2026-04-25T12:55:36Z</time></trkpt><trkpt lat="59.0729363076" lon="29.9946266692"><ele>81.85</ele><time>2026-04-25T12:55:47Z</time></trkpt><trkpt lat="59.0730121639" lon="29.9946066365"><ele>83.29</ele><time>2026-04-25T12:55:57Z</time></trkpt><trkpt lat="59.0730775427" lon="29.9945670739"><ele>82.81</ele><time>2026-04-25T12:56:09Z</time></trkpt><trkpt lat="59.0731228888" lon="29.9945985060"><ele>82.81</ele><time>2026-04-25T12:56:19Z</time></trkpt><trkpt lat="59.0731923748" lon="29.9945962429"><ele>83.29</ele><time>2026-04-25T12:56:25Z</time></trkpt><trkpt lat="59.0732327756" lon="29.9946077261"><ele>83.29</ele><time>2026-04-25T12:56:28Z</time></trkpt><trkpt lat="59.0733814705" lon="29.9945446942"><ele>82.81</ele><time>2026-04-25T12:56:41Z</time></trkpt><trkpt lat="59.0734363720" lon="29.9945441913"><ele>83.29</ele><time>2026-04-25T12:56:51Z</time></trkpt><trkpt lat="59.0735740867" lon="29.9944668263"><ele>83.29</ele><time>2026-04-25T12:57:00Z</time></trkpt><trkpt lat="59.0736941993" lon="29.9944163673"><ele>83.29</ele><time>2026-04-25T12:57:12Z</time></trkpt><trkpt lat="59.0738293156" lon="29.9943522457"><ele>83.77</ele><time>2026-04-25T12:57:23Z</time></trkpt><trkpt lat="59.0738621727" lon="29.9943584483"><ele>83.77</ele><time>2026-04-25T12:57:27Z</time></trkpt><trkpt lat="59.0739038307" lon="29.9943429418"><ele>84.25</ele><time>2026-04-25T12:57:32Z</time></trkpt><trkpt lat="59.0740380250" lon="29.9943490606"><ele>84.25</ele><time>2026-04-25T12:57:44Z</time></trkpt><trkpt lat="59.0741681121" lon="29.9943648186"><ele>84.25</ele><time>2026-04-25T12:57:55Z</time></trkpt><trkpt lat="59.0741842054" lon="29.9943673331"><ele>84.25</ele><time>2026-04-25T12:57:59Z</time></trkpt><trkpt lat="59.0742564574" lon="29.9944058061"><ele>84.25</ele><time>2026-04-25T12:58:06Z</time></trkpt><trkpt lat="59.0743142925" lon="29.9944470450"><ele>84.25</ele><time>2026-04-25T12:58:13Z</time></trkpt><trkpt lat="59.0744910669" lon="29.9944768846"><ele>83.77</ele><time>2026-04-25T12:58:24Z</time></trkpt><trkpt lat="59.0745731257" lon="29.9945295230"><ele>83.77</ele><time>2026-04-25T12:58:32Z</time></trkpt><trkpt lat="59.0747218207" lon="29.9945255835"><ele>83.77</ele><time>2026-04-25T12:58:40Z</time></trkpt><trkpt lat="59.0747537557" lon="29.9945325404"><ele>83.77</ele><time>2026-04-25T12:58:43Z</time></trkpt><trkpt lat="59.0748696774" lon="29.9945549201"><ele>82.81</ele><time>2026-04-25T12:58:57Z</time></trkpt><trkpt lat="59.0749152750" lon="29.9944892898"><ele>82.81</ele><time>2026-04-25T12:59:10Z</time></trkpt><trkpt lat="59.0749353077" lon="29.9944621325"><ele>82.81</ele><time>2026-04-25T12:59:20Z</time></trkpt><trkpt lat="59.0749877784" lon="29.9943014514"><ele>82.81</ele><time>2026-04-25T12:59:33Z</time></trkpt><trkpt lat="59.0749893710" lon="29.9940727092"><ele>82.81</ele><time>2026-04-25T12:59:46Z</time></trkpt><trkpt lat="59.0750492178" lon="29.9939328991"><ele>82.33</ele><time>2026-04-25T12:59:56Z</time></trkpt><trkpt lat="59.0750804823" lon="29.9938238505"><ele>82.33</ele><time>2026-04-25T13:00:07Z</time></trkpt><trkpt lat="59.0751048736" lon="29.9939008802"><ele>82.33</ele><time>2026-04-25T13:00:16Z</time></trkpt><trkpt lat="59.0751503035" lon="29.9937972799"><ele>82.33</ele><time>2026-04-25T13:00:27Z</time></trkpt><trkpt lat="59.0751839988" lon="29.9936504290"><ele>82.33</ele><time>2026-04-25T13:00:37Z</time></trkpt><trkpt lat="59.0751935542" lon="29.9935619999"><ele>82.33</ele><time>2026-04-25T13:00:45Z</time></trkpt><trkpt lat="59.0752033610" lon="29.9933594093"><ele>82.33</ele><time>2026-04-25T13:00:56Z</time></trkpt><trkpt lat="59.0752054565" lon="29.9933555536"><ele>82.33</ele><time>2026-04-25T13:00:57Z</time></trkpt><trkpt lat="59.0752249025" lon="29.9933193438"><ele>82.33</ele><time>2026-04-25T13:01:01Z</time></trkpt><trkpt lat="59.0752558317" lon="29.9932030868"><ele>82.33</ele><time>2026-04-25T13:01:07Z</time></trkpt><trkpt lat="59.0753175225" lon="29.9929358717"><ele>82.33</ele><time>2026-04-25T13:01:19Z</time></trkpt><trkpt lat="59.0753749385" lon="29.9928196985"><ele>81.37</ele><time>2026-04-25T13:01:30Z</time></trkpt><trkpt lat="59.0754151717" lon="29.9927634560"><ele>81.37</ele><time>2026-04-25T13:01:42Z</time></trkpt><trkpt lat="59.0754300915" lon="29.9927152600"><ele>81.37</ele><time>2026-04-25T13:01:45Z</time></trkpt><trkpt lat="59.0754549019" lon="29.9926194549"><ele>81.37</ele><time>2026-04-25T13:01:58Z</time></trkpt><trkpt lat="59.0754627809" lon="29.9926134199"><ele>81.37</ele><time>2026-04-25T13:02:13Z</time></trkpt><trkpt lat="59.0754766110" lon="29.9925656430"><ele>81.37</ele><time>2026-04-25T13:02:21Z</time></trkpt><trkpt lat="59.0754831489" lon="29.9925794732"><ele>81.85</ele><time>2026-04-25T13:02:46Z</time></trkpt><trkpt lat="59.0754817240" lon="29.9925513938"><ele>81.85</ele><time>2026-04-25T13:03:09Z</time></trkpt><trkpt lat="59.0754855797" lon="29.9925495498"><ele>81.37</ele><time>2026-04-25T13:03:24Z</time></trkpt><trkpt lat="59.0755155031" lon="29.9925077241"><ele>81.37</ele><time>2026-04-25T13:03:32Z</time></trkpt><trkpt lat="59.0755546466" lon="29.9923467916"><ele>81.37</ele><time>2026-04-25T13:03:43Z</time></trkpt><trkpt lat="59.0755796246" lon="29.9921825062"><ele>81.37</ele><time>2026-04-25T13:03:54Z</time></trkpt><trkpt lat="59.0756211989" lon="29.9921393394"><ele>81.37</ele><time>2026-04-25T13:04:00Z</time></trkpt><trkpt lat="59.0756712388" lon="29.9920093361"><ele>81.37</ele><time>2026-04-25T13:04:07Z</time></trkpt><trkpt lat="59.0756651200" lon="29.9919025507"><ele>81.37</ele><time>2026-04-25T13:04:13Z</time></trkpt><trkpt lat="59.0757082030" lon="29.9916823581"><ele>81.37</ele><time>2026-04-25T13:04:25Z</time></trkpt><trkpt lat="59.0756947082" lon="29.9914397858"><ele>81.37</ele><time>2026-04-25T13:04:37Z</time></trkpt><trkpt lat="59.0757036768" lon="29.9914016481"><ele>81.37</ele><time>2026-04-25T13:04:39Z</time></trkpt><trkpt lat="59.0757504478" lon="29.9912934378"><ele>81.37</ele><time>2026-04-25T13:04:46Z</time></trkpt><trkpt lat="59.0757906809" lon="29.9910500273"><ele>81.37</ele><time>2026-04-25T13:04:57Z</time></trkpt><trkpt lat="59.0757954586" lon="29.9910288211"><ele>81.37</ele><time>2026-04-25T13:05:07Z</time></trkpt><trkpt lat="59.0757985599" lon="29.9910374545"><ele>81.37</ele><time>2026-04-25T13:05:18Z</time></trkpt><trkpt lat="59.0758040082" lon="29.9910394661"><ele>81.37</ele><time>2026-04-25T13:05:32Z</time></trkpt><trkpt lat="59.0758085344" lon="29.9910154101"><ele>81.85</ele><time>2026-04-25T13:05:53Z</time></trkpt><trkpt lat="59.0758302435" lon="29.9910107162"><ele>81.85</ele><time>2026-04-25T13:06:13Z</time></trkpt><trkpt lat="59.0757894237" lon="29.9909755122"><ele>81.85</ele><time>2026-04-25T13:06:33Z</time></trkpt><trkpt lat="59.0757489391" lon="29.9909796193"><ele>81.85</ele><time>2026-04-25T13:06:44Z</time></trkpt><trkpt lat="59.0757093765" lon="29.9909501150"><ele>81.85</ele><time>2026-04-25T13:06:58Z</time></trkpt><trkpt lat="59.0757030062" lon="29.9909374584"><ele>81.85</ele><time>2026-04-25T13:07:11Z</time></trkpt><trkpt lat="59.0757150762" lon="29.9908754323"><ele>81.85</ele><time>2026-04-25T13:07:22Z</time></trkpt><trkpt lat="59.0757043473" lon="29.9908954650"><ele>81.85</ele><time>2026-04-25T13:07:45Z</time></trkpt><trkpt lat="59.0756968036" lon="29.9909241311"><ele>82.33</ele><time>2026-04-25T13:08:09Z</time></trkpt><trkpt lat="59.0757059399" lon="29.9909267295"><ele>82.33</ele><time>2026-04-25T13:08:33Z</time></trkpt><trkpt lat="59.0757004917" lon="29.9909410626"><ele>82.33</ele><time>2026-04-25T13:08:48Z</time></trkpt><trkpt lat="59.0757073648" lon="29.9909603409"><ele>82.33</ele><time>2026-04-25T13:09:12Z</time></trkpt><trkpt lat="59.0757400542" lon="29.9909527972"><ele>82.33</ele><time>2026-04-25T13:09:29Z</time></trkpt><trkpt lat="59.0757882502" lon="29.9909049366"><ele>82.33</ele><time>2026-04-25T13:09:39Z</time></trkpt><trkpt lat="59.0758546349" lon="29.9908026773"><ele>82.33</ele><time>2026-04-25T13:09:51Z</time></trkpt><trkpt lat="59.0758631844" lon="29.9907786213"><ele>82.33</ele><time>2026-04-25T13:09:57Z</time></trkpt><trkpt lat="59.0759562235" lon="29.9908091314"><ele>82.33</ele><time>2026-04-25T13:10:09Z</time></trkpt><trkpt lat="59.0760475025" lon="29.9907637853"><ele>82.33</ele><time>2026-04-25T13:10:20Z</time></trkpt><trkpt lat="59.0761418827" lon="29.9907358736"><ele>82.33</ele><time>2026-04-25T13:10:32Z</time></trkpt><trkpt lat="59.0761740692" lon="29.9907315150"><ele>82.33</ele><time>2026-04-25T13:10:36Z</time></trkpt><trkpt lat="59.0762028191" lon="29.9906776194"><ele>82.33</ele><time>2026-04-25T13:10:47Z</time></trkpt><trkpt lat="59.0762293059" lon="29.9906242266"><ele>82.33</ele><time>2026-04-25T13:10:59Z</time></trkpt><trkpt lat="59.0762983728" lon="29.9906279147"><ele>82.33</ele><time>2026-04-25T13:11:11Z</time></trkpt><trkpt lat="59.0763120353" lon="29.9906575028"><ele>82.33</ele><time>2026-04-25T13:11:14Z</time></trkpt><trkpt lat="59.0763868019" lon="29.9906011764"><ele>82.33</ele><time>2026-04-25T13:11:25Z</time></trkpt><trkpt lat="59.0764252748" lon="29.9905601889"><ele>82.33</ele><time>2026-04-25T13:11:37Z</time></trkpt><trkpt lat="59.0764682740" lon="29.9905844964"><ele>82.33</ele><time>2026-04-25T13:11:46Z</time></trkpt><trkpt lat="59.0765460581" lon="29.9905459397"><ele>82.81</ele><time>2026-04-25T13:11:56Z</time></trkpt><trkpt lat="59.0766319726" lon="29.9905264098"><ele>82.33</ele><time>2026-04-25T13:12:06Z</time></trkpt><trkpt lat="59.0766759776" lon="29.9905015994"><ele>82.33</ele><time>2026-04-25T13:12:16Z</time></trkpt><trkpt lat="59.0767359920" lon="29.9904268328"><ele>82.33</ele><time>2026-04-25T13:12:29Z</time></trkpt><trkpt lat="59.0768137760" lon="29.9904101528"><ele>82.33</ele><time>2026-04-25T13:12:38Z</time></trkpt><trkpt lat="59.0768481418" lon="29.9904350471"><ele>82.33</ele><time>2026-04-25T13:12:50Z</time></trkpt><trkpt lat="59.0768684261" lon="29.9903866835"><ele>82.33</ele><time>2026-04-25T13:13:00Z</time></trkpt><trkpt lat="59.0768894646" lon="29.9903380685"><ele>82.33</ele><time>2026-04-25T13:13:25Z</time></trkpt><trkpt lat="59.0769327991" lon="29.9903039541"><ele>82.33</ele><time>2026-04-25T13:13:38Z</time></trkpt><trkpt lat="59.0769488085" lon="29.9902839214"><ele>82.33</ele><time>2026-04-25T13:13:41Z</time></trkpt><trkpt lat="59.0770138521" lon="29.9902504776"><ele>82.33</ele><time>2026-04-25T13:13:53Z</time></trkpt><trkpt lat="59.0770688374" lon="29.9902921356"><ele>82.33</ele><time>2026-04-25T13:14:00Z</time></trkpt><trkpt lat="59.0771059692" lon="29.9902860168"><ele>82.33</ele><time>2026-04-25T13:14:12Z</time></trkpt><trkpt lat="59.0771590266" lon="29.9902914651"><ele>82.33</ele><time>2026-04-25T13:14:24Z</time></trkpt><trkpt lat="59.0771871898" lon="29.9902721029"><ele>82.33</ele><time>2026-04-25T13:14:34Z</time></trkpt><trkpt lat="59.0772602800" lon="29.9902110826"><ele>82.33</ele><time>2026-04-25T13:14:46Z</time></trkpt><trkpt lat="59.0773000941" lon="29.9901888706"><ele>82.33</ele><time>2026-04-25T13:14:51Z</time></trkpt><trkpt lat="59.0773439314" lon="29.9901514035"><ele>82.33</ele><time>2026-04-25T13:15:06Z</time></trkpt><trkpt lat="59.0774402395" lon="29.9899317976"><ele>82.33</ele><time>2026-04-25T13:15:18Z</time></trkpt><trkpt lat="59.0774575062" lon="29.9899654090"><ele>82.33</ele><time>2026-04-25T13:15:30Z</time></trkpt><trkpt lat="59.0774825681" lon="29.9899895489"><ele>81.85</ele><time>2026-04-25T13:15:43Z</time></trkpt><trkpt lat="59.0774767008" lon="29.9899443705"><ele>81.85</ele><time>2026-04-25T13:15:58Z</time></trkpt><trkpt lat="59.0774727613" lon="29.9899276905"><ele>81.85</ele><time>2026-04-25T13:15:59Z</time></trkpt><trkpt lat="59.0774425864" lon="29.9898844399"><ele>81.85</ele><time>2026-04-25T13:16:06Z</time></trkpt><trkpt lat="59.0773653891" lon="29.9897836056"><ele>81.85</ele><time>2026-04-25T13:16:16Z</time></trkpt><trkpt lat="59.0773032792" lon="29.9897561967"><ele>81.85</ele><time>2026-04-25T13:16:29Z</time></trkpt><trkpt lat="59.0772881079" lon="29.9897454679"><ele>81.85</ele><time>2026-04-25T13:16:56Z</time></trkpt><trkpt lat="59.0772524849" lon="29.9897436239"><ele>81.85</ele><time>2026-04-25T13:17:00Z</time></trkpt><trkpt lat="59.0771716833" lon="29.9896301329"><ele>81.85</ele><time>2026-04-25T13:17:12Z</time></trkpt><trkpt lat="59.0770440269" lon="29.9895750638"><ele>81.85</ele><time>2026-04-25T13:17:24Z</time></trkpt><trkpt lat="59.0769751277" lon="29.9895249400"><ele>81.85</ele><time>2026-04-25T13:17:35Z</time></trkpt><trkpt lat="59.0769695118" lon="29.9895252753"><ele>81.85</ele><time>2026-04-25T13:17:36Z</time></trkpt><trkpt lat="59.0769330505" lon="29.9895593897"><ele>81.85</ele><time>2026-04-25T13:17:46Z</time></trkpt><trkpt lat="59.0769162029" lon="29.9895867985"><ele>81.85</ele><time>2026-04-25T13:17:58Z</time></trkpt><trkpt lat="59.0768434480" lon="29.9896270316"><ele>81.37</ele><time>2026-04-25T13:18:10Z</time></trkpt><trkpt lat="59.0768020414" lon="29.9896075018"><ele>81.37</ele><time>2026-04-25T13:18:24Z</time></trkpt><trkpt lat="59.0767423622" lon="29.9895339925"><ele>81.37</ele><time>2026-04-25T13:18:46Z</time></trkpt><trkpt lat="59.0767360758" lon="29.9895270355"><ele>81.37</ele><time>2026-04-25T13:18:47Z</time></trkpt><trkpt lat="59.0766592138" lon="29.9895529356"><ele>81.37</ele><time>2026-04-25T13:18:59Z</time></trkpt><trkpt lat="59.0766086709" lon="29.9895192403"><ele>81.37</ele><time>2026-04-25T13:19:21Z</time></trkpt><trkpt lat="59.0765397716" lon="29.9895390216"><ele>81.37</ele><time>2026-04-25T13:19:31Z</time></trkpt><trkpt lat="59.0764708724" lon="29.9895044882"><ele>81.37</ele><time>2026-04-25T13:19:43Z</time></trkpt><trkpt lat="59.0763927530" lon="29.9894934241"><ele>82.81</ele><time>2026-04-25T13:20:02Z</time></trkpt><trkpt lat="59.0762962773" lon="29.9894536939"><ele>82.81</ele><time>2026-04-25T13:20:13Z</time></trkpt><trkpt lat="59.0762141347" lon="29.9893956911"><ele>82.81</ele><time>2026-04-25T13:20:25Z</time></trkpt><trkpt lat="59.0761928447" lon="29.9893924221"><ele>81.85</ele><time>2026-04-25T13:20:42Z</time></trkpt><trkpt lat="59.0761231910" lon="29.9893612415"><ele>81.85</ele><time>2026-04-25T13:20:59Z</time></trkpt><trkpt lat="59.0760650206" lon="29.9892984610"><ele>81.85</ele><time>2026-04-25T13:21:09Z</time></trkpt><trkpt lat="59.0760366060" lon="29.9892682862"><ele>81.37</ele><time>2026-04-25T13:21:39Z</time></trkpt><trkpt lat="59.0760114603" lon="29.9892821163"><ele>81.37</ele><time>2026-04-25T13:22:02Z</time></trkpt><trkpt lat="59.0759822913" lon="29.9893780891"><ele>81.37</ele><time>2026-04-25T13:22:10Z</time></trkpt><trkpt lat="59.0759840515" lon="29.9894688651"><ele>81.37</ele><time>2026-04-25T13:22:20Z</time></trkpt><trkpt lat="59.0759572294" lon="29.9896018021"><ele>81.37</ele><time>2026-04-25T13:22:32Z</time></trkpt><trkpt lat="59.0759494342" lon="29.9896166380"><ele>81.37</ele><time>2026-04-25T13:22:33Z</time></trkpt><trkpt lat="59.0759263840" lon="29.9896982778"><ele>81.37</ele><time>2026-04-25T13:22:44Z</time></trkpt><trkpt lat="59.0759293176" lon="29.9898653291"><ele>81.37</ele><time>2026-04-25T13:22:55Z</time></trkpt><trkpt lat="59.0759301558" lon="29.9899185542"><ele>81.37</ele><time>2026-04-25T13:23:02Z</time></trkpt><trkpt lat="59.0759530384" lon="29.9899820890"><ele>81.37</ele><time>2026-04-25T13:23:07Z</time></trkpt><trkpt lat="59.0759174991" lon="29.9900773074"><ele>81.37</ele><time>2026-04-25T13:23:18Z</time></trkpt><trkpt lat="59.0759112965" lon="29.9900868628"><ele>81.37</ele><time>2026-04-25T13:23:53Z</time></trkpt><trkpt lat="59.0759134758" lon="29.9901119247"><ele>81.37</ele><time>2026-04-25T13:24:05Z</time></trkpt><trkpt lat="59.0758709796" lon="29.9901906308"><ele>81.37</ele><time>2026-04-25T13:24:16Z</time></trkpt><trkpt lat="59.0757984761" lon="29.9902697559"><ele>81.37</ele><time>2026-04-25T13:24:27Z</time></trkpt><trkpt lat="59.0757374559" lon="29.9903891142"><ele>81.37</ele><time>2026-04-25T13:24:37Z</time></trkpt><trkpt lat="59.0757127292" lon="29.9904678203"><ele>81.37</ele><time>2026-04-25T13:24:41Z</time></trkpt><trkpt lat="59.0756094642" lon="29.9905295949"><ele>81.37</ele><time>2026-04-25T13:24:51Z</time></trkpt><trkpt lat="59.0756060276" lon="29.9905377254"><ele>81.37</ele><time>2026-04-25T13:24:52Z</time></trkpt><trkpt lat="59.0755708236" lon="29.9906121567"><ele>81.37</ele><time>2026-04-25T13:25:04Z</time></trkpt><trkpt lat="59.0754666366" lon="29.9906642921"><ele>81.37</ele><time>2026-04-25T13:25:15Z</time></trkpt><trkpt lat="59.0754445083" lon="29.9906917010"><ele>81.37</ele><time>2026-04-25T13:25:18Z</time></trkpt><trkpt lat="59.0754048619" lon="29.9906894378"><ele>81.37</ele><time>2026-04-25T13:25:25Z</time></trkpt><trkpt lat="59.0753466915" lon="29.9907908589"><ele>81.37</ele><time>2026-04-25T13:25:34Z</time></trkpt><trkpt lat="59.0752759483" lon="29.9908579979"><ele>81.37</ele><time>2026-04-25T13:25:45Z</time></trkpt><trkpt lat="59.0752741881" lon="29.9909321778"><ele>81.37</ele><time>2026-04-25T13:25:50Z</time></trkpt><trkpt lat="59.0752795525" lon="29.9909744225"><ele>81.37</ele><time>2026-04-25T13:25:52Z</time></trkpt><trkpt lat="59.0752425045" lon="29.9911378697"><ele>81.37</ele><time>2026-04-25T13:26:02Z</time></trkpt><trkpt lat="59.0752334520" lon="29.9911397137"><ele>81.37</ele><time>2026-04-25T13:26:29Z</time></trkpt><trkpt lat="59.0752247348" lon="29.9911200162"><ele>81.37</ele><time>2026-04-25T13:26:43Z</time></trkpt><trkpt lat="59.0751725994" lon="29.9909699801"><ele>81.37</ele><time>2026-04-25T13:26:53Z</time></trkpt><trkpt lat="59.0751414187" lon="29.9907754362"><ele>81.37</ele><time>2026-04-25T13:27:05Z</time></trkpt><trkpt lat="59.0751602780" lon="29.9906554073"><ele>81.37</ele><time>2026-04-25T13:27:12Z</time></trkpt><trkpt lat="59.0751879383" lon="29.9905132502"><ele>81.37</ele><time>2026-04-25T13:27:22Z</time></trkpt><trkpt lat="59.0752015170" lon="29.9903253280"><ele>81.37</ele><time>2026-04-25T13:27:35Z</time></trkpt><trkpt lat="59.0751951467" lon="29.9902383238"><ele>81.37</ele><time>2026-04-25T13:27:40Z</time></trkpt><trkpt lat="59.0752284229" lon="29.9901643954"><ele>81.37</ele><time>2026-04-25T13:27:50Z</time></trkpt><trkpt lat="59.0752751939" lon="29.9901364837"><ele>81.37</ele><time>2026-04-25T13:28:00Z</time></trkpt><trkpt lat="59.0752864257" lon="29.9901168700"><ele>81.37</ele><time>2026-04-25T13:28:02Z</time></trkpt><trkpt lat="59.0753071290" lon="29.9900107551"><ele>81.37</ele><time>2026-04-25T13:28:14Z</time></trkpt><trkpt lat="59.0753225517" lon="29.9899335578"><ele>80.89</ele><time>2026-04-25T13:28:28Z</time></trkpt><trkpt lat="59.0753627848" lon="29.9898390099"><ele>80.89</ele><time>2026-04-25T13:28:38Z</time></trkpt><trkpt lat="59.0753634553" lon="29.9898062367"><ele>80.89</ele><time>2026-04-25T13:28:50Z</time></trkpt><trkpt lat="59.0753885172" lon="29.9897767324"><ele>80.89</ele><time>2026-04-25T13:29:00Z</time></trkpt><trkpt lat="59.0753934626" lon="29.9897668418"><ele>82.33</ele><time>2026-04-25T13:29:02Z</time></trkpt><trkpt lat="59.0754151717" lon="29.9897869583"><ele>82.33</ele><time>2026-04-25T13:29:10Z</time></trkpt><trkpt lat="59.0754349530" lon="29.9897703622"><ele>82.33</ele><time>2026-04-25T13:29:19Z</time></trkpt><trkpt lat="59.0754498728" lon="29.9897504970"><ele>82.33</ele><time>2026-04-25T13:29:29Z</time></trkpt><trkpt lat="59.0754479449" lon="29.9897194002"><ele>82.33</ele><time>2026-04-25T13:29:43Z</time></trkpt><trkpt lat="59.0754552372" lon="29.9896843638"><ele>82.33</ele><time>2026-04-25T13:29:56Z</time></trkpt><trkpt lat="59.0754650440" lon="29.9896339048"><ele>82.33</ele><time>2026-04-25T13:30:06Z</time></trkpt><trkpt lat="59.0754616912" lon="29.9896310549"><ele>82.33</ele><time>2026-04-25T13:30:21Z</time></trkpt><trkpt lat="59.0754615236" lon="29.9895811826"><ele>82.33</ele><time>2026-04-25T13:30:47Z</time></trkpt><trkpt lat="59.0754674748" lon="29.9895670172"><ele>82.33</ele><time>2026-04-25T13:31:14Z</time></trkpt><trkpt lat="59.0754724201" lon="29.9895558693"><ele>82.33</ele><time>2026-04-25T13:31:32Z</time></trkpt><trkpt lat="59.0754763596" lon="29.9895478226"><ele>82.33</ele><time>2026-04-25T13:31:59Z</time></trkpt><trkpt lat="59.0754708275" lon="29.9895383511"><ele>81.85</ele><time>2026-04-25T13:32:23Z</time></trkpt><trkpt lat="59.0754722524" lon="29.9895164743"><ele>82.81</ele><time>2026-04-25T13:32:42Z</time></trkpt><trkpt lat="59.0754911955" lon="29.9894438870"><ele>82.81</ele><time>2026-04-25T13:32:52Z</time></trkpt><trkpt lat="59.0755069535" lon="29.9894272909"><ele>82.81</ele><time>2026-04-25T13:33:02Z</time></trkpt><trkpt lat="59.0755358711" lon="29.9893821124"><ele>82.81</ele><time>2026-04-25T13:33:12Z</time></trkpt><trkpt lat="59.0755549818" lon="29.9893434718"><ele>82.81</ele><time>2026-04-25T13:33:23Z</time></trkpt><trkpt lat="59.0755543113" lon="29.9893082678"><ele>82.81</ele><time>2026-04-25T13:33:40Z</time></trkpt><trkpt lat="59.0755576640" lon="29.9892407935"><ele>82.81</ele><time>2026-04-25T13:34:05Z</time></trkpt><trkpt lat="59.0755507909" lon="29.9892288912"><ele>82.33</ele><time>2026-04-25T13:34:09Z</time></trkpt><trkpt lat="59.0755417384" lon="29.9891968723"><ele>82.33</ele><time>2026-04-25T13:34:11Z</time></trkpt><trkpt lat="59.0754774492" lon="29.9891159032"><ele>82.33</ele><time>2026-04-25T13:34:24Z</time></trkpt><trkpt lat="59.0754591767" lon="29.9891007319"><ele>82.33</ele><time>2026-04-25T13:34:28Z</time></trkpt><trkpt lat="59.0754217096" lon="29.9890917633"><ele>82.33</ele><time>2026-04-25T13:34:40Z</time></trkpt><trkpt lat="59.0753948875" lon="29.9890952837"><ele>82.33</ele><time>2026-04-25T13:34:52Z</time></trkpt><trkpt lat="59.0753763635" lon="29.9890896678"><ele>82.33</ele><time>2026-04-25T13:34:56Z</time></trkpt><trkpt lat="59.0753430035" lon="29.9890812021"><ele>82.33</ele><time>2026-04-25T13:35:09Z</time></trkpt><trkpt lat="59.0753285028" lon="29.9890892487"><ele>82.33</ele><time>2026-04-25T13:35:25Z</time></trkpt><trkpt lat="59.0752654709" lon="29.9890163261"><ele>82.81</ele><time>2026-04-25T13:35:35Z</time></trkpt><trkpt lat="59.0752465278" lon="29.9890418071"><ele>82.81</ele><time>2026-04-25T13:35:47Z</time></trkpt><trkpt lat="59.0752028581" lon="29.9890309107"><ele>82.81</ele><time>2026-04-25T13:35:59Z</time></trkpt><trkpt lat="59.0751998406" lon="29.9890335090"><ele>82.81</ele><time>2026-04-25T13:36:04Z</time></trkpt><trkpt lat="59.0751674026" lon="29.9890369456"><ele>82.81</ele><time>2026-04-25T13:36:14Z</time></trkpt><trkpt lat="59.0751465317" lon="29.9890570622"><ele>82.81</ele><time>2026-04-25T13:36:29Z</time></trkpt><trkpt lat="59.0750958212" lon="29.9889960419"><ele>82.81</ele><time>2026-04-25T13:36:42Z</time></trkpt><trkpt lat="59.0750329569" lon="29.9890175834"><ele>82.33</ele><time>2026-04-25T13:36:54Z</time></trkpt><trkpt lat="59.0750073083" lon="29.9889876600"><ele>82.33</ele><time>2026-04-25T13:37:07Z</time></trkpt><trkpt lat="59.0749374032" lon="29.9889488518"><ele>82.33</ele><time>2026-04-25T13:37:18Z</time></trkpt><trkpt lat="59.0749027859" lon="29.9889005721"><ele>82.33</ele><time>2026-04-25T13:37:27Z</time></trkpt><trkpt lat="59.0749088209" lon="29.9888742529"><ele>83.29</ele><time>2026-04-25T13:37:49Z</time></trkpt><trkpt lat="59.0749070607" lon="29.9888746720"><ele>83.29</ele><time>2026-04-25T13:37:57Z</time></trkpt><trkpt lat="59.0748845972" lon="29.9890313298"><ele>83.29</ele><time>2026-04-25T13:38:09Z</time></trkpt><trkpt lat="59.0748610441" lon="29.9891210999"><ele>83.29</ele><time>2026-04-25T13:38:18Z</time></trkpt><trkpt lat="59.0748374909" lon="29.9892358482"><ele>83.29</ele><time>2026-04-25T13:38:29Z</time></trkpt><trkpt lat="59.0748013649" lon="29.9893173203"><ele>83.29</ele><time>2026-04-25T13:38:41Z</time></trkpt><trkpt lat="59.0747856069" lon="29.9893355090"><ele>82.81</ele><time>2026-04-25T13:38:58Z</time></trkpt><trkpt lat="59.0747314598" lon="29.9894560408"><ele>82.81</ele><time>2026-04-25T13:39:09Z</time></trkpt><trkpt lat="59.0747299511" lon="29.9896373414"><ele>82.81</ele><time>2026-04-25T13:39:20Z</time></trkpt><trkpt lat="59.0747307055" lon="29.9896404427"><ele>82.81</ele><time>2026-04-25T13:39:21Z</time></trkpt><trkpt lat="59.0746626444" lon="29.9896367546"><ele>82.81</ele><time>2026-04-25T13:39:30Z</time></trkpt><trkpt lat="59.0746498201" lon="29.9897113536"><ele>82.81</ele><time>2026-04-25T13:39:41Z</time></trkpt><trkpt lat="59.0746582020" lon="29.9897848628"><ele>82.81</ele><time>2026-04-25T13:39:51Z</time></trkpt><trkpt lat="59.0746517479" lon="29.9898967613"><ele>82.81</ele><time>2026-04-25T13:40:03Z</time></trkpt><trkpt lat="59.0746751335" lon="29.9899556860"><ele>82.81</ele><time>2026-04-25T13:40:15Z</time></trkpt><trkpt lat="59.0746842697" lon="29.9899825081"><ele>82.81</ele><time>2026-04-25T13:40:17Z</time></trkpt><trkpt lat="59.0746669192" lon="29.9900759663"><ele>82.81</ele><time>2026-04-25T13:40:27Z</time></trkpt><trkpt lat="59.0746613871" lon="29.9901462905"><ele>82.81</ele><time>2026-04-25T13:40:37Z</time></trkpt><trkpt lat="59.0746571962" lon="29.9902167823"><ele>82.81</ele><time>2026-04-25T13:40:45Z</time></trkpt><trkpt lat="59.0746503230" lon="29.9903430138"><ele>82.81</ele><time>2026-04-25T13:40:59Z</time></trkpt><trkpt lat="59.0746567771" lon="29.9904845841"><ele>82.81</ele><time>2026-04-25T13:41:09Z</time></trkpt><trkpt lat="59.0746519156" lon="29.9905718397"><ele>82.81</ele><time>2026-04-25T13:41:20Z</time></trkpt><trkpt lat="59.0746452101" lon="29.9906958919"><ele>82.33</ele><time>2026-04-25T13:41:33Z</time></trkpt><trkpt lat="59.0746293683" lon="29.9907454289"><ele>82.33</ele><time>2026-04-25T13:41:39Z</time></trkpt><trkpt lat="59.0745604690" lon="29.9908346124"><ele>82.33</ele><time>2026-04-25T13:41:49Z</time></trkpt><trkpt lat="59.0745318867" lon="29.9908986501"><ele>82.33</ele><time>2026-04-25T13:42:00Z</time></trkpt><trkpt lat="59.0745427832" lon="29.9910323415"><ele>82.33</ele><time>2026-04-25T13:42:10Z</time></trkpt><trkpt lat="59.0745430347" lon="29.9911821261"><ele>82.33</ele><time>2026-04-25T13:42:21Z</time></trkpt><trkpt lat="59.0745349880" lon="29.9913968705"><ele>82.33</ele><time>2026-04-25T13:42:34Z</time></trkpt><trkpt lat="59.0745286178" lon="29.9914581422"><ele>81.85</ele><time>2026-04-25T13:42:50Z</time></trkpt><trkpt lat="59.0745111834" lon="29.9914857186"><ele>81.85</ele><time>2026-04-25T13:43:13Z</time></trkpt><trkpt lat="59.0745075792" lon="29.9914938491"><ele>81.85</ele><time>2026-04-25T13:43:39Z</time></trkpt><trkpt lat="59.0744957607" lon="29.9915081821"><ele>81.85</ele><time>2026-04-25T13:43:54Z</time></trkpt><trkpt lat="59.0744503308" lon="29.9915469065"><ele>81.85</ele><time>2026-04-25T13:44:05Z</time></trkpt><trkpt lat="59.0743808448" lon="29.9916135427"><ele>81.37</ele><time>2026-04-25T13:44:16Z</time></trkpt><trkpt lat="59.0742684435" lon="29.9916686118"><ele>81.37</ele><time>2026-04-25T13:44:26Z</time></trkpt><trkpt lat="59.0741959400" lon="29.9916666839"><ele>81.37</ele><time>2026-04-25T13:44:37Z</time></trkpt><trkpt lat="59.0741873067" lon="29.9916708749"><ele>81.37</ele><time>2026-04-25T13:44:38Z</time></trkpt><trkpt lat="59.0741631668" lon="29.9916977808"><ele>81.37</ele><time>2026-04-25T13:44:41Z</time></trkpt><trkpt lat="59.0741105285" lon="29.9917123653"><ele>81.37</ele><time>2026-04-25T13:44:53Z</time></trkpt><trkpt lat="59.0740692895" lon="29.9916935898"><ele>81.37</ele><time>2026-04-25T13:45:11Z</time></trkpt><trkpt lat="59.0739637613" lon="29.9917183165"><ele>80.89</ele><time>2026-04-25T13:45:22Z</time></trkpt><trkpt lat="59.0738812834" lon="29.9918092601"><ele>80.89</ele><time>2026-04-25T13:45:33Z</time></trkpt><trkpt lat="59.0738061816" lon="29.9918174744"><ele>80.89</ele><time>2026-04-25T13:45:45Z</time></trkpt><trkpt lat="59.0737916809" lon="29.9918229226"><ele>81.37</ele><time>2026-04-25T13:46:08Z</time></trkpt><trkpt lat="59.0737772640" lon="29.9917603098"><ele>81.37</ele><time>2026-04-25T13:46:30Z</time></trkpt><trkpt lat="59.0737713128" lon="29.9916827772"><ele>81.37</ele><time>2026-04-25T13:46:47Z</time></trkpt><trkpt lat="59.0737740789" lon="29.9915282149"><ele>81.37</ele><time>2026-04-25T13:46:57Z</time></trkpt><trkpt lat="59.0737941116" lon="29.9913958646"><ele>81.37</ele><time>2026-04-25T13:47:12Z</time></trkpt><trkpt lat="59.0737983864" lon="29.9911938608"><ele>81.37</ele><time>2026-04-25T13:47:22Z</time></trkpt><trkpt lat="59.0738277230" lon="29.9910806213"><ele>81.37</ele><time>2026-04-25T13:47:35Z</time></trkpt><trkpt lat="59.0738511086" lon="29.9910254683"><ele>81.37</ele><time>2026-04-25T13:47:43Z</time></trkpt><trkpt lat="59.0738714766" lon="29.9909878336"><ele>81.37</ele><time>2026-04-25T13:47:46Z</time></trkpt><trkpt lat="59.0738948621" lon="29.9909021705"><ele>81.37</ele><time>2026-04-25T13:47:57Z</time></trkpt><trkpt lat="59.0739286412" lon="29.9908728339"><ele>81.37</ele><time>2026-04-25T13:48:08Z</time></trkpt><trkpt lat="59.0739315748" lon="29.9908634461"><ele>81.37</ele><time>2026-04-25T13:48:21Z</time></trkpt><trkpt lat="59.0739293117" lon="29.9908543099"><ele>81.37</ele><time>2026-04-25T13:48:36Z</time></trkpt><trkpt lat="59.0739381965" lon="29.9907637015"><ele>81.37</ele><time>2026-04-25T13:48:45Z</time></trkpt><trkpt lat="59.0739055909" lon="29.9907094706"><ele>81.37</ele><time>2026-04-25T13:48:57Z</time></trkpt><trkpt lat="59.0739076026" lon="29.9906865880"><ele>80.89</ele><time>2026-04-25T13:49:09Z</time></trkpt><trkpt lat="59.0739014000" lon="29.9906723388"><ele>80.89</ele><time>2026-04-25T13:49:22Z</time></trkpt><trkpt lat="59.0738428105" lon="29.9905518908"><ele>80.89</ele><time>2026-04-25T13:49:32Z</time></trkpt><trkpt lat="59.0738115460" lon="29.9904591031"><ele>80.89</ele><time>2026-04-25T13:49:45Z</time></trkpt><trkpt lat="59.0738175809" lon="29.9904583488"><ele>80.89</ele><time>2026-04-25T13:50:06Z</time></trkpt><trkpt lat="59.0738165751" lon="29.9904843327"><ele>80.89</ele><time>2026-04-25T13:50:34Z</time></trkpt><trkpt lat="59.0738055110" lon="29.9904746935"><ele>80.89</ele><time>2026-04-25T13:50:56Z</time></trkpt><trkpt lat="59.0737987217" lon="29.9904722627"><ele>80.89</ele><time>2026-04-25T13:51:12Z</time></trkpt><trkpt lat="59.0738080256" lon="29.9904798064"><ele>80.89</ele><time>2026-04-25T13:51:40Z</time></trkpt><trkpt lat="59.0738070197" lon="29.9904807284"><ele>80.89</ele><time>2026-04-25T13:52:10Z</time></trkpt><trkpt lat="59.0738098696" lon="29.9904704187"><ele>80.89</ele><time>2026-04-25T13:52:41Z</time></trkpt><trkpt lat="59.0738138929" lon="29.9904726818"><ele>80.89</ele><time>2026-04-25T13:53:17Z</time></trkpt><trkpt lat="59.0738194250" lon="29.9904378131"><ele>80.89</ele><time>2026-04-25T13:53:49Z</time></trkpt><trkpt lat="59.0738268010" lon="29.9904267490"><ele>81.37</ele><time>2026-04-25T13:54:17Z</time></trkpt><trkpt lat="59.0738272201" lon="29.9904228095"><ele>80.89</ele><time>2026-04-25T13:54:40Z</time></trkpt><trkpt lat="59.0738246217" lon="29.9904302694"><ele>80.89</ele><time>2026-04-25T13:55:03Z</time></trkpt><trkpt lat="59.0738154016" lon="29.9904457759"><ele>80.89</ele><time>2026-04-25T13:55:24Z</time></trkpt><trkpt lat="59.0738001466" lon="29.9904119130"><ele>80.89</ele><time>2026-04-25T13:55:34Z</time></trkpt><trkpt lat="59.0738089476" lon="29.9902954046"><ele>80.89</ele><time>2026-04-25T13:55:43Z</time></trkpt><trkpt lat="59.0738398768" lon="29.9902433529"><ele>80.89</ele><time>2026-04-25T13:55:55Z</time></trkpt><trkpt lat="59.0738696326" lon="29.9902228173"><ele>81.37</ele><time>2026-04-25T13:56:01Z</time></trkpt><trkpt lat="59.0739371069" lon="29.9900767207"><ele>80.89</ele><time>2026-04-25T13:56:12Z</time></trkpt><trkpt lat="59.0739866439" lon="29.9899235833"><ele>80.89</ele><time>2026-04-25T13:56:23Z</time></trkpt><trkpt lat="59.0740046650" lon="29.9897587113"><ele>81.37</ele><time>2026-04-25T13:56:34Z</time></trkpt><trkpt lat="59.0740167350" lon="29.9896577094"><ele>81.37</ele><time>2026-04-25T13:56:47Z</time></trkpt><trkpt lat="59.0739802737" lon="29.9895278737"><ele>81.37</ele><time>2026-04-25T13:56:59Z</time></trkpt><trkpt lat="59.0739811957" lon="29.9894225132"><ele>81.37</ele><time>2026-04-25T13:57:10Z</time></trkpt><trkpt lat="59.0739868954" lon="29.9893089384"><ele>81.37</ele><time>2026-04-25T13:57:20Z</time></trkpt><trkpt lat="59.0740058385" lon="29.9892366026"><ele>81.37</ele><time>2026-04-25T13:57:29Z</time></trkpt><trkpt lat="59.0740536992" lon="29.9891042523"><ele>81.37</ele><time>2026-04-25T13:57:42Z</time></trkpt><trkpt lat="59.0740624163" lon="29.9888902623"><ele>81.37</ele><time>2026-04-25T13:57:52Z</time></trkpt><trkpt lat="59.0740635060" lon="29.9888544716"><ele>81.37</ele><time>2026-04-25T13:58:08Z</time></trkpt><trkpt lat="59.0740674455" lon="29.9888418149"><ele>81.37</ele><time>2026-04-25T13:58:24Z</time></trkpt><trkpt lat="59.0740662720" lon="29.9888253864"><ele>81.37</ele><time>2026-04-25T13:58:46Z</time></trkpt><trkpt lat="59.0740569681" lon="29.9888372887"><ele>81.37</ele><time>2026-04-25T13:58:58Z</time></trkpt><trkpt lat="59.0739875659" lon="29.9888993986"><ele>80.89</ele><time>2026-04-25T13:59:09Z</time></trkpt><trkpt lat="59.0739542060" lon="29.9889413081"><ele>80.89</ele><time>2026-04-25T13:59:16Z</time></trkpt><trkpt lat="59.0738761704" lon="29.9889525399"><ele>80.89</ele><time>2026-04-25T13:59:27Z</time></trkpt><trkpt lat="59.0738397930" lon="29.9889395479"><ele>80.89</ele><time>2026-04-25T13:59:45Z</time></trkpt><trkpt lat="59.0738012362" lon="29.9889557250"><ele>80.89</ele><time>2026-04-25T13:59:56Z</time></trkpt><trkpt lat="59.0737724863" lon="29.9889591616"><ele>80.89</ele><time>2026-04-25T14:00:01Z</time></trkpt><trkpt lat="59.0736812074" lon="29.9890323356"><ele>80.89</ele><time>2026-04-25T14:00:11Z</time></trkpt><trkpt lat="59.0736140683" lon="29.9890716467"><ele>80.89</ele><time>2026-04-25T14:00:22Z</time></trkpt><trkpt lat="59.0735310037" lon="29.9891404621"><ele>80.89</ele><time>2026-04-25T14:00:34Z</time></trkpt><trkpt lat="59.0734610148" lon="29.9891212676"><ele>80.89</ele><time>2026-04-25T14:00:46Z</time></trkpt><trkpt lat="59.0734428260" lon="29.9891179986"><ele>80.89</ele><time>2026-04-25T14:01:06Z</time></trkpt><trkpt lat="59.0734346956" lon="29.9891334213"><ele>80.89</ele><time>2026-04-25T14:01:15Z</time></trkpt><trkpt lat="59.0733824763" lon="29.9891364388"><ele>80.41</ele><time>2026-04-25T14:01:27Z</time></trkpt><trkpt lat="59.0733509604" lon="29.9891458265"><ele>80.41</ele><time>2026-04-25T14:01:43Z</time></trkpt><trkpt lat="59.0733309276" lon="29.9891565554"><ele>80.89</ele><time>2026-04-25T14:01:58Z</time></trkpt><trkpt lat="59.0732849110" lon="29.9892115407"><ele>80.89</ele><time>2026-04-25T14:02:05Z</time></trkpt><trkpt lat="59.0732443426" lon="29.9892216828"><ele>80.89</ele><time>2026-04-25T14:02:16Z</time></trkpt><trkpt lat="59.0732074622" lon="29.9892254546"><ele>80.89</ele><time>2026-04-25T14:02:42Z</time></trkpt><trkpt lat="59.0731840767" lon="29.9892630056"><ele>80.89</ele><time>2026-04-25T14:02:49Z</time></trkpt><trkpt lat="59.0731709171" lon="29.9894238543"><ele>80.89</ele><time>2026-04-25T14:03:00Z</time></trkpt><trkpt lat="59.0731421672" lon="29.9894684460"><ele>80.89</ele><time>2026-04-25T14:03:10Z</time></trkpt><trkpt lat="59.0731333662" lon="29.9894761574"><ele>80.89</ele><time>2026-04-25T14:03:37Z</time></trkpt><trkpt lat="59.0730974078" lon="29.9895602278"><ele>80.89</ele><time>2026-04-25T14:03:51Z</time></trkpt><trkpt lat="59.0730982460" lon="29.9896533508"><ele>80.89</ele><time>2026-04-25T14:03:58Z</time></trkpt><trkpt lat="59.0731143393" lon="29.9897269439"><ele>80.89</ele><time>2026-04-25T14:04:09Z</time></trkpt><trkpt lat="59.0731286723" lon="29.9897866230"><ele>80.89</ele><time>2026-04-25T14:04:17Z</time></trkpt><trkpt lat="59.0731343720" lon="29.9898551870"><ele>80.41</ele><time>2026-04-25T14:04:27Z</time></trkpt><trkpt lat="59.0731588472" lon="29.9899519142"><ele>80.41</ele><time>2026-04-25T14:04:38Z</time></trkpt><trkpt lat="59.0731610265" lon="29.9900798220"><ele>80.41</ele><time>2026-04-25T14:04:49Z</time></trkpt><trkpt lat="59.0731207095" lon="29.9901979230"><ele>80.41</ele><time>2026-04-25T14:05:01Z</time></trkpt><trkpt lat="59.0730989166" lon="29.9902709294"><ele>80.41</ele><time>2026-04-25T14:05:13Z</time></trkpt><trkpt lat="59.0730490442" lon="29.9902964942"><ele>80.41</ele><time>2026-04-25T14:05:25Z</time></trkpt><trkpt lat="59.0730805602" lon="29.9904156011"><ele>80.41</ele><time>2026-04-25T14:05:39Z</time></trkpt><trkpt lat="59.0731103998" lon="29.9905739352"><ele>80.41</ele><time>2026-04-25T14:05:50Z</time></trkpt><trkpt lat="59.0731122438" lon="29.9906027690"><ele>80.41</ele><time>2026-04-25T14:05:53Z</time></trkpt><trkpt lat="59.0730922110" lon="29.9906777032"><ele>80.41</ele><time>2026-04-25T14:06:04Z</time></trkpt><trkpt lat="59.0731374733" lon="29.9907056987"><ele>80.41</ele><time>2026-04-25T14:06:35Z</time></trkpt><trkpt lat="59.0731213801" lon="29.9908346962"><ele>80.41</ele><time>2026-04-25T14:06:46Z</time></trkpt><trkpt lat="59.0730598569" lon="29.9909474328"><ele>80.41</ele><time>2026-04-25T14:06:57Z</time></trkpt><trkpt lat="59.0730541572" lon="29.9910946190"><ele>80.41</ele><time>2026-04-25T14:07:09Z</time></trkpt><trkpt lat="59.0730420034" lon="29.9912051763"><ele>80.41</ele><time>2026-04-25T14:07:15Z</time></trkpt><trkpt lat="59.0730262455" lon="29.9913262110"><ele>80.41</ele><time>2026-04-25T14:07:28Z</time></trkpt><trkpt lat="59.0730252396" lon="29.9914611597"><ele>80.41</ele><time>2026-04-25T14:07:37Z</time></trkpt><trkpt lat="59.0730622876" lon="29.9917227589"><ele>80.41</ele><time>2026-04-25T14:07:49Z</time></trkpt><trkpt lat="59.0730617009" lon="29.9918827694"><ele>80.41</ele><time>2026-04-25T14:08:00Z</time></trkpt><trkpt lat="59.0730576776" lon="29.9920557719"><ele>80.41</ele><time>2026-04-25T14:08:12Z</time></trkpt><trkpt lat="59.0730640478" lon="29.9921100028"><ele>79.93</ele><time>2026-04-25T14:08:25Z</time></trkpt><trkpt lat="59.0730456077" lon="29.9921461288"><ele>79.93</ele><time>2026-04-25T14:08:46Z</time></trkpt><trkpt lat="59.0730082244" lon="29.9921623059"><ele>79.93</ele><time>2026-04-25T14:08:59Z</time></trkpt><trkpt lat="59.0728947334" lon="29.9922539201"><ele>79.93</ele><time>2026-04-25T14:09:10Z</time></trkpt><trkpt lat="59.0728632174" lon="29.9922696780"><ele>79.93</ele><time>2026-04-25T14:09:15Z</time></trkpt><trkpt lat="59.0727956593" lon="29.9923138507"><ele>79.93</ele><time>2026-04-25T14:09:25Z</time></trkpt><trkpt lat="59.0727883670" lon="29.9923232384"><ele>79.93</ele><time>2026-04-25T14:09:29Z</time></trkpt><trkpt lat="59.0727659035" lon="29.9923350569"><ele>79.93</ele><time>2026-04-25T14:09:32Z</time></trkpt><trkpt lat="59.0726866107" lon="29.9923664052"><ele>79.93</ele><time>2026-04-25T14:09:44Z</time></trkpt><trkpt lat="59.0726364870" lon="29.9923692551"><ele>80.41</ele><time>2026-04-25T14:09:54Z</time></trkpt><trkpt lat="59.0725240018" lon="29.9923053849"><ele>80.41</ele><time>2026-04-25T14:10:06Z</time></trkpt><trkpt lat="59.0725008678" lon="29.9922268465"><ele>80.41</ele><time>2026-04-25T14:10:17Z</time></trkpt><trkpt lat="59.0724640712" lon="29.9921855237"><ele>80.41</ele><time>2026-04-25T14:10:43Z</time></trkpt><trkpt lat="59.0724629816" lon="29.9921567738"><ele>80.41</ele><time>2026-04-25T14:10:55Z</time></trkpt><trkpt lat="59.0724527556" lon="29.9921512417"><ele>79.45</ele><time>2026-04-25T14:11:22Z</time></trkpt><trkpt lat="59.0724454634" lon="29.9920934904"><ele>79.45</ele><time>2026-04-25T14:11:40Z</time></trkpt><trkpt lat="59.0724511631" lon="29.9920806661"><ele>79.45</ele><time>2026-04-25T14:11:44Z</time></trkpt><trkpt lat="59.0724558569" lon="29.9920142815"><ele>79.45</ele><time>2026-04-25T14:11:51Z</time></trkpt><trkpt lat="59.0724268556" lon="29.9918418657"><ele>79.45</ele><time>2026-04-25T14:12:02Z</time></trkpt><trkpt lat="59.0724051464" lon="29.9917547777"><ele>79.45</ele><time>2026-04-25T14:12:13Z</time></trkpt><trkpt lat="59.0723711159" lon="29.9916067533"><ele>79.45</ele><time>2026-04-25T14:12:25Z</time></trkpt><trkpt lat="59.0723999497" lon="29.9914455693"><ele>78.97</ele><time>2026-04-25T14:12:36Z</time></trkpt><trkpt lat="59.0724102594" lon="29.9912760872"><ele>78.97</ele><time>2026-04-25T14:12:49Z</time></trkpt><trkpt lat="59.0724089183" lon="29.9910771847"><ele>78.97</ele><time>2026-04-25T14:13:04Z</time></trkpt><trkpt lat="59.0723889694" lon="29.9909092113"><ele>78.97</ele><time>2026-04-25T14:13:14Z</time></trkpt><trkpt lat="59.0723812580" lon="29.9908075389"><ele>78.97</ele><time>2026-04-25T14:13:24Z</time></trkpt><trkpt lat="59.0723843593" lon="29.9907131586"><ele>78.97</ele><time>2026-04-25T14:13:34Z</time></trkpt><trkpt lat="59.0724204853" lon="29.9905106518"><ele>78.97</ele><time>2026-04-25T14:13:46Z</time></trkpt><trkpt lat="59.0724483132" lon="29.9904296827"><ele>78.97</ele><time>2026-04-25T14:13:51Z</time></trkpt><trkpt lat="59.0724696033" lon="29.9903506413"><ele>78.97</ele><time>2026-04-25T14:14:00Z</time></trkpt><trkpt lat="59.0724768117" lon="29.9903381523"><ele>78.97</ele><time>2026-04-25T14:14:02Z</time></trkpt><trkpt lat="59.0725145303" lon="29.9902526569"><ele>78.97</ele><time>2026-04-25T14:14:12Z</time></trkpt><trkpt lat="59.0725193080" lon="29.9902268406"><ele>78.97</ele><time>2026-04-25T14:14:13Z</time></trkpt><trkpt lat="59.0725439508" lon="29.9900176283"><ele>78.97</ele><time>2026-04-25T14:14:25Z</time></trkpt><trkpt lat="59.0725369100" lon="29.9898517504"><ele>78.97</ele><time>2026-04-25T14:14:36Z</time></trkpt><trkpt lat="59.0725374129" lon="29.9898420274"><ele>79.93</ele><time>2026-04-25T14:14:42Z</time></trkpt><trkpt lat="59.0725431964" lon="29.9898014590"><ele>79.93</ele><time>2026-04-25T14:14:59Z</time></trkpt><trkpt lat="59.0725499019" lon="29.9897582084"><ele>80.41</ele><time>2026-04-25T14:15:20Z</time></trkpt><trkpt lat="59.0725539252" lon="29.9896519259"><ele>80.41</ele><time>2026-04-25T14:15:30Z</time></trkpt><trkpt lat="59.0725395922" lon="29.9895212520"><ele>80.41</ele><time>2026-04-25T14:15:41Z</time></trkpt><trkpt lat="59.0725253429" lon="29.9895565398"><ele>80.41</ele><time>2026-04-25T14:15:52Z</time></trkpt><trkpt lat="59.0724629816" lon="29.9895603117"><ele>80.41</ele><time>2026-04-25T14:16:03Z</time></trkpt><trkpt lat="59.0724571142" lon="29.9895382673"><ele>80.41</ele><time>2026-04-25T14:16:14Z</time></trkpt><trkpt lat="59.0724430326" lon="29.9895267002"><ele>80.41</ele><time>2026-04-25T14:16:30Z</time></trkpt><trkpt lat="59.0724321362" lon="29.9895401113"><ele>80.41</ele><time>2026-04-25T14:16:45Z</time></trkpt><trkpt lat="59.0724274423" lon="29.9895380996"><ele>80.41</ele><time>2026-04-25T14:17:16Z</time></trkpt><trkpt lat="59.0724314656" lon="29.9895424582"><ele>80.41</ele><time>2026-04-25T14:17:35Z</time></trkpt><trkpt lat="59.0724173840" lon="29.9895018060"><ele>80.41</ele><time>2026-04-25T14:17:48Z</time></trkpt><trkpt lat="59.0724421106" lon="29.9893376045"><ele>80.41</ele><time>2026-04-25T14:17:59Z</time></trkpt><trkpt lat="59.0724514984" lon="29.9892474152"><ele>80.41</ele><time>2026-04-25T14:18:14Z</time></trkpt><trkpt lat="59.0724755544" lon="29.9891193397"><ele>80.41</ele><time>2026-04-25T14:18:25Z</time></trkpt><trkpt lat="59.0725211520" lon="29.9889378715"><ele>80.41</ele><time>2026-04-25T14:18:36Z</time></trkpt><trkpt lat="59.0724855289" lon="29.9887621868"><ele>80.41</ele><time>2026-04-25T14:18:47Z</time></trkpt><trkpt lat="59.0724898037" lon="29.9886898510"><ele>80.41</ele><time>2026-04-25T14:18:59Z</time></trkpt><trkpt lat="59.0725319646" lon="29.9885179382"><ele>80.41</ele><time>2026-04-25T14:19:10Z</time></trkpt><trkpt lat="59.0725309588" lon="29.9884704128"><ele>80.41</ele><time>2026-04-25T14:19:15Z</time></trkpt><trkpt lat="59.0725298692" lon="29.9884447642"><ele>83.77</ele><time>2026-04-25T14:19:27Z</time></trkpt><trkpt lat="59.0725367423" lon="29.9884098116"><ele>79.93</ele><time>2026-04-25T14:19:39Z</time></trkpt><trkpt lat="59.0725423582" lon="29.9883896951"><ele>81.85</ele><time>2026-04-25T14:20:07Z</time></trkpt><trkpt lat="59.0725207329" lon="29.9883707520"><ele>81.85</ele><time>2026-04-25T14:20:26Z</time></trkpt><trkpt lat="59.0724864509" lon="29.9883495457"><ele>80.89</ele><time>2026-04-25T14:20:40Z</time></trkpt><trkpt lat="59.0724328067" lon="29.9883110728"><ele>80.89</ele><time>2026-04-25T14:20:48Z</time></trkpt><trkpt lat="59.0723271947" lon="29.9882731028"><ele>80.89</ele><time>2026-04-25T14:20:59Z</time></trkpt><trkpt lat="59.0722760651" lon="29.9882629607"><ele>80.89</ele><time>2026-04-25T14:21:09Z</time></trkpt><trkpt lat="59.0720829461" lon="29.9881901219"><ele>80.41</ele><time>2026-04-25T14:21:22Z</time></trkpt><trkpt lat="59.0719687007" lon="29.9881818239"><ele>80.41</ele><time>2026-04-25T14:21:37Z</time></trkpt><trkpt lat="59.0718609095" lon="29.9881196301"><ele>80.41</ele><time>2026-04-25T14:21:48Z</time></trkpt><trkpt lat="59.0718458220" lon="29.9880695902"><ele>80.41</ele><time>2026-04-25T14:22:04Z</time></trkpt><trkpt lat="59.0718395356" lon="29.9880553409"><ele>80.41</ele><time>2026-04-25T14:22:31Z</time></trkpt><trkpt lat="59.0718229394" lon="29.9882277567"><ele>80.41</ele><time>2026-04-25T14:22:44Z</time></trkpt><trkpt lat="59.0717962850" lon="29.9882971589"><ele>80.41</ele><time>2026-04-25T14:22:57Z</time></trkpt><trkpt lat="59.0717858914" lon="29.9883142579"><ele>80.41</ele><time>2026-04-25T14:23:08Z</time></trkpt><trkpt lat="59.0717513580" lon="29.9884523079"><ele>80.41</ele><time>2026-04-25T14:23:21Z</time></trkpt><trkpt lat="59.0717537887" lon="29.9885352049"><ele>80.41</ele><time>2026-04-25T14:23:27Z</time></trkpt><trkpt lat="59.0717373602" lon="29.9886841513"><ele>80.41</ele><time>2026-04-25T14:23:38Z</time></trkpt><trkpt lat="59.0717786830" lon="29.9888164178"><ele>79.93</ele><time>2026-04-25T14:23:48Z</time></trkpt><trkpt lat="59.0718033258" lon="29.9889695551"><ele>79.93</ele><time>2026-04-25T14:24:00Z</time></trkpt><trkpt lat="59.0718371049" lon="29.9890889972"><ele>79.93</ele><time>2026-04-25T14:24:13Z</time></trkpt><trkpt lat="59.0718127135" lon="29.9892047513"><ele>79.93</ele><time>2026-04-25T14:24:23Z</time></trkpt><trkpt lat="59.0718018170" lon="29.9893109500"><ele>79.93</ele><time>2026-04-25T14:24:36Z</time></trkpt><trkpt lat="59.0718059242" lon="29.9894070905"><ele>79.93</ele><time>2026-04-25T14:24:44Z</time></trkpt><trkpt lat="59.0717920102" lon="29.9895387702"><ele>79.93</ele><time>2026-04-25T14:24:55Z</time></trkpt><trkpt lat="59.0717967041" lon="29.9896199070"><ele>79.93</ele><time>2026-04-25T14:25:05Z</time></trkpt><trkpt lat="59.0718360152" lon="29.9896704499"><ele>79.93</ele><time>2026-04-25T14:25:15Z</time></trkpt><trkpt lat="59.0718576405" lon="29.9897082523"><ele>79.93</ele><time>2026-04-25T14:25:26Z</time></trkpt><trkpt lat="59.0718785953" lon="29.9897307996"><ele>79.93</ele><time>2026-04-25T14:25:37Z</time></trkpt><trkpt lat="59.0718698781" lon="29.9897135329"><ele>79.93</ele><time>2026-04-25T14:25:48Z</time></trkpt><trkpt lat="59.0718505997" lon="29.9897168018"><ele>79.93</ele><time>2026-04-25T14:25:53Z</time></trkpt><trkpt lat="59.0718044993" lon="29.9897658359"><ele>79.93</ele><time>2026-04-25T14:26:03Z</time></trkpt><trkpt lat="59.0717751626" lon="29.9897613097"><ele>79.93</ele><time>2026-04-25T14:26:12Z</time></trkpt><trkpt lat="59.0717107896" lon="29.9897180591"><ele>79.93</ele><time>2026-04-25T14:26:23Z</time></trkpt><trkpt lat="59.0716846380" lon="29.9896848667"><ele>79.93</ele><time>2026-04-25T14:26:33Z</time></trkpt><trkpt lat="59.0716852248" lon="29.9895619042"><ele>79.93</ele><time>2026-04-25T14:26:44Z</time></trkpt><trkpt lat="59.0716137271" lon="29.9893881474"><ele>79.93</ele><time>2026-04-25T14:26:55Z</time></trkpt><trkpt lat="59.0715684649" lon="29.9893510155"><ele>79.93</ele><time>2026-04-25T14:27:08Z</time></trkpt><trkpt lat="59.0715556405" lon="29.9893324077"><ele>79.93</ele><time>2026-04-25T14:27:29Z</time></trkpt><trkpt lat="59.0715605859" lon="29.9893695395"><ele>80.89</ele><time>2026-04-25T14:27:53Z</time></trkpt><trkpt lat="59.0715450794" lon="29.9893670250"><ele>80.89</ele><time>2026-04-25T14:28:13Z</time></trkpt><trkpt lat="59.0715274774" lon="29.9893542007"><ele>80.89</ele><time>2026-04-25T14:28:41Z</time></trkpt><trkpt lat="59.0715141501" lon="29.9893849622"><ele>80.89</ele><time>2026-04-25T14:28:52Z</time></trkpt><trkpt lat="59.0715050139" lon="29.9894904066"><ele>80.89</ele><time>2026-04-25T14:29:00Z</time></trkpt><trkpt lat="59.0714439098" lon="29.9896101002"><ele>80.89</ele><time>2026-04-25T14:29:12Z</time></trkpt><trkpt lat="59.0714517049" lon="29.9896783289"><ele>80.89</ele><time>2026-04-25T14:29:17Z</time></trkpt><trkpt lat="59.0714335162" lon="29.9898531754"><ele>80.89</ele><time>2026-04-25T14:29:28Z</time></trkpt><trkpt lat="59.0714645293" lon="29.9898644071"><ele>80.89</ele><time>2026-04-25T14:29:50Z</time></trkpt><trkpt lat="59.0714548063" lon="29.9898738787"><ele>80.89</ele><time>2026-04-25T14:30:03Z</time></trkpt><trkpt lat="59.0714629367" lon="29.9899366591"><ele>80.89</ele><time>2026-04-25T14:30:14Z</time></trkpt><trkpt lat="59.0714188479" lon="29.9900456239"><ele>80.89</ele><time>2026-04-25T14:30:26Z</time></trkpt><trkpt lat="59.0714055207" lon="29.9900698476"><ele>80.89</ele><time>2026-04-25T14:30:35Z</time></trkpt><trkpt lat="59.0713768546" lon="29.9900737032"><ele>80.89</ele><time>2026-04-25T14:30:48Z</time></trkpt><trkpt lat="59.0713626053" lon="29.9901345558"><ele>80.89</ele><time>2026-04-25T14:31:02Z</time></trkpt><trkpt lat="59.0713472664" lon="29.9902736954"><ele>80.89</ele><time>2026-04-25T14:31:12Z</time></trkpt><trkpt lat="59.0713451710" lon="29.9903292675"><ele>80.89</ele><time>2026-04-25T14:31:23Z</time></trkpt><trkpt lat="59.0713464282" lon="29.9903682433"><ele>80.89</ele><time>2026-04-25T14:31:33Z</time></trkpt><trkpt lat="59.0713914391" lon="29.9904432613"><ele>80.89</ele><time>2026-04-25T14:31:41Z</time></trkpt><trkpt lat="59.0714938659" lon="29.9906269927"><ele>80.89</ele><time>2026-04-25T14:31:56Z</time></trkpt><trkpt lat="59.0715323389" lon="29.9906917848"><ele>80.89</ele><time>2026-04-25T14:32:06Z</time></trkpt><trkpt lat="59.0715613402" lon="29.9907438364"><ele>80.89</ele><time>2026-04-25T14:32:15Z</time></trkpt><trkpt lat="59.0715992264" lon="29.9908480234"><ele>80.89</ele><time>2026-04-25T14:32:25Z</time></trkpt><trkpt lat="59.0716221929" lon="29.9909927789"><ele>80.89</ele><time>2026-04-25T14:32:37Z</time></trkpt><trkpt lat="59.0716236178" lon="29.9911760911"><ele>80.89</ele><time>2026-04-25T14:32:48Z</time></trkpt><trkpt lat="59.0716315806" lon="29.9913065974"><ele>80.89</ele><time>2026-04-25T14:32:58Z</time></trkpt><trkpt lat="59.0716483444" lon="29.9915042426"><ele>80.89</ele><time>2026-04-25T14:33:09Z</time></trkpt><trkpt lat="59.0716427285" lon="29.9915702920"><ele>80.89</ele><time>2026-04-25T14:33:20Z</time></trkpt><trkpt lat="59.0716207679" lon="29.9916221760"><ele>80.89</ele><time>2026-04-25T14:33:29Z</time></trkpt><trkpt lat="59.0716155712" lon="29.9916904885"><ele>80.89</ele><time>2026-04-25T14:33:42Z</time></trkpt><trkpt lat="59.0715916827" lon="29.9917212501"><ele>80.89</ele><time>2026-04-25T14:33:55Z</time></trkpt><trkpt lat="59.0715827141" lon="29.9917542748"><ele>80.89</ele><time>2026-04-25T14:34:09Z</time></trkpt><trkpt lat="59.0715760924" lon="29.9919219967"><ele>80.89</ele><time>2026-04-25T14:34:20Z</time></trkpt><trkpt lat="59.0715754218" lon="29.9919608887"><ele>80.89</ele><time>2026-04-25T14:34:22Z</time></trkpt><trkpt lat="59.0715998970" lon="29.9920218252"><ele>80.89</ele><time>2026-04-25T14:34:26Z</time></trkpt><trkpt lat="59.0716092847" lon="29.9922295287"><ele>80.89</ele><time>2026-04-25T14:34:37Z</time></trkpt><trkpt lat="59.0716102906" lon="29.9923360627"><ele>80.89</ele><time>2026-04-25T14:34:47Z</time></trkpt><trkpt lat="59.0715873241" lon="29.9924509786"><ele>80.89</ele><time>2026-04-25T14:34:57Z</time></trkpt><trkpt lat="59.0715754218" lon="29.9925090652"><ele>80.89</ele><time>2026-04-25T14:35:01Z</time></trkpt><trkpt lat="59.0715673752" lon="29.9926575925"><ele>80.89</ele><time>2026-04-25T14:35:12Z</time></trkpt><trkpt lat="59.0715602506" lon="29.9926623702"><ele>80.89</ele><time>2026-04-25T14:35:33Z</time></trkpt><trkpt lat="59.0715388767" lon="29.9926875159"><ele>80.89</ele><time>2026-04-25T14:36:00Z</time></trkpt><trkpt lat="59.0715324227" lon="29.9926842470"><ele>80.89</ele><time>2026-04-25T14:36:16Z</time></trkpt><trkpt lat="59.0714976378" lon="29.9926703330"><ele>80.89</ele><time>2026-04-25T14:36:23Z</time></trkpt><trkpt lat="59.0714227036" lon="29.9927303474"><ele>80.89</ele><time>2026-04-25T14:36:33Z</time></trkpt><trkpt lat="59.0714013297" lon="29.9927289225"><ele>80.89</ele><time>2026-04-25T14:36:36Z</time></trkpt><trkpt lat="59.0713714063" lon="29.9927207921"><ele>80.89</ele><time>2026-04-25T14:36:39Z</time></trkpt><trkpt lat="59.0713207796" lon="29.9928167649"><ele>80.89</ele><time>2026-04-25T14:36:47Z</time></trkpt><trkpt lat="59.0713133197" lon="29.9928311817"><ele>80.89</ele><time>2026-04-25T14:36:48Z</time></trkpt><trkpt lat="59.0712333564" lon="29.9928086344"><ele>80.89</ele><time>2026-04-25T14:36:58Z</time></trkpt><trkpt lat="59.0711879265" lon="29.9928393960"><ele>80.89</ele><time>2026-04-25T14:37:08Z</time></trkpt><trkpt lat="59.0711808857" lon="29.9928429164"><ele>80.89</ele><time>2026-04-25T14:37:09Z</time></trkpt><trkpt lat="59.0710647125" lon="29.9928870890"><ele>81.85</ele><time>2026-04-25T14:37:20Z</time></trkpt><trkpt lat="59.0709674824" lon="29.9930119794"><ele>81.85</ele><time>2026-04-25T14:37:33Z</time></trkpt><trkpt lat="59.0709494613" lon="29.9930400588"><ele>81.85</ele><time>2026-04-25T14:37:39Z</time></trkpt><trkpt lat="59.0709081385" lon="29.9930398073"><ele>81.85</ele><time>2026-04-25T14:37:47Z</time></trkpt><trkpt lat="59.0708463639" lon="29.9930743407"><ele>82.33</ele><time>2026-04-25T14:38:00Z</time></trkpt><trkpt lat="59.0708285943" lon="29.9931028392"><ele>82.33</ele><time>2026-04-25T14:38:09Z</time></trkpt><trkpt lat="59.0708007663" lon="29.9931244645"><ele>82.33</ele><time>2026-04-25T14:38:23Z</time></trkpt><trkpt lat="59.0707894508" lon="29.9931492750"><ele>82.33</ele><time>2026-04-25T14:38:48Z</time></trkpt><trkpt lat="59.0707834996" lon="29.9931641109"><ele>82.81</ele><time>2026-04-25T14:39:09Z</time></trkpt><trkpt lat="59.0707785543" lon="29.9931935314"><ele>82.33</ele><time>2026-04-25T14:39:33Z</time></trkpt><trkpt lat="59.0707876906" lon="29.9931834731"><ele>82.33</ele><time>2026-04-25T14:39:55Z</time></trkpt><trkpt lat="59.0707920492" lon="29.9931999855"><ele>82.33</ele><time>2026-04-25T14:40:20Z</time></trkpt><trkpt lat="59.0708109085" lon="29.9932403862"><ele>82.33</ele><time>2026-04-25T14:40:51Z</time></trkpt><trkpt lat="59.0708032809" lon="29.9932408053"><ele>82.33</ele><time>2026-04-25T14:41:19Z</time></trkpt><trkpt lat="59.0708022751" lon="29.9932144862"><ele>82.33</ele><time>2026-04-25T14:41:23Z</time></trkpt><trkpt lat="59.0708032809" lon="29.9931921065"><ele>82.33</ele><time>2026-04-25T14:41:25Z</time></trkpt><trkpt lat="59.0708059631" lon="29.9931398872"><ele>82.33</ele><time>2026-04-25T14:41:33Z</time></trkpt><trkpt lat="59.0707948152" lon="29.9930212833"><ele>82.33</ele><time>2026-04-25T14:41:42Z</time></trkpt><trkpt lat="59.0707964078" lon="29.9929286633"><ele>82.33</ele><time>2026-04-25T14:41:47Z</time></trkpt><trkpt lat="59.0708383173" lon="29.9926986638"><ele>82.33</ele><time>2026-04-25T14:42:01Z</time></trkpt><trkpt lat="59.0708371438" lon="29.9924544152"><ele>82.33</ele><time>2026-04-25T14:42:11Z</time></trkpt><trkpt lat="59.0708782151" lon="29.9922463764"><ele>82.33</ele><time>2026-04-25T14:42:24Z</time></trkpt><trkpt lat="59.0708834119" lon="29.9920991063"><ele>82.33</ele><time>2026-04-25T14:42:34Z</time></trkpt><trkpt lat="59.0708622057" lon="29.9919082504"><ele>82.33</ele><time>2026-04-25T14:42:46Z</time></trkpt><trkpt lat="59.0708666481" lon="29.9917344097"><ele>82.33</ele><time>2026-04-25T14:42:57Z</time></trkpt><trkpt lat="59.0709044505" lon="29.9915203359"><ele>82.33</ele><time>2026-04-25T14:43:08Z</time></trkpt><trkpt lat="59.0709250700" lon="29.9914428871"><ele>82.33</ele><time>2026-04-25T14:43:14Z</time></trkpt><trkpt lat="59.0709617827" lon="29.9913332518"><ele>82.33</ele><time>2026-04-25T14:43:22Z</time></trkpt><trkpt lat="59.0709794685" lon="29.9911764264"><ele>82.33</ele><time>2026-04-25T14:43:33Z</time></trkpt><trkpt lat="59.0709780436" lon="29.9911602493"><ele>82.33</ele><time>2026-04-25T14:43:34Z</time></trkpt><trkpt lat="59.0709871799" lon="29.9909830559"><ele>82.33</ele><time>2026-04-25T14:43:45Z</time></trkpt><trkpt lat="59.0709816478" lon="29.9908372108"><ele>82.33</ele><time>2026-04-25T14:43:58Z</time></trkpt><trkpt lat="59.0709863417" lon="29.9907770287"><ele>82.33</ele><time>2026-04-25T14:44:24Z</time></trkpt><trkpt lat="59.0709865093" lon="29.9906771164"><ele>82.81</ele><time>2026-04-25T14:44:36Z</time></trkpt><trkpt lat="59.0709691588" lon="29.9905336183"><ele>82.81</ele><time>2026-04-25T14:44:46Z</time></trkpt><trkpt lat="59.0709759481" lon="29.9903744459"><ele>82.81</ele><time>2026-04-25T14:44:57Z</time></trkpt><trkpt lat="59.0709761996" lon="29.9903343804"><ele>82.81</ele><time>2026-04-25T14:44:59Z</time></trkpt><trkpt lat="59.0709868446" lon="29.9901195522"><ele>82.81</ele><time>2026-04-25T14:45:11Z</time></trkpt><trkpt lat="59.0709942207" lon="29.9900494795"><ele>82.81</ele><time>2026-04-25T14:45:22Z</time></trkpt><trkpt lat="59.0709964838" lon="29.9900394212"><ele>82.81</ele><time>2026-04-25T14:45:23Z</time></trkpt><trkpt lat="59.0710087214" lon="29.9899858609"><ele>82.81</ele><time>2026-04-25T14:45:35Z</time></trkpt><trkpt lat="59.0710269101" lon="29.9899421073"><ele>82.81</ele><time>2026-04-25T14:45:53Z</time></trkpt><trkpt lat="59.0710331127" lon="29.9899426103"><ele>82.81</ele><time>2026-04-25T14:45:54Z</time></trkpt><trkpt lat="59.0710303467" lon="29.9898499902"><ele>82.81</ele><time>2026-04-25T14:46:05Z</time></trkpt><trkpt lat="59.0710446797" lon="29.9897250999"><ele>82.81</ele><time>2026-04-25T14:46:18Z</time></trkpt><trkpt lat="59.0710722562" lon="29.9896784127"><ele>82.81</ele><time>2026-04-25T14:46:30Z</time></trkpt><trkpt lat="59.0710733458" lon="29.9896212481"><ele>82.81</ele><time>2026-04-25T14:46:39Z</time></trkpt><trkpt lat="59.0710759442" lon="29.9895659275"><ele>82.81</ele><time>2026-04-25T14:46:41Z</time></trkpt><trkpt lat="59.0710993297" lon="29.9894204177"><ele>82.81</ele><time>2026-04-25T14:46:51Z</time></trkpt><trkpt lat="59.0710956417" lon="29.9894068390"><ele>82.81</ele><time>2026-04-25T14:46:52Z</time></trkpt><trkpt lat="59.0711224638" lon="29.9892541207"><ele>82.81</ele><time>2026-04-25T14:47:03Z</time></trkpt><trkpt lat="59.0711481962" lon="29.9891969562"><ele>82.81</ele><time>2026-04-25T14:47:17Z</time></trkpt><trkpt lat="59.0711718332" lon="29.9891107902"><ele>82.81</ele><time>2026-04-25T14:47:35Z</time></trkpt><trkpt lat="59.0711893514" lon="29.9890442379"><ele>82.81</ele><time>2026-04-25T14:47:39Z</time></trkpt><trkpt lat="59.0711805504" lon="29.9888206087"><ele>82.81</ele><time>2026-04-25T14:47:51Z</time></trkpt><trkpt lat="59.0711751021" lon="29.9886621069"><ele>82.81</ele><time>2026-04-25T14:48:02Z</time></trkpt><trkpt lat="59.0711617749" lon="29.9885284994"><ele>82.81</ele><time>2026-04-25T14:48:14Z</time></trkpt><trkpt lat="59.0711623617" lon="29.9883931316"><ele>82.81</ele><time>2026-04-25T14:48:27Z</time></trkpt><trkpt lat="59.0711641219" lon="29.9883578438"><ele>83.77</ele><time>2026-04-25T14:48:41Z</time></trkpt><trkpt lat="59.0711552370" lon="29.9883492105"><ele>83.77</ele><time>2026-04-25T14:48:42Z</time></trkpt><trkpt lat="59.0711290017" lon="29.9881874397"><ele>83.77</ele><time>2026-04-25T14:48:54Z</time></trkpt><trkpt lat="59.0711149201" lon="29.9880823307"><ele>83.77</ele><time>2026-04-25T14:49:04Z</time></trkpt><trkpt lat="59.0710604377" lon="29.9880213104"><ele>83.77</ele><time>2026-04-25T14:49:15Z</time></trkpt><trkpt lat="59.0710088890" lon="29.9879358988"><ele>83.77</ele><time>2026-04-25T14:49:26Z</time></trkpt><trkpt lat="59.0709859226" lon="29.9878983479"><ele>83.77</ele><time>2026-04-25T14:49:36Z</time></trkpt><trkpt lat="59.0709666442" lon="29.9878634792"><ele>83.77</ele><time>2026-04-25T14:49:50Z</time></trkpt><trkpt lat="59.0709648840" lon="29.9878362380"><ele>84.25</ele><time>2026-04-25T14:50:18Z</time></trkpt><trkpt lat="59.0709542390" lon="29.9878353998"><ele>84.25</ele><time>2026-04-25T14:50:41Z</time></trkpt><trkpt lat="59.0708973259" lon="29.9878399260"><ele>84.25</ele><time>2026-04-25T14:50:51Z</time></trkpt><trkpt lat="59.0708639659" lon="29.9878207315"><ele>84.25</ele><time>2026-04-25T14:51:05Z</time></trkpt><trkpt lat="59.0708346292" lon="29.9877785705"><ele>83.29</ele><time>2026-04-25T14:51:29Z</time></trkpt><trkpt lat="59.0708302706" lon="29.9877639860"><ele>83.29</ele><time>2026-04-25T14:51:51Z</time></trkpt><trkpt lat="59.0707647242" lon="29.9877274409"><ele>83.29</ele><time>2026-04-25T14:52:03Z</time></trkpt><trkpt lat="59.0706445277" lon="29.9877001159"><ele>83.29</ele><time>2026-04-25T14:52:15Z</time></trkpt><trkpt lat="59.0705505665" lon="29.9876834359"><ele>83.29</ele><time>2026-04-25T14:52:28Z</time></trkpt><trkpt lat="59.0704897977" lon="29.9876554403"><ele>82.81</ele><time>2026-04-25T14:52:36Z</time></trkpt><trkpt lat="59.0704097506" lon="29.9876546860"><ele>82.81</ele><time>2026-04-25T14:52:49Z</time></trkpt><trkpt lat="59.0703512449" lon="29.9876592122"><ele>82.81</ele><time>2026-04-25T14:52:55Z</time></trkpt><trkpt lat="59.0702307131" lon="29.9875611439"><ele>82.81</ele><time>2026-04-25T14:53:11Z</time></trkpt><trkpt lat="59.0702339821" lon="29.9875359144"><ele>82.33</ele><time>2026-04-25T14:53:42Z</time></trkpt><trkpt lat="59.0702222474" lon="29.9875429552"><ele>82.33</ele><time>2026-04-25T14:54:08Z</time></trkpt><trkpt lat="59.0701774880" lon="29.9875431228"><ele>82.33</ele><time>2026-04-25T14:54:17Z</time></trkpt><trkpt lat="59.0700594708" lon="29.9875347409"><ele>82.33</ele><time>2026-04-25T14:54:28Z</time></trkpt><trkpt lat="59.0700551961" lon="29.9875402730"><ele>82.33</ele><time>2026-04-25T14:54:54Z</time></trkpt><trkpt lat="59.0700319782" lon="29.9876245111"><ele>81.85</ele><time>2026-04-25T14:55:19Z</time></trkpt><trkpt lat="59.0700275358" lon="29.9876685999"><ele>81.85</ele><time>2026-04-25T14:55:29Z</time></trkpt><trkpt lat="59.0700065810" lon="29.9878867809"><ele>81.85</ele><time>2026-04-25T14:55:41Z</time></trkpt><trkpt lat="59.0700041503" lon="29.9879054725"><ele>81.85</ele><time>2026-04-25T14:55:44Z</time></trkpt><trkpt lat="59.0699871350" lon="29.9879746232"><ele>81.85</ele><time>2026-04-25T14:55:49Z</time></trkpt><trkpt lat="59.0699697845" lon="29.9880857673"><ele>81.85</ele><time>2026-04-25T14:55:59Z</time></trkpt><trkpt lat="59.0699641686" lon="29.9881267548"><ele>81.85</ele><time>2026-04-25T14:56:01Z</time></trkpt><trkpt lat="59.0699282102" lon="29.9882886093"><ele>81.85</ele><time>2026-04-25T14:56:12Z</time></trkpt><trkpt lat="59.0699217562" lon="29.9883220531"><ele>81.85</ele><time>2026-04-25T14:56:16Z</time></trkpt><trkpt lat="59.0699087642" lon="29.9884807225"><ele>81.85</ele><time>2026-04-25T14:56:27Z</time></trkpt><trkpt lat="59.0699199960" lon="29.9886421580"><ele>81.85</ele><time>2026-04-25T14:56:38Z</time></trkpt><trkpt lat="59.0699436329" lon="29.9887659587"><ele>81.85</ele><time>2026-04-25T14:56:49Z</time></trkpt><trkpt lat="59.0699714608" lon="29.9888809584"><ele>81.85</ele><time>2026-04-25T14:57:00Z</time></trkpt><trkpt lat="59.0699580498" lon="29.9890082795"><ele>81.85</ele><time>2026-04-25T14:57:10Z</time></trkpt><trkpt lat="59.0699589718" lon="29.9890292343"><ele>83.29</ele><time>2026-04-25T14:57:27Z</time></trkpt><trkpt lat="59.0699632466" lon="29.9890762568"><ele>83.29</ele><time>2026-04-25T14:57:40Z</time></trkpt><trkpt lat="59.0699646715" lon="29.9892304838"><ele>82.33</ele><time>2026-04-25T14:57:53Z</time></trkpt><trkpt lat="59.0699826088" lon="29.9892957788"><ele>82.33</ele><time>2026-04-25T14:58:03Z</time></trkpt><trkpt lat="59.0699895658" lon="29.9893241934"><ele>82.33</ele><time>2026-04-25T14:58:05Z</time></trkpt><trkpt lat="59.0699968580" lon="29.9894129578"><ele>82.33</ele><time>2026-04-25T14:58:18Z</time></trkpt><trkpt lat="59.0699845366" lon="29.9894581363"><ele>82.33</ele><time>2026-04-25T14:58:32Z</time></trkpt><trkpt lat="59.0699847881" lon="29.9895881396"><ele>82.33</ele><time>2026-04-25T14:58:43Z</time></trkpt><trkpt lat="59.0699936729" lon="29.9896999542"><ele>82.33</ele><time>2026-04-25T14:58:52Z</time></trkpt><trkpt lat="59.0700148791" lon="29.9897933286"><ele>82.33</ele><time>2026-04-25T14:59:03Z</time></trkpt><trkpt lat="59.0700168908" lon="29.9898631498"><ele>82.33</ele><time>2026-04-25T14:59:14Z</time></trkpt><trkpt lat="59.0700006299" lon="29.9899229966"><ele>82.33</ele><time>2026-04-25T14:59:34Z</time></trkpt><trkpt lat="59.0700134542" lon="29.9899997748"><ele>82.33</ele><time>2026-04-25T14:59:48Z</time></trkpt><trkpt lat="59.0700267814" lon="29.9901042134"><ele>82.33</ele><time>2026-04-25T14:59:53Z</time></trkpt><trkpt lat="59.0700604767" lon="29.9902648106"><ele>82.33</ele><time>2026-04-25T15:00:02Z</time></trkpt><trkpt lat="59.0700590517" lon="29.9903420918"><ele>82.33</ele><time>2026-04-25T15:00:09Z</time></trkpt><trkpt lat="59.0700070001" lon="29.9904912896"><ele>82.33</ele><time>2026-04-25T15:00:22Z</time></trkpt><trkpt lat="59.0699984506" lon="29.9905303493"><ele>82.33</ele><time>2026-04-25T15:00:39Z</time></trkpt><trkpt lat="59.0700043179" lon="29.9905710854"><ele>82.33</ele><time>2026-04-25T15:00:50Z</time></trkpt><trkpt lat="59.0699856263" lon="29.9906373862"><ele>82.33</ele><time>2026-04-25T15:01:02Z</time></trkpt><trkpt lat="59.0699879732" lon="29.9907442555"><ele>82.33</ele><time>2026-04-25T15:01:19Z</time></trkpt><trkpt lat="59.0699743107" lon="29.9907733407"><ele>82.33</ele><time>2026-04-25T15:01:22Z</time></trkpt><trkpt lat="59.0699434653" lon="29.9908121489"><ele>82.33</ele><time>2026-04-25T15:01:32Z</time></trkpt><trkpt lat="59.0699011367" lon="29.9908850715"><ele>82.33</ele><time>2026-04-25T15:01:42Z</time></trkpt><trkpt lat="59.0698757395" lon="29.9908967223"><ele>82.33</ele><time>2026-04-25T15:01:53Z</time></trkpt><trkpt lat="59.0698639210" lon="29.9909079541"><ele>82.33</ele><time>2026-04-25T15:01:58Z</time></trkpt><trkpt lat="59.0698580537" lon="29.9909468461"><ele>82.33</ele><time>2026-04-25T15:02:09Z</time></trkpt><trkpt lat="59.0698552877" lon="29.9910133984"><ele>82.33</ele><time>2026-04-25T15:02:19Z</time></trkpt><trkpt lat="59.0698353387" lon="29.9910398852"><ele>82.33</ele><time>2026-04-25T15:02:33Z</time></trkpt><trkpt lat="59.0698283818" lon="29.9910514522"><ele>82.33</ele><time>2026-04-25T15:02:38Z</time></trkpt><trkpt lat="59.0697960276" lon="29.9910689704"><ele>82.33</ele><time>2026-04-25T15:02:44Z</time></trkpt><trkpt lat="59.0697827004" lon="29.9911292363"><ele>82.33</ele><time>2026-04-25T15:02:54Z</time></trkpt><trkpt lat="59.0697793476" lon="29.9911572319"><ele>82.33</ele><time>2026-04-25T15:02:59Z</time></trkpt><trkpt lat="59.0697511006" lon="29.9912875704"><ele>82.33</ele><time>2026-04-25T15:03:11Z</time></trkpt><trkpt lat="59.0697492566" lon="29.9913454056"><ele>82.33</ele><time>2026-04-25T15:03:15Z</time></trkpt><trkpt lat="59.0697674453" lon="29.9914291408"><ele>82.33</ele><time>2026-04-25T15:03:19Z</time></trkpt><trkpt lat="59.0697505977" lon="29.9915614910"><ele>82.33</ele><time>2026-04-25T15:03:28Z</time></trkpt><trkpt lat="59.0696930978" lon="29.9916639179"><ele>82.33</ele><time>2026-04-25T15:03:38Z</time></trkpt><trkpt lat="59.0697055031" lon="29.9917403609"><ele>82.33</ele><time>2026-04-25T15:03:48Z</time></trkpt><trkpt lat="59.0697434731" lon="29.9918427877"><ele>82.33</ele><time>2026-04-25T15:03:58Z</time></trkpt><trkpt lat="59.0697402880" lon="29.9919011258"><ele>82.33</ele><time>2026-04-25T15:04:07Z</time></trkpt><trkpt lat="59.0697494242" lon="29.9919075798"><ele>82.81</ele><time>2026-04-25T15:04:21Z</time></trkpt><trkpt lat="59.0697658528" lon="29.9919002876"><ele>82.81</ele><time>2026-04-25T15:04:40Z</time></trkpt><trkpt lat="59.0697591472" lon="29.9918783270"><ele>82.81</ele><time>2026-04-25T15:04:54Z</time></trkpt><trkpt lat="59.0697693732" lon="29.9920207355"><ele>82.81</ele><time>2026-04-25T15:05:04Z</time></trkpt><trkpt lat="59.0697967820" lon="29.9922055565"><ele>83.77</ele><time>2026-04-25T15:05:18Z</time></trkpt><trkpt lat="59.0698177367" lon="29.9923566822"><ele>84.25</ele><time>2026-04-25T15:05:27Z</time></trkpt><trkpt lat="59.0698811039" lon="29.9924860988"><ele>84.25</ele><time>2026-04-25T15:05:39Z</time></trkpt><trkpt lat="59.0698913299" lon="29.9927280005"><ele>84.25</ele><time>2026-04-25T15:05:52Z</time></trkpt><trkpt lat="59.0698964428" lon="29.9928943813"><ele>84.25</ele><time>2026-04-25T15:06:04Z</time></trkpt><trkpt lat="59.0698551200" lon="29.9930703174"><ele>83.77</ele><time>2026-04-25T15:06:17Z</time></trkpt><trkpt lat="59.0698310640" lon="29.9931735825"><ele>83.77</ele><time>2026-04-25T15:06:24Z</time></trkpt><trkpt lat="59.0697982907" lon="29.9932761770"><ele>84.73</ele><time>2026-04-25T15:06:35Z</time></trkpt><trkpt lat="59.0698101092" lon="29.9933392927"><ele>84.73</ele><time>2026-04-25T15:06:46Z</time></trkpt><trkpt lat="59.0698477440" lon="29.9933084473"><ele>84.73</ele><time>2026-04-25T15:06:57Z</time></trkpt><trkpt lat="59.0698833670" lon="29.9932837207"><ele>84.73</ele><time>2026-04-25T15:07:10Z</time></trkpt><trkpt lat="59.0698863007" lon="29.9932862353"><ele>84.73</ele><time>2026-04-25T15:07:26Z</time></trkpt><trkpt lat="59.0698898211" lon="29.9932842236"><ele>84.73</ele><time>2026-04-25T15:07:51Z</time></trkpt><trkpt lat="59.0698998794" lon="29.9933029152"><ele>84.73</ele><time>2026-04-25T15:08:20Z</time></trkpt><trkpt lat="59.0699241031" lon="29.9933501892"><ele>84.73</ele><time>2026-04-25T15:08:51Z</time></trkpt><trkpt lat="59.0699080098" lon="29.9933813699"><ele>84.73</ele><time>2026-04-25T15:09:16Z</time></trkpt><trkpt lat="59.0699225944" lon="29.9934285600"><ele>84.25</ele><time>2026-04-25T15:09:43Z</time></trkpt><trkpt lat="59.0699154697" lon="29.9934414681"><ele>84.25</ele><time>2026-04-25T15:10:10Z</time></trkpt><trkpt lat="59.0699489135" lon="29.9934301525"><ele>84.25</ele><time>2026-04-25T15:10:34Z</time></trkpt><trkpt lat="59.0699598938" lon="29.9933920149"><ele>84.25</ele><time>2026-04-25T15:11:02Z</time></trkpt><trkpt lat="59.0699580498" lon="29.9933405500"><ele>84.25</ele><time>2026-04-25T15:11:25Z</time></trkpt><trkpt lat="59.0699515957" lon="29.9933884945"><ele>84.25</ele><time>2026-04-25T15:12:01Z</time></trkpt><trkpt lat="59.0699510928" lon="29.9933694676"><ele>84.25</ele><time>2026-04-25T15:12:34Z</time></trkpt><trkpt lat="59.0699404478" lon="29.9933435675"><ele>84.25</ele><time>2026-04-25T15:13:04Z</time></trkpt><trkpt lat="59.0699488297" lon="29.9933374487"><ele>84.73</ele><time>2026-04-25T15:13:32Z</time></trkpt><trkpt lat="59.0699324012" lon="29.9934021570"><ele>85.21</ele><time>2026-04-25T15:13:43Z</time></trkpt><trkpt lat="59.0699028131" lon="29.9934607465"><ele>85.21</ele><time>2026-04-25T15:13:51Z</time></trkpt><trkpt lat="59.0698831994" lon="29.9934884068"><ele>85.21</ele><time>2026-04-25T15:14:06Z</time></trkpt><trkpt lat="59.0698846243" lon="29.9935991317"><ele>85.69</ele><time>2026-04-25T15:14:15Z</time></trkpt><trkpt lat="59.0698796790" lon="29.9939186499"><ele>85.69</ele><time>2026-04-25T15:14:28Z</time></trkpt><trkpt lat="59.0698823612" lon="29.9939352460"><ele>82.33</ele><time>2026-04-25T15:14:34Z</time></trkpt><trkpt lat="59.0698909946" lon="29.9939583801"><ele>85.69</ele><time>2026-04-25T15:14:44Z</time></trkpt><trkpt lat="59.0698901564" lon="29.9939589668"><ele>88.10</ele><time>2026-04-25T15:14:48Z</time></trkpt><trkpt lat="59.0698894858" lon="29.9939578772"><ele>84.73</ele><time>2026-04-25T15:14:55Z</time></trkpt><trkpt lat="59.0698457323" lon="29.9939860404"><ele>86.18</ele><time>2026-04-25T15:15:05Z</time></trkpt><trkpt lat="59.0698191617" lon="29.9939957634"><ele>86.66</ele><time>2026-04-25T15:15:07Z</time></trkpt><trkpt lat="59.0696715564" lon="29.9940225855"><ele>86.66</ele><time>2026-04-25T15:15:20Z</time></trkpt><trkpt lat="59.0695516951" lon="29.9940793309"><ele>85.69</ele><time>2026-04-25T15:15:30Z</time></trkpt><trkpt lat="59.0694605000" lon="29.9940892216"><ele>85.69</ele><time>2026-04-25T15:15:40Z</time></trkpt><trkpt lat="59.0694009047" lon="29.9940806720"><ele>85.69</ele><time>2026-04-25T15:15:49Z</time></trkpt><trkpt lat="59.0693883318" lon="29.9941012077"><ele>85.69</ele><time>2026-04-25T15:16:07Z</time></trkpt><trkpt lat="59.0693806205" lon="29.9941062368"><ele>85.69</ele><time>2026-04-25T15:16:34Z</time></trkpt><trkpt lat="59.0693703108" lon="29.9941019621"><ele>86.18</ele><time>2026-04-25T15:17:01Z</time></trkpt><trkpt lat="59.0693551395" lon="29.9939891417"><ele>86.18</ele><time>2026-04-25T15:17:18Z</time></trkpt><trkpt lat="59.0693915170" lon="29.9938599765"><ele>86.18</ele><time>2026-04-25T15:17:30Z</time></trkpt><trkpt lat="59.0693628509" lon="29.9937142152"><ele>86.18</ele><time>2026-04-25T15:17:41Z</time></trkpt><trkpt lat="59.0693415608" lon="29.9936212599"><ele>86.18</ele><time>2026-04-25T15:17:51Z</time></trkpt><trkpt lat="59.0693396330" lon="29.9934381153"><ele>86.18</ele><time>2026-04-25T15:18:03Z</time></trkpt><trkpt lat="59.0693223663" lon="29.9932905938"><ele>86.18</ele><time>2026-04-25T15:18:15Z</time></trkpt><trkpt lat="59.0693216119" lon="29.9932397995"><ele>86.18</ele><time>2026-04-25T15:18:19Z</time></trkpt><trkpt lat="59.0692855697" lon="29.9930642825"><ele>85.69</ele><time>2026-04-25T15:18:30Z</time></trkpt><trkpt lat="59.0693056863" lon="29.9929191079"><ele>85.69</ele><time>2026-04-25T15:18:42Z</time></trkpt><trkpt lat="59.0693010762" lon="29.9927278329"><ele>85.69</ele><time>2026-04-25T15:18:54Z</time></trkpt><trkpt lat="59.0693363640" lon="29.9927151762"><ele>85.69</ele><time>2026-04-25T15:19:08Z</time></trkpt><trkpt lat="59.0693997312" lon="29.9927275814"><ele>85.69</ele><time>2026-04-25T15:19:20Z</time></trkpt><trkpt lat="59.0693747532" lon="29.9927235581"><ele>85.69</ele><time>2026-04-25T15:19:36Z</time></trkpt><trkpt lat="59.0693124756" lon="29.9926473666"><ele>85.21</ele><time>2026-04-25T15:19:49Z</time></trkpt><trkpt lat="59.0692844801" lon="29.9925741926"><ele>85.21</ele><time>2026-04-25T15:20:03Z</time></trkpt><trkpt lat="59.0692248009" lon="29.9923985079"><ele>85.21</ele><time>2026-04-25T15:20:14Z</time></trkpt><trkpt lat="59.0692054387" lon="29.9922136869"><ele>85.21</ele><time>2026-04-25T15:20:27Z</time></trkpt><trkpt lat="59.0692110546" lon="29.9920835998"><ele>85.21</ele><time>2026-04-25T15:20:38Z</time></trkpt><trkpt lat="59.0692213643" lon="29.9919195659"><ele>84.25</ele><time>2026-04-25T15:20:50Z</time></trkpt><trkpt lat="59.0692550596" lon="29.9918289576"><ele>84.25</ele><time>2026-04-25T15:20:59Z</time></trkpt><trkpt lat="59.0692548919" lon="29.9917262793"><ele>83.77</ele><time>2026-04-25T15:21:08Z</time></trkpt><trkpt lat="59.0692610946" lon="29.9916325696"><ele>83.77</ele><time>2026-04-25T15:21:18Z</time></trkpt><trkpt lat="59.0692604240" lon="29.9915247783"><ele>83.77</ele><time>2026-04-25T15:21:30Z</time></trkpt><trkpt lat="59.0692586638" lon="29.9914815277"><ele>83.77</ele><time>2026-04-25T15:21:35Z</time></trkpt><trkpt lat="59.0692790318" lon="29.9913711380"><ele>83.29</ele><time>2026-04-25T15:21:47Z</time></trkpt><trkpt lat="59.0692760982" lon="29.9912629277"><ele>83.29</ele><time>2026-04-25T15:21:57Z</time></trkpt><trkpt lat="59.0692558140" lon="29.9911569804"><ele>83.29</ele><time>2026-04-25T15:22:12Z</time></trkpt><trkpt lat="59.0692527127" lon="29.9910910148"><ele>83.29</ele><time>2026-04-25T15:22:23Z</time></trkpt><trkpt lat="59.0692444146" lon="29.9909431580"><ele>83.29</ele><time>2026-04-25T15:22:35Z</time></trkpt><trkpt lat="59.0692609269" lon="29.9907147512"><ele>82.81</ele><time>2026-04-25T15:22:46Z</time></trkpt><trkpt lat="59.0692028403" lon="29.9905720074"><ele>82.81</ele><time>2026-04-25T15:22:57Z</time></trkpt><trkpt lat="59.0691638645" lon="29.9905024376"><ele>82.81</ele><time>2026-04-25T15:23:08Z</time></trkpt><trkpt lat="59.0691447537" lon="29.9903021939"><ele>82.81</ele><time>2026-04-25T15:23:19Z</time></trkpt><trkpt lat="59.0691330191" lon="29.9901281856"><ele>82.33</ele><time>2026-04-25T15:23:30Z</time></trkpt><trkpt lat="59.0691305883" lon="29.9900086597"><ele>82.33</ele><time>2026-04-25T15:23:41Z</time></trkpt><trkpt lat="59.0690814704" lon="29.9898142833"><ele>82.33</ele><time>2026-04-25T15:23:54Z</time></trkpt><trkpt lat="59.0690885112" lon="29.9897949211"><ele>81.85</ele><time>2026-04-25T15:24:20Z</time></trkpt><trkpt lat="59.0690993238" lon="29.9895843677"><ele>81.85</ele><time>2026-04-25T15:24:35Z</time></trkpt><trkpt lat="59.0691500343" lon="29.9894266203"><ele>81.85</ele><time>2026-04-25T15:24:45Z</time></trkpt><trkpt lat="59.0691739228" lon="29.9892825354"><ele>81.85</ele><time>2026-04-25T15:24:57Z</time></trkpt><trkpt lat="59.0691476874" lon="29.9891051743"><ele>81.85</ele><time>2026-04-25T15:25:09Z</time></trkpt><trkpt lat="59.0691493638" lon="29.9889553059"><ele>81.85</ele><time>2026-04-25T15:25:20Z</time></trkpt><trkpt lat="59.0691698156" lon="29.9887900986"><ele>81.85</ele><time>2026-04-25T15:25:30Z</time></trkpt><trkpt lat="59.0691430774" lon="29.9886409007"><ele>81.85</ele><time>2026-04-25T15:25:41Z</time></trkpt><trkpt lat="59.0691386349" lon="29.9885346182"><ele>81.85</ele><time>2026-04-25T15:25:58Z</time></trkpt><trkpt lat="59.0691735037" lon="29.9883632921"><ele>81.85</ele><time>2026-04-25T15:26:10Z</time></trkpt><trkpt lat="59.0691746771" lon="29.9882544950"><ele>81.85</ele><time>2026-04-25T15:26:19Z</time></trkpt><trkpt lat="59.0691787843" lon="29.9882320315"><ele>81.85</ele><time>2026-04-25T15:26:21Z</time></trkpt><trkpt lat="59.0691487771" lon="29.9880625494"><ele>81.85</ele><time>2026-04-25T15:26:31Z</time></trkpt><trkpt lat="59.0691300854" lon="29.9879054725"><ele>81.37</ele><time>2026-04-25T15:26:42Z</time></trkpt><trkpt lat="59.0691311751" lon="29.9878838472"><ele>81.37</ele><time>2026-04-25T15:26:45Z</time></trkpt><trkpt lat="59.0691319294" lon="29.9877986033"><ele>81.37</ele><time>2026-04-25T15:26:57Z</time></trkpt><trkpt lat="59.0691229608" lon="29.9877096713"><ele>81.37</ele><time>2026-04-25T15:27:11Z</time></trkpt><trkpt lat="59.0691531356" lon="29.9875509180"><ele>81.37</ele><time>2026-04-25T15:27:24Z</time></trkpt><trkpt lat="59.0691630263" lon="29.9874507543"><ele>81.37</ele><time>2026-04-25T15:27:35Z</time></trkpt><trkpt lat="59.0691616014" lon="29.9873878062"><ele>81.37</ele><time>2026-04-25T15:27:49Z</time></trkpt><trkpt lat="59.0691769402" lon="29.9872354232"><ele>81.37</ele><time>2026-04-25T15:28:01Z</time></trkpt><trkpt lat="59.0691797901" lon="29.9871080182"><ele>81.37</ele><time>2026-04-25T15:28:13Z</time></trkpt><trkpt lat="59.0691620205" lon="29.9869987182"><ele>81.37</ele><time>2026-04-25T15:28:25Z</time></trkpt><trkpt lat="59.0691622719" lon="29.9869944435"><ele>81.37</ele><time>2026-04-25T15:28:26Z</time></trkpt><trkpt lat="59.0691528004" lon="29.9868945312"><ele>81.37</ele><time>2026-04-25T15:28:38Z</time></trkpt><trkpt lat="59.0691049397" lon="29.9867779389"><ele>81.37</ele><time>2026-04-25T15:28:51Z</time></trkpt><trkpt lat="59.0690899361" lon="29.9866296630"><ele>81.37</ele><time>2026-04-25T15:29:03Z</time></trkpt><trkpt lat="59.0690243896" lon="29.9865144119"><ele>81.37</ele><time>2026-04-25T15:29:16Z</time></trkpt><trkpt lat="59.0689886827" lon="29.9863989931"><ele>81.37</ele><time>2026-04-25T15:29:28Z</time></trkpt><trkpt lat="59.0689905267" lon="29.9862947222"><ele>81.37</ele><time>2026-04-25T15:29:34Z</time></trkpt><trkpt lat="59.0689093899" lon="29.9861739390"><ele>81.37</ele><time>2026-04-25T15:29:46Z</time></trkpt><trkpt lat="59.0688906144" lon="29.9861367233"><ele>80.89</ele><time>2026-04-25T15:30:00Z</time></trkpt><trkpt lat="59.0688927099" lon="29.9861233123"><ele>80.89</ele><time>2026-04-25T15:30:17Z</time></trkpt><trkpt lat="59.0688865073" lon="29.9861163553"><ele>80.89</ele><time>2026-04-25T15:30:45Z</time></trkpt><trkpt lat="59.0688964818" lon="29.9860148504"><ele>81.37</ele><time>2026-04-25T15:30:56Z</time></trkpt><trkpt lat="59.0688525606" lon="29.9858679995"><ele>80.89</ele><time>2026-04-25T15:31:09Z</time></trkpt><trkpt lat="59.0687997546" lon="29.9857004452"><ele>80.89</ele><time>2026-04-25T15:31:22Z</time></trkpt><trkpt lat="59.0687822364" lon="29.9855832662"><ele>80.89</ele><time>2026-04-25T15:31:34Z</time></trkpt><trkpt lat="59.0687785484" lon="29.9855685141"><ele>80.89</ele><time>2026-04-25T15:31:45Z</time></trkpt><trkpt lat="59.0687314421" lon="29.9855801649"><ele>80.89</ele><time>2026-04-25T15:31:56Z</time></trkpt><trkpt lat="59.0687154327" lon="29.9855282810"><ele>80.89</ele><time>2026-04-25T15:32:07Z</time></trkpt><trkpt lat="59.0686347149" lon="29.9854810070"><ele>80.89</ele><time>2026-04-25T15:32:18Z</time></trkpt><trkpt lat="59.0685330424" lon="29.9854352418"><ele>80.89</ele><time>2026-04-25T15:32:29Z</time></trkpt><trkpt lat="59.0684303641" lon="29.9854504969"><ele>80.89</ele><time>2026-04-25T15:32:42Z</time></trkpt><trkpt lat="59.0684052184" lon="29.9854034744"><ele>80.89</ele><time>2026-04-25T15:32:56Z</time></trkpt><trkpt lat="59.0683731157" lon="29.9853266124"><ele>80.89</ele><time>2026-04-25T15:33:17Z</time></trkpt><trkpt lat="59.0683560167" lon="29.9852666818"><ele>80.89</ele><time>2026-04-25T15:33:31Z</time></trkpt><trkpt lat="59.0683343075" lon="29.9852223415"><ele>80.89</ele><time>2026-04-25T15:33:48Z</time></trkpt><trkpt lat="59.0682594571" lon="29.9851192441"><ele>80.89</ele><time>2026-04-25T15:34:00Z</time></trkpt><trkpt lat="59.0682414360" lon="29.9851052463"><ele>80.89</ele><time>2026-04-25T15:34:02Z</time></trkpt><trkpt lat="59.0681684297" lon="29.9849085230"><ele>80.89</ele><time>2026-04-25T15:34:16Z</time></trkpt><trkpt lat="59.0681051463" lon="29.9847119674"><ele>80.89</ele><time>2026-04-25T15:34:27Z</time></trkpt><trkpt lat="59.0680364147" lon="29.9846706446"><ele>80.89</ele><time>2026-04-25T15:34:40Z</time></trkpt><trkpt lat="59.0680178069" lon="29.9846618436"><ele>80.89</ele><time>2026-04-25T15:34:55Z</time></trkpt><trkpt lat="59.0679651685" lon="29.9846441578"><ele>80.89</ele><time>2026-04-25T15:35:07Z</time></trkpt><trkpt lat="59.0679496620" lon="29.9846303277"><ele>80.41</ele><time>2026-04-25T15:35:27Z</time></trkpt><trkpt lat="59.0679012146" lon="29.9845934473"><ele>80.41</ele><time>2026-04-25T15:35:38Z</time></trkpt><trkpt lat="59.0678906534" lon="29.9845912680"><ele>80.41</ele><time>2026-04-25T15:35:39Z</time></trkpt><trkpt lat="59.0677834488" lon="29.9845798686"><ele>80.89</ele><time>2026-04-25T15:35:51Z</time></trkpt><trkpt lat="59.0676640905" lon="29.9845187645"><ele>80.41</ele><time>2026-04-25T15:36:04Z</time></trkpt><trkpt lat="59.0676043276" lon="29.9844869133"><ele>81.85</ele><time>2026-04-25T15:36:22Z</time></trkpt><trkpt lat="59.0675785113" lon="29.9844893441"><ele>81.85</ele><time>2026-04-25T15:36:36Z</time></trkpt><trkpt lat="59.0675361827" lon="29.9844669644"><ele>81.85</ele><time>2026-04-25T15:36:47Z</time></trkpt><trkpt lat="59.0674827900" lon="29.9844497815"><ele>81.85</ele><time>2026-04-25T15:36:57Z</time></trkpt><trkpt lat="59.0673868172" lon="29.9844545592"><ele>81.85</ele><time>2026-04-25T15:37:08Z</time></trkpt><trkpt lat="59.0672900900" lon="29.9843851570"><ele>81.85</ele><time>2026-04-25T15:37:21Z</time></trkpt><trkpt lat="59.0671774372" lon="29.9843275733"><ele>81.85</ele><time>2026-04-25T15:37:33Z</time></trkpt><trkpt lat="59.0671110526" lon="29.9842843227"><ele>81.85</ele><time>2026-04-25T15:37:44Z</time></trkpt><trkpt lat="59.0670038480" lon="29.9842556566"><ele>81.85</ele><time>2026-04-25T15:37:53Z</time></trkpt><trkpt lat="59.0668880939" lon="29.9842429999"><ele>81.85</ele><time>2026-04-25T15:38:06Z</time></trkpt><trkpt lat="59.0667549055" lon="29.9842134956"><ele>81.85</ele><time>2026-04-25T15:38:18Z</time></trkpt><trkpt lat="59.0667057037" lon="29.9841839913"><ele>81.85</ele><time>2026-04-25T15:38:23Z</time></trkpt><trkpt lat="59.0666093957" lon="29.9841280840"><ele>81.85</ele><time>2026-04-25T15:38:35Z</time></trkpt><trkpt lat="59.0664589405" lon="29.9840511382"><ele>82.33</ele><time>2026-04-25T15:38:50Z</time></trkpt><trkpt lat="59.0663303621" lon="29.9839995056"><ele>82.33</ele><time>2026-04-25T15:39:03Z</time></trkpt><trkpt lat="59.0662840102" lon="29.9840251543"><ele>82.33</ele><time>2026-04-25T15:39:08Z</time></trkpt><trkpt lat="59.0661724471" lon="29.9839871842"><ele>82.33</ele><time>2026-04-25T15:39:22Z</time></trkpt><trkpt lat="59.0661029611" lon="29.9839629605"><ele>82.33</ele><time>2026-04-25T15:39:34Z</time></trkpt><trkpt lat="59.0659981035" lon="29.9839780480"><ele>82.33</ele><time>2026-04-25T15:39:46Z</time></trkpt><trkpt lat="59.0658737160" lon="29.9839396589"><ele>82.33</ele><time>2026-04-25T15:39:58Z</time></trkpt><trkpt lat="59.0658582933" lon="29.9839427602"><ele>82.33</ele><time>2026-04-25T15:40:00Z</time></trkpt><trkpt lat="59.0657712054" lon="29.9838907085"><ele>82.33</ele><time>2026-04-25T15:40:14Z</time></trkpt><trkpt lat="59.0656482428" lon="29.9838670716"><ele>81.85</ele><time>2026-04-25T15:40:27Z</time></trkpt><trkpt lat="59.0655246936" lon="29.9838375673"><ele>81.85</ele><time>2026-04-25T15:40:40Z</time></trkpt><trkpt lat="59.0654129628" lon="29.9837674107"><ele>81.85</ele><time>2026-04-25T15:40:52Z</time></trkpt><trkpt lat="59.0653853863" lon="29.9837852642"><ele>81.85</ele><time>2026-04-25T15:41:04Z</time></trkpt><trkpt lat="59.0652947780" lon="29.9837855995"><ele>81.85</ele><time>2026-04-25T15:41:16Z</time></trkpt><trkpt lat="59.0651897527" lon="29.9837316200"><ele>81.85</ele><time>2026-04-25T15:41:27Z</time></trkpt><trkpt lat="59.0650422312" lon="29.9836173747"><ele>81.85</ele><time>2026-04-25T15:41:41Z</time></trkpt><trkpt lat="59.0649454203" lon="29.9835795723"><ele>81.85</ele><time>2026-04-25T15:41:53Z</time></trkpt><trkpt lat="59.0649095457" lon="29.9835642334"><ele>82.33</ele><time>2026-04-25T15:42:04Z</time></trkpt><trkpt lat="59.0648434963" lon="29.9835794885"><ele>82.33</ele><time>2026-04-25T15:42:16Z</time></trkpt><trkpt lat="59.0648291633" lon="29.9836117588"><ele>82.33</ele><time>2026-04-25T15:42:35Z</time></trkpt><trkpt lat="59.0647491999" lon="29.9835987668"><ele>82.33</ele><time>2026-04-25T15:42:44Z</time></trkpt><trkpt lat="59.0646498743" lon="29.9835456256"><ele>82.33</ele><time>2026-04-25T15:42:56Z</time></trkpt><trkpt lat="59.0645741858" lon="29.9834539276"><ele>82.33</ele><time>2026-04-25T15:43:08Z</time></trkpt><trkpt lat="59.0645446815" lon="29.9834349845"><ele>82.33</ele><time>2026-04-25T15:43:12Z</time></trkpt><trkpt lat="59.0644951444" lon="29.9834529217"><ele>82.33</ele><time>2026-04-25T15:43:25Z</time></trkpt><trkpt lat="59.0644783806" lon="29.9834167119"><ele>82.33</ele><time>2026-04-25T15:43:35Z</time></trkpt><trkpt lat="59.0644895285" lon="29.9833991099"><ele>82.33</ele><time>2026-04-25T15:44:09Z</time></trkpt><trkpt lat="59.0644827392" lon="29.9834022950"><ele>81.85</ele><time>2026-04-25T15:44:20Z</time></trkpt><trkpt lat="59.0643567592" lon="29.9834046420"><ele>81.85</ele><time>2026-04-25T15:44:34Z</time></trkpt><trkpt lat="59.0642251633" lon="29.9833945837"><ele>81.85</ele><time>2026-04-25T15:44:46Z</time></trkpt><trkpt lat="59.0641834214" lon="29.9834298715"><ele>81.85</ele><time>2026-04-25T15:45:05Z</time></trkpt><trkpt lat="59.0641394164" lon="29.9834464677"><ele>81.85</ele><time>2026-04-25T15:45:23Z</time></trkpt><trkpt lat="59.0641332138" lon="29.9833318032"><ele>82.33</ele><time>2026-04-25T15:45:39Z</time></trkpt><trkpt lat="59.0641216468" lon="29.9832720403"><ele>82.33</ele><time>2026-04-25T15:45:54Z</time></trkpt><trkpt lat="59.0640916396" lon="29.9833043944"><ele>82.81</ele><time>2026-04-25T15:46:09Z</time></trkpt><trkpt lat="59.0639861114" lon="29.9833652470"><ele>82.81</ele><time>2026-04-25T15:46:21Z</time></trkpt><trkpt lat="59.0639297012" lon="29.9833337311"><ele>82.81</ele><time>2026-04-25T15:46:42Z</time></trkpt><trkpt lat="59.0639031306" lon="29.9833205715"><ele>82.81</ele><time>2026-04-25T15:46:58Z</time></trkpt><trkpt lat="59.0637965128" lon="29.9832586292"><ele>82.81</ele><time>2026-04-25T15:47:11Z</time></trkpt><trkpt lat="59.0636805911" lon="29.9832404405"><ele>82.33</ele><time>2026-04-25T15:47:24Z</time></trkpt><trkpt lat="59.0635651723" lon="29.9832079187"><ele>82.33</ele><time>2026-04-25T15:47:38Z</time></trkpt><trkpt lat="59.0634686127" lon="29.9831825215"><ele>82.81</ele><time>2026-04-25T15:47:51Z</time></trkpt><trkpt lat="59.0634505078" lon="29.9831650034"><ele>82.33</ele><time>2026-04-25T15:47:55Z</time></trkpt><trkpt lat="59.0633273777" lon="29.9831030611"><ele>82.33</ele><time>2026-04-25T15:48:09Z</time></trkpt><trkpt lat="59.0632618312" lon="29.9830950983"><ele>82.33</ele><time>2026-04-25T15:48:16Z</time></trkpt><trkpt lat="59.0631946921" lon="29.9830800947"><ele>82.33</ele><time>2026-04-25T15:48:25Z</time></trkpt><trkpt lat="59.0630677063" lon="29.9830122851"><ele>82.33</ele><time>2026-04-25T15:48:40Z</time></trkpt><trkpt lat="59.0629500244" lon="29.9829728901"><ele>82.33</ele><time>2026-04-25T15:48:54Z</time></trkpt><trkpt lat="59.0628188476" lon="29.9829740636"><ele>82.33</ele><time>2026-04-25T15:49:09Z</time></trkpt><trkpt lat="59.0627289936" lon="29.9829220958"><ele>82.33</ele><time>2026-04-25T15:49:22Z</time></trkpt><trkpt lat="59.0626520477" lon="29.9829037394"><ele>82.33</ele><time>2026-04-25T15:49:33Z</time></trkpt><trkpt lat="59.0626321826" lon="29.9828916695"><ele>82.33</ele><time>2026-04-25T15:49:36Z</time></trkpt><trkpt lat="59.0625052806" lon="29.9828617461"><ele>82.81</ele><time>2026-04-25T15:49:51Z</time></trkpt><trkpt lat="59.0623814799" lon="29.9828638416"><ele>82.81</ele><time>2026-04-25T15:50:05Z</time></trkpt><trkpt lat="59.0622553322" lon="29.9827846326"><ele>82.33</ele><time>2026-04-25T15:50:20Z</time></trkpt><trkpt lat="59.0621436853" lon="29.9827730656"><ele>82.33</ele><time>2026-04-25T15:50:33Z</time></trkpt><trkpt lat="59.0620417614" lon="29.9827290606"><ele>82.33</ele><time>2026-04-25T15:50:44Z</time></trkpt><trkpt lat="59.0619746223" lon="29.9826987181"><ele>82.81</ele><time>2026-04-25T15:50:51Z</time></trkpt><trkpt lat="59.0618498996" lon="29.9826728180"><ele>82.33</ele><time>2026-04-25T15:51:04Z</time></trkpt><trkpt lat="59.0617553517" lon="29.9826520309"><ele>82.33</ele><time>2026-04-25T15:51:16Z</time></trkpt><trkpt lat="59.0616779868" lon="29.9826317467"><ele>82.33</ele><time>2026-04-25T15:51:26Z</time></trkpt><trkpt lat="59.0615618136" lon="29.9825752527"><ele>82.33</ele><time>2026-04-25T15:51:40Z</time></trkpt><trkpt lat="59.0614459757" lon="29.9825741630"><ele>82.33</ele><time>2026-04-25T15:51:52Z</time></trkpt><trkpt lat="59.0613295510" lon="29.9825401325"><ele>82.33</ele><time>2026-04-25T15:52:05Z</time></trkpt><trkpt lat="59.0611954406" lon="29.9824861530"><ele>82.33</ele><time>2026-04-25T15:52:19Z</time></trkpt><trkpt lat="59.0611850470" lon="29.9824859016"><ele>82.81</ele><time>2026-04-25T15:52:33Z</time></trkpt><trkpt lat="59.0611236915" lon="29.9824482668"><ele>82.81</ele><time>2026-04-25T15:52:47Z</time></trkpt><trkpt lat="59.0610499308" lon="29.9824129790"><ele>82.81</ele><time>2026-04-25T15:52:56Z</time></trkpt><trkpt lat="59.0609191731" lon="29.9823892582"><ele>82.81</ele><time>2026-04-25T15:53:09Z</time></trkpt><trkpt lat="59.0608540457" lon="29.9823400564"><ele>82.81</ele><time>2026-04-25T15:53:15Z</time></trkpt><trkpt lat="59.0607293230" lon="29.9822876696"><ele>82.33</ele><time>2026-04-25T15:53:28Z</time></trkpt><trkpt lat="59.0607211087" lon="29.9822773598"><ele>82.33</ele><time>2026-04-25T15:53:29Z</time></trkpt><trkpt lat="59.0606246330" lon="29.9822538067"><ele>82.33</ele><time>2026-04-25T15:53:42Z</time></trkpt><trkpt lat="59.0605080407" lon="29.9822061975"><ele>82.33</ele><time>2026-04-25T15:53:54Z</time></trkpt><trkpt lat="59.0603880119" lon="29.9821758550"><ele>82.33</ele><time>2026-04-25T15:54:05Z</time></trkpt><trkpt lat="59.0603809711" lon="29.9821759388"><ele>82.33</ele><time>2026-04-25T15:54:06Z</time></trkpt><trkpt lat="59.0603299253" lon="29.9821913615"><ele>82.81</ele><time>2026-04-25T15:54:13Z</time></trkpt><trkpt lat="59.0602831542" lon="29.9821719155"><ele>82.81</ele><time>2026-04-25T15:54:19Z</time></trkpt><trkpt lat="59.0601578448" lon="29.9821262341"><ele>82.81</ele><time>2026-04-25T15:54:33Z</time></trkpt><trkpt lat="59.0600985009" lon="29.9821016751"><ele>82.81</ele><time>2026-04-25T15:54:48Z</time></trkpt><trkpt lat="59.0599674080" lon="29.9821022619"><ele>82.81</ele><time>2026-04-25T15:55:04Z</time></trkpt><trkpt lat="59.0598616283" lon="29.9820400681"><ele>82.81</ele><time>2026-04-25T15:55:18Z</time></trkpt><trkpt lat="59.0598139353" lon="29.9820258189"><ele>82.81</ele><time>2026-04-25T15:55:30Z</time></trkpt><trkpt lat="59.0597132687" lon="29.9819919560"><ele>82.81</ele><time>2026-04-25T15:55:44Z</time></trkpt><trkpt lat="59.0595990233" lon="29.9819919560"><ele>82.81</ele><time>2026-04-25T15:55:56Z</time></trkpt><trkpt lat="59.0595224127" lon="29.9819080532"><ele>82.81</ele><time>2026-04-25T15:56:09Z</time></trkpt><trkpt lat="59.0594313014" lon="29.9818793871"><ele>82.81</ele><time>2026-04-25T15:56:23Z</time></trkpt><trkpt lat="59.0593021363" lon="29.9818645511"><ele>82.81</ele><time>2026-04-25T15:56:38Z</time></trkpt><trkpt lat="59.0592841990" lon="29.9818772916"><ele>82.81</ele><time>2026-04-25T15:56:40Z</time></trkpt><trkpt lat="59.0591757372" lon="29.9818248209"><ele>82.81</ele><time>2026-04-25T15:56:54Z</time></trkpt><trkpt lat="59.0591251105" lon="29.9817856774"><ele>82.81</ele><time>2026-04-25T15:57:08Z</time></trkpt><trkpt lat="59.0590077639" lon="29.9817453604"><ele>82.81</ele><time>2026-04-25T15:57:21Z</time></trkpt><trkpt lat="59.0588910040" lon="29.9817052111"><ele>82.81</ele><time>2026-04-25T15:57:33Z</time></trkpt><trkpt lat="59.0588039160" lon="29.9816383235"><ele>82.81</ele><time>2026-04-25T15:57:47Z</time></trkpt><trkpt lat="59.0587169956" lon="29.9815901276"><ele>82.81</ele><time>2026-04-25T15:57:57Z</time></trkpt><trkpt lat="59.0586237051" lon="29.9815643113"><ele>82.81</ele><time>2026-04-25T15:58:09Z</time></trkpt><trkpt lat="59.0585993137" lon="29.9815738667"><ele>82.81</ele><time>2026-04-25T15:58:12Z</time></trkpt><trkpt lat="59.0584895946" lon="29.9815679155"><ele>82.81</ele><time>2026-04-25T15:58:26Z</time></trkpt><trkpt lat="59.0583834797" lon="29.9815512355"><ele>82.81</ele><time>2026-04-25T15:58:39Z</time></trkpt><trkpt lat="59.0582828969" lon="29.9815383274"><ele>82.81</ele><time>2026-04-25T15:58:52Z</time></trkpt><trkpt lat="59.0582050290" lon="29.9814992677"><ele>82.81</ele><time>2026-04-25T15:59:04Z</time></trkpt><trkpt lat="59.0581193659" lon="29.9814158678"><ele>82.81</ele><time>2026-04-25T15:59:17Z</time></trkpt><trkpt lat="59.0580744389" lon="29.9813693482"><ele>82.81</ele><time>2026-04-25T15:59:30Z</time></trkpt><trkpt lat="59.0580083057" lon="29.9813634809"><ele>82.81</ele><time>2026-04-25T15:59:43Z</time></trkpt><trkpt lat="59.0579123329" lon="29.9813711084"><ele>82.81</ele><time>2026-04-25T15:59:55Z</time></trkpt><trkpt lat="59.0577854309" lon="29.9813385867"><ele>82.81</ele><time>2026-04-25T16:00:08Z</time></trkpt><trkpt lat="59.0577186272" lon="29.9813167099"><ele>82.81</ele><time>2026-04-25T16:00:20Z</time></trkpt><trkpt lat="59.0576569363" lon="29.9813307077"><ele>82.81</ele><time>2026-04-25T16:00:33Z</time></trkpt><trkpt lat="59.0576418489" lon="29.9813283607"><ele>82.81</ele><time>2026-04-25T16:00:35Z</time></trkpt><trkpt lat="59.0576086566" lon="29.9813191406"><ele>83.29</ele><time>2026-04-25T16:00:48Z</time></trkpt><trkpt lat="59.0575670823" lon="29.9812973477"><ele>83.29</ele><time>2026-04-25T16:01:03Z</time></trkpt><trkpt lat="59.0575623885" lon="29.9812813383"><ele>83.29</ele><time>2026-04-25T16:01:33Z</time></trkpt><trkpt lat="59.0575808287" lon="29.9812840205"><ele>83.29</ele><time>2026-04-25T16:02:04Z</time></trkpt><trkpt lat="59.0575800743" lon="29.9812805001"><ele>83.29</ele><time>2026-04-25T16:02:20Z</time></trkpt><trkpt lat="59.0576027893" lon="29.9813127704"><ele>83.29</ele><time>2026-04-25T16:02:37Z</time></trkpt><trkpt lat="59.0576741192" lon="29.9813426938"><ele>83.29</ele><time>2026-04-25T16:02:45Z</time></trkpt><trkpt lat="59.0577236563" lon="29.9813545123"><ele>83.29</ele><time>2026-04-25T16:02:50Z</time></trkpt><trkpt lat="59.0577542502" lon="29.9813793227"><ele>83.29</ele><time>2026-04-25T16:02:53Z</time></trkpt><trkpt lat="59.0578172822" lon="29.9813646544"><ele>83.29</ele><time>2026-04-25T16:03:05Z</time></trkpt><trkpt lat="59.0578179527" lon="29.9813631456"><ele>83.29</ele><time>2026-04-25T16:03:16Z</time></trkpt><trkpt lat="59.0578300226" lon="29.9813151173"><ele>83.29</ele><time>2026-04-25T16:03:21Z</time></trkpt><trkpt lat="59.0578575991" lon="29.9812580366"><ele>83.29</ele><time>2026-04-25T16:03:32Z</time></trkpt><trkpt lat="59.0578697529" lon="29.9812477268"><ele>83.29</ele><time>2026-04-25T16:03:55Z</time></trkpt><trkpt lat="59.0578707587" lon="29.9812414404"><ele>83.77</ele><time>2026-04-25T16:04:12Z</time></trkpt><trkpt lat="59.0578643885" lon="29.9812426139"><ele>83.77</ele><time>2026-04-25T16:04:32Z</time></trkpt><trkpt lat="59.0578447748" lon="29.9812693521"><ele>83.77</ele><time>2026-04-25T16:04:54Z</time></trkpt><trkpt lat="59.0578191262" lon="29.9813166261"><ele>83.77</ele><time>2026-04-25T16:05:06Z</time></trkpt><trkpt lat="59.0578543302" lon="29.9812516663"><ele>83.77</ele><time>2026-04-25T16:05:21Z</time></trkpt><trkpt lat="59.0578598622" lon="29.9812286999"><ele>84.25</ele><time>2026-04-25T16:05:38Z</time></trkpt><trkpt lat="59.0578475408" lon="29.9812223297"><ele>84.25</ele><time>2026-04-25T16:06:14Z</time></trkpt><trkpt lat="59.0578290168" lon="29.9812068231"><ele>84.25</ele><time>2026-04-25T16:06:51Z</time></trkpt><trkpt lat="59.0578287654" lon="29.9812179711"><ele>84.25</ele><time>2026-04-25T16:07:25Z</time></trkpt><trkpt lat="59.0578441881" lon="29.9812209047"><ele>84.25</ele><time>2026-04-25T16:07:35Z</time></trkpt><trkpt lat="59.0578425117" lon="29.9812188093"><ele>84.73</ele><time>2026-04-25T16:07:58Z</time></trkpt><trkpt lat="59.0578420926" lon="29.9812237546"><ele>84.73</ele><time>2026-04-25T16:08:28Z</time></trkpt><trkpt lat="59.0578423440" lon="29.9812062364"><ele>84.73</ele><time>2026-04-25T16:08:59Z</time></trkpt><trkpt lat="59.0578439366" lon="29.9811976869"><ele>84.25</ele><time>2026-04-25T16:09:30Z</time></trkpt><trkpt lat="59.0578430146" lon="29.9812030513"><ele>84.25</ele><time>2026-04-25T16:10:06Z</time></trkpt><trkpt lat="59.0578399133" lon="29.9812055659"><ele>84.25</ele><time>2026-04-25T16:10:40Z</time></trkpt><trkpt lat="59.0578436013" lon="29.9812051468"><ele>84.25</ele><time>2026-04-25T16:11:16Z</time></trkpt><trkpt lat="59.0578332078" lon="29.9812092539"><ele>84.73</ele><time>2026-04-25T16:11:49Z</time></trkpt><trkpt lat="59.0578280110" lon="29.9812110979"><ele>84.73</ele><time>2026-04-25T16:12:15Z</time></trkpt><trkpt lat="59.0578283463" lon="29.9812130257"><ele>84.25</ele><time>2026-04-25T16:12:47Z</time></trkpt><trkpt lat="59.0578260832" lon="29.9812086672"><ele>84.25</ele><time>2026-04-25T16:13:11Z</time></trkpt><trkpt lat="59.0578195453" lon="29.9812051468"><ele>84.25</ele><time>2026-04-25T16:13:40Z</time></trkpt><trkpt lat="59.0578202158" lon="29.9812120199"><ele>84.25</ele><time>2026-04-25T16:14:06Z</time></trkpt><trkpt lat="59.0578234009" lon="29.9812187254"><ele>84.25</ele><time>2026-04-25T16:14:33Z</time></trkpt><trkpt lat="59.0578280110" lon="29.9812224135"><ele>84.25</ele><time>2026-04-25T16:14:55Z</time></trkpt><trkpt lat="59.0578407515" lon="29.9812221620"><ele>84.25</ele><time>2026-04-25T16:15:20Z</time></trkpt><trkpt lat="59.0578342136" lon="29.9812198151"><ele>84.25</ele><time>2026-04-25T16:15:51Z</time></trkpt><trkpt lat="59.0578332916" lon="29.9812141154"><ele>84.73</ele><time>2026-04-25T16:16:29Z</time></trkpt><trkpt lat="59.0578340460" lon="29.9812004529"><ele>84.25</ele><time>2026-04-25T16:16:52Z</time></trkpt><trkpt lat="59.0578331240" lon="29.9812141154"><ele>84.25</ele><time>2026-04-25T16:17:18Z</time></trkpt></trkseg><trkseg><trkpt lat="59.0578352194" lon="29.9812154565"><ele>84.25</ele><time>2026-04-25T16:17:37Z</time></trkpt><trkpt lat="59.0578423440" lon="29.9812088348"><ele>84.25</ele><time>2026-04-25T16:18:03Z</time></trkpt><trkpt lat="59.0578447748" lon="29.9812091701"><ele>84.25</ele><time>2026-04-25T16:18:20Z</time></trkpt><trkpt lat="59.0578435175" lon="29.9812059850"><ele>84.25</ele><time>2026-04-25T16:18:53Z</time></trkpt><trkpt lat="59.0578477085" lon="29.9811955076"><ele>84.25</ele><time>2026-04-25T16:19:26Z</time></trkpt><trkpt lat="59.0578508098" lon="29.9811950885"><ele>84.25</ele><time>2026-04-25T16:20:06Z</time></trkpt><trkpt lat="59.0578541625" lon="29.9812000338"><ele>84.73</ele><time>2026-04-25T16:20:32Z</time></trkpt><trkpt lat="59.0578499716" lon="29.9812079966"><ele>84.73</ele><time>2026-04-25T16:21:13Z</time></trkpt><trkpt lat="59.0578470379" lon="29.9812270235"><ele>84.73</ele><time>2026-04-25T16:21:42Z</time></trkpt><trkpt lat="59.0578418411" lon="29.9812337290"><ele>84.25</ele><time>2026-04-25T16:22:10Z</time></trkpt><trkpt lat="59.0578387398" lon="29.9812191445"><ele>84.25</ele><time>2026-04-25T16:22:39Z</time></trkpt><trkpt lat="59.0578318667" lon="29.9811757263"><ele>84.73</ele><time>2026-04-25T16:22:57Z</time></trkpt><trkpt lat="59.0578506421" lon="29.9810447171"><ele>84.73</ele><time>2026-04-25T16:23:07Z</time></trkpt><trkpt lat="59.0578545816" lon="29.9809484929"><ele>84.73</ele><time>2026-04-25T16:23:15Z</time></trkpt><trkpt lat="59.0578168631" lon="29.9807961099"><ele>84.73</ele><time>2026-04-25T16:23:27Z</time></trkpt><trkpt lat="59.0577824134" lon="29.9806588143"><ele>84.73</ele><time>2026-04-25T16:23:37Z</time></trkpt><trkpt lat="59.0577657335" lon="29.9805866461"><ele>84.73</ele><time>2026-04-25T16:23:49Z</time></trkpt><trkpt lat="59.0577474609" lon="29.9805801921"><ele>84.73</ele><time>2026-04-25T16:24:05Z</time></trkpt><trkpt lat="59.0577540826" lon="29.9805978779"><ele>84.73</ele><time>2026-04-25T16:24:23Z</time></trkpt><trkpt lat="59.0577658173" lon="29.9806501810"><ele>84.73</ele><time>2026-04-25T16:24:26Z</time></trkpt><trkpt lat="59.0577875264" lon="29.9807241932"><ele>84.73</ele><time>2026-04-25T16:24:30Z</time></trkpt><trkpt lat="59.0578025300" lon="29.9809339922"><ele>84.73</ele><time>2026-04-25T16:24:41Z</time></trkpt><trkpt lat="59.0578093193" lon="29.9811714515"><ele>84.73</ele><time>2026-04-25T16:24:54Z</time></trkpt><trkpt lat="59.0577936452" lon="29.9812773149"><ele>84.73</ele><time>2026-04-25T16:25:04Z</time></trkpt><trkpt lat="59.0577960759" lon="29.9812970962"><ele>84.25</ele><time>2026-04-25T16:25:15Z</time></trkpt><trkpt lat="59.0577810723" lon="29.9813638162"><ele>84.25</ele><time>2026-04-25T16:25:28Z</time></trkpt><trkpt lat="59.0577850118" lon="29.9813699350"><ele>84.25</ele><time>2026-04-25T16:25:30Z</time></trkpt><trkpt lat="59.0578218922" lon="29.9815566000"><ele>84.73</ele><time>2026-04-25T16:25:41Z</time></trkpt><trkpt lat="59.0578234009" lon="29.9816730246"><ele>84.25</ele><time>2026-04-25T16:25:48Z</time></trkpt><trkpt lat="59.0577824973" lon="29.9817921314"><ele>84.25</ele><time>2026-04-25T16:25:58Z</time></trkpt><trkpt lat="59.0577845089" lon="29.9818099011"><ele>84.25</ele><time>2026-04-25T16:25:59Z</time></trkpt><trkpt lat="59.0578182880" lon="29.9819669779"><ele>84.25</ele><time>2026-04-25T16:26:08Z</time></trkpt><trkpt lat="59.0578029491" lon="29.9820386432"><ele>84.25</ele><time>2026-04-25T16:26:12Z</time></trkpt><trkpt lat="59.0577880293" lon="29.9822396412"><ele>84.25</ele><time>2026-04-25T16:26:24Z</time></trkpt><trkpt lat="59.0577938128" lon="29.9822869990"><ele>84.25</ele><time>2026-04-25T16:26:27Z</time></trkpt><trkpt lat="59.0577912144" lon="29.9823489413"><ele>84.25</ele><time>2026-04-25T16:26:32Z</time></trkpt><trkpt lat="59.0577929746" lon="29.9823893420"><ele>84.25</ele><time>2026-04-25T16:26:35Z</time></trkpt><trkpt lat="59.0578213055" lon="29.9825584050"><ele>84.25</ele><time>2026-04-25T16:26:44Z</time></trkpt><trkpt lat="59.0578244906" lon="29.9826598261"><ele>84.25</ele><time>2026-04-25T16:26:53Z</time></trkpt><trkpt lat="59.0578151029" lon="29.9826969579"><ele>84.25</ele><time>2026-04-25T16:26:57Z</time></trkpt><trkpt lat="59.0578130912" lon="29.9827415496"><ele>84.25</ele><time>2026-04-25T16:27:00Z</time></trkpt><trkpt lat="59.0578236524" lon="29.9827607442"><ele>84.25</ele><time>2026-04-25T16:27:02Z</time></trkpt><trkpt lat="59.0578207187" lon="29.9829290528"><ele>83.77</ele><time>2026-04-25T16:27:15Z</time></trkpt><trkpt lat="59.0577716846" lon="29.9829867203"><ele>83.77</ele><time>2026-04-25T16:27:24Z</time></trkpt><trkpt lat="59.0577662364" lon="29.9830725510"><ele>83.77</ele><time>2026-04-25T16:27:33Z</time></trkpt><trkpt lat="59.0577602852" lon="29.9831805937"><ele>83.77</ele><time>2026-04-25T16:27:43Z</time></trkpt><trkpt lat="59.0577392466" lon="29.9832070805"><ele>83.77</ele><time>2026-04-25T16:27:46Z</time></trkpt><trkpt lat="59.0576792322" lon="29.9832997844"><ele>83.77</ele><time>2026-04-25T16:27:54Z</time></trkpt><trkpt lat="59.0575776435" lon="29.9832485709"><ele>83.77</ele><time>2026-04-25T16:28:07Z</time></trkpt><trkpt lat="59.0574775636" lon="29.9832088407"><ele>83.77</ele><time>2026-04-25T16:28:18Z</time></trkpt><trkpt lat="59.0574105084" lon="29.9831447192"><ele>83.77</ele><time>2026-04-25T16:28:31Z</time></trkpt><trkpt lat="59.0573830996" lon="29.9831112754"><ele>83.77</ele><time>2026-04-25T16:28:36Z</time></trkpt><trkpt lat="59.0573763940" lon="29.9830679409"><ele>83.77</ele><time>2026-04-25T16:28:39Z</time></trkpt><trkpt lat="59.0573047288" lon="29.9829769135"><ele>83.77</ele><time>2026-04-25T16:28:51Z</time></trkpt><trkpt lat="59.0572969336" lon="29.9829733092"><ele>83.77</ele><time>2026-04-25T16:28:52Z</time></trkpt><trkpt lat="59.0572189819" lon="29.9828951899"><ele>83.29</ele><time>2026-04-25T16:29:04Z</time></trkpt><trkpt lat="59.0571121965" lon="29.9828291405"><ele>83.29</ele><time>2026-04-25T16:29:15Z</time></trkpt><trkpt lat="59.0570809320" lon="29.9828504305"><ele>83.29</ele><time>2026-04-25T16:29:19Z</time></trkpt><trkpt lat="59.0569444746" lon="29.9829200841"><ele>83.77</ele><time>2026-04-25T16:29:36Z</time></trkpt><trkpt lat="59.0568911657" lon="29.9830290489"><ele>83.29</ele><time>2026-04-25T16:29:47Z</time></trkpt><trkpt lat="59.0568154771" lon="29.9830703717"><ele>83.29</ele><time>2026-04-25T16:29:55Z</time></trkpt><trkpt lat="59.0567804407" lon="29.9830681924"><ele>83.29</ele><time>2026-04-25T16:30:07Z</time></trkpt><trkpt lat="59.0567179956" lon="29.9831090122"><ele>83.29</ele><time>2026-04-25T16:30:18Z</time></trkpt><trkpt lat="59.0566389542" lon="29.9831671827"><ele>83.29</ele><time>2026-04-25T16:30:31Z</time></trkpt><trkpt lat="59.0565340966" lon="29.9831204955"><ele>83.29</ele><time>2026-04-25T16:30:41Z</time></trkpt><trkpt lat="59.0564603359" lon="29.9829633348"><ele>83.29</ele><time>2026-04-25T16:30:52Z</time></trkpt><trkpt lat="59.0564377885" lon="29.9828965310"><ele>82.81</ele><time>2026-04-25T16:31:07Z</time></trkpt><trkpt lat="59.0564337652" lon="29.9828750733"><ele>82.81</ele><time>2026-04-25T16:31:25Z</time></trkpt><trkpt lat="59.0564139839" lon="29.9828432221"><ele>83.29</ele><time>2026-04-25T16:31:44Z</time></trkpt><trkpt lat="59.0563030075" lon="29.9827590678"><ele>83.29</ele><time>2026-04-25T16:31:56Z</time></trkpt><trkpt lat="59.0563009121" lon="29.9827534519"><ele>83.29</ele><time>2026-04-25T16:31:59Z</time></trkpt><trkpt lat="59.0562785324" lon="29.9825641885"><ele>83.29</ele><time>2026-04-25T16:32:07Z</time></trkpt><trkpt lat="59.0562610142" lon="29.9822870828"><ele>83.29</ele><time>2026-04-25T16:32:18Z</time></trkpt><trkpt lat="59.0562289953" lon="29.9821530562"><ele>83.29</ele><time>2026-04-25T16:32:26Z</time></trkpt><trkpt lat="59.0562409814" lon="29.9821233843"><ele>83.29</ele><time>2026-04-25T16:32:27Z</time></trkpt><trkpt lat="59.0562468488" lon="29.9820779543"><ele>83.29</ele><time>2026-04-25T16:32:31Z</time></trkpt><trkpt lat="59.0562344436" lon="29.9820731767"><ele>83.29</ele><time>2026-04-25T16:32:33Z</time></trkpt><trkpt lat="59.0562244691" lon="29.9820602685"><ele>83.29</ele><time>2026-04-25T16:32:34Z</time></trkpt><trkpt lat="59.0562149137" lon="29.9820334464"><ele>83.29</ele><time>2026-04-25T16:32:35Z</time></trkpt><trkpt lat="59.0562065318" lon="29.9820032716"><ele>83.29</ele><time>2026-04-25T16:32:36Z</time></trkpt><trkpt lat="59.0561991557" lon="29.9819770362"><ele>83.29</ele><time>2026-04-25T16:32:37Z</time></trkpt><trkpt lat="59.0561777819" lon="29.9819450174"><ele>83.29</ele><time>2026-04-25T16:32:41Z</time></trkpt><trkpt lat="59.0561263170" lon="29.9819653854"><ele>83.29</ele><time>2026-04-25T16:32:44Z</time></trkpt><trkpt lat="59.0560854971" lon="29.9819585122"><ele>83.29</ele><time>2026-04-25T16:32:51Z</time></trkpt><trkpt lat="59.0560658835" lon="29.9819005094"><ele>82.81</ele><time>2026-04-25T16:32:55Z</time></trkpt><trkpt lat="59.0560611058" lon="29.9818811473"><ele>83.77</ele><time>2026-04-25T16:32:56Z</time></trkpt><trkpt lat="59.0560624469" lon="29.9818456918"><ele>83.77</ele><time>2026-04-25T16:33:11Z</time></trkpt></trkseg></trk></gpx>